[[{"header":{"parameterUnit":"m.s-1","parameterCategory":1,"la1":31.0,"la2":29.5877,"lo1":-88.7671,"lo2":-86.6584,"dy":0.0162,"dx":0.0185,"nx":115,"ny":88,"refTime":"2024-06-16T18:00:00:Z","depth":0,"parameterNumber":2,"parameterNumberName":"U-component_of_WINDS"},"data":[0.0,0.0,0.0,0.0,0.0,0.0,0.0,0.0,0.0,0.0,0.0,0.0,0.0,0.0,0.0,0.0,0.0,0.0,0.0,0.0,0.0,0.0,0.0,0.0,0.0,0.0,0.0,0.0,0.0,0.0,0.0,0.0,0.0,0.0,0.0,0.0,0.0,0.0,0.0,0.0,0.0,0.0,0.0,0.0,0.0,0.0,0.0,0.0,0.0,0.0,0.0,0.0,0.0,0.0,0.0,0.0,0.0,0.0,0.0,0.0,0.0,0.0,0.0,0.0,0.0,0.0,0.0,0.0,0.0,0.0,0.0,0.0,0.0,0.0,0.0,0.0,0.0,0.0,0.0,0.0,0.0,0.0,0.0,0.0,0.0,0.0,0.0,0.0,0.0,0.0,0.0,0.0,0.0,0.0,0.0,0.0,0.0,0.0,0.0,0.0,0.0,0.0,0.0,0.0,0.0,0.0,0.0,0.0,0.0,0.0,0.0,0.0,0.0,0.0,0.0,0.0,0.0,0.0,0.0,0.0,0.0,0.0,0.0,0.0,0.0,0.0,0.0,0.0,0.0,0.0,0.0,0.0,0.0,0.0,0.0,0.0,0.0,0.0,0.0,0.0,0.0,0.0,0.0,0.0,0.0,0.0,0.0,0.0,0.0,0.0,0.0,0.0,0.0,0.0,0.0,0.0,0.0,0.0,0.0,0.0,0.0,0.0,0.0,0.0,0.0,0.0,0.0,0.0,0.0,0.0,0.0,0.0,0.0,0.0,0.0,0.0,0.0,0.0,0.0,0.0,0.0,0.0,0.0,0.0,0.0,0.0,0.0,0.0,0.0,0.0,0.0,0.0,0.0,0.0,0.0,0.0,0.0,0.0,0.0,0.0,0.0,0.0,0.0,0.0,0.0,0.0,0.0,0.0,0.0,0.0,0.0,0.0,0.0,0.0,0.0,0.0,0.0,0.0,0.0,0.0,0.0,0.0,0.0,0.0,0.0,0.0,0.0,0.0,0.0,0.0,0.0,0.0,0.0,0.0,0.0,0.0,0.0,0.0,0.0,0.0,0.0,0.0,0.0,0.0,0.0,0.0,0.0,0.0,0.0,0.0,0.0,0.0,0.0,0.0,0.0,0.0,0.0,0.0,0.0,0.0,0.0,0.0,0.0,0.0,0.0,0.0,0.0,0.0,0.0,0.0,0.0,0.0,0.0,0.0,0.0,0.0,0.0,0.0,0.0,0.0,0.0,0.0,0.0,0.0,0.0,0.0,0.0,0.0,0.0,0.0,0.0,0.0,0.0,0.0,0.0,0.0,0.0,0.0,0.0,0.0,0.0,0.0,0.0,0.0,0.0,0.0,0.0,0.0,0.0,0.0,0.0,0.0,0.0,0.0,0.0,0.0,0.0,0.0,0.0,0.0,0.0,0.0,0.0,0.0,0.0,0.0,0.0,0.0,0.0,0.0,0.0,0.0,0.0,0.0,0.0,0.0,0.0,0.0,0.0,0.0,0.0,0.0,0.0,0.0,0.0,0.0,0.0,0.0,0.0,0.0,0.0,0.0,0.0,0.0,0.0,0.0,0.0,0.0,0.0,0.0,0.0,0.0,0.0,0.0,0.0,0.0,0.0,0.0,0.0,0.0,0.0,0.0,0.0,0.0,0.0,0.0,0.0,0.0,0.0,0.0,0.0,0.0,0.0,0.0,0.0,0.0,0.0,0.0,0.0,0.0,0.0,0.0,0.0,0.0,0.0,0.0,0.0,0.0,0.0,0.0,0.0,0.0,0.0,0.0,0.0,0.0,0.0,0.0,0.0,0.0,0.0,0.0,0.0,0.0,0.0,0.0,0.0,0.0,0.0,0.0,0.0,0.0,0.0,0.0,0.0,0.0,0.0,0.0,0.0,0.0,0.0,0.0,0.0,0.0,0.0,0.0,0.0,0.0,0.0,0.0,0.0,0.0,0.0,0.0,0.0,0.0,0.0,0.0,0.0,0.0,0.0,0.0,0.0,0.0,0.0,0.0,0.0,0.0,0.0,0.0,0.0,0.0,0.0,0.0,0.0,0.0,0.0,0.0,0.0,0.0,0.0,0.0,0.0,0.0,0.0,0.0,0.0,0.0,0.0,0.0,0.0,0.0,0.0,0.0,0.0,0.0,0.0,0.0,0.0,0.0,0.0,0.0,0.0,0.0,0.0,0.0,0.0,0.0,0.0,0.0,0.0,0.0,0.0,0.0,0.0,0.0,0.0,0.0,0.0,0.0,0.0,0.0,0.0,0.0,0.0,0.0,0.0,0.0,0.0,0.0,0.0,0.0,0.0,0.0,0.0,0.0,0.0,0.0,0.0,0.0,0.0,0.0,0.0,0.0,0.0,0.0,0.0,0.0,0.0,0.0,0.0,0.0,0.0,0.0,0.0,0.0,0.0,0.0,0.0,0.0,0.0,0.0,0.0,0.0,0.0,0.0,0.0,0.0,0.0,0.0,0.0,0.0,0.0,0.0,0.0,0.0,0.0,0.0,0.0,0.0,0.0,0.0,0.0,0.0,0.0,0.0,0.0,0.0,0.0,0.0,0.0,0.0,0.0,0.0,0.0,0.0,0.0,0.0,0.0,0.0,0.0,0.0,0.0,0.0,0.0,0.0,0.0,0.0,0.0,0.0,0.0,0.0,0.0,0.0,0.0,0.0,0.0,0.0,0.0,0.0,0.0,0.0,0.0,0.0,0.0,0.0,0.0,0.0,0.0,0.0,0.0,0.0,0.0,0.0,0.0,0.0,0.0,0.0,0.0,0.0,0.0,0.0,0.0,0.0,0.0,0.0,0.0,0.0,0.0,0.0,0.0,0.0,0.0,0.0,0.0,0.0,0.0,0.0,0.0,0.0,0.0,0.0,0.0,0.0,0.0,0.0,0.0,0.0,0.0,0.0,0.0,0.0,0.0,0.0,0.0,0.0,0.0,0.0,0.0,0.0,0.0,0.0,0.0,0.0,0.0,0.0,0.0,0.0,0.0,0.0,0.0,0.0,0.0,0.0,0.0,0.0,0.0,0.0,0.0,0.0,0.0,0.0,0.0,0.0,0.0,0.0,0.0,0.0,0.0,0.0,0.0,0.0,0.0,0.0,0.0,0.0,0.0,0.0,0.0,0.0,0.0,0.0,0.0,0.0,0.0,0.0,0.0,0.0,0.0,0.0,0.0,0.0,0.0,0.0,0.0,0.0,0.0,0.0,0.0,0.0,0.0,0.0,0.0,0.0,0.0,0.0,0.0,0.0,0.0,0.0,0.0,0.0,0.0,0.0,0.0,0.0,0.0,0.0,0.0,0.0,0.0,0.0,0.0,0.0,0.0,0.0,0.0,0.0,0.0,0.0,0.0,0.0,0.0,0.0,0.0,0.0,0.0,0.0,0.0,0.0,0.0,0.0,0.0,0.0,0.0,0.0,0.0,0.0,0.0,0.0,0.0,0.0,0.0,0.0,0.0,0.0,0.0,0.0,0.0,0.0,0.0,0.0,0.0,0.0,0.0,0.0,0.0,0.0,0.0,0.0,0.0,0.0,0.0,0.0,0.0,0.0,0.0,0.0,0.0,0.0,0.0,0.0,0.0,0.0,0.0,0.0,0.0,0.0,0.0,0.0,0.0,0.0,0.0,0.0,0.0,0.0,0.0,0.0,0.0,0.0,0.0,0.0,0.0,0.0,0.0,0.0,0.0,0.0,0.0,0.0,0.0,0.0,0.0,0.0,0.0,0.0,0.0,0.0,0.0,0.0,0.0,0.0,0.0,0.0,0.0,0.0,0.0,0.0,0.0,0.0,0.0,0.0,0.0,0.0,0.0,0.0,0.0,0.0,0.0,0.0,0.0,0.0,0.0,0.0,0.0,0.0,0.0,0.0,0.0,0.0,0.0,0.0,0.0,0.0,0.0,0.0,0.0,0.0,0.0,0.0,0.0,0.0,0.0,0.0,0.0,0.0,0.0,0.0,0.0,0.0,0.0,0.0,0.0,0.0,0.0,0.0,0.0,0.0,0.0,0.0,0.0,0.0,0.0,0.0,0.0,0.0,0.0,0.0,0.0,0.0,0.0,0.0,0.0,0.0,0.0,0.0,0.0,0.0,0.0,0.0,0.0,0.0,0.0,0.0,0.0,0.0,0.0,0.0,0.0,0.0,0.0,0.0,0.0,0.0,0.0,0.0,0.0,0.0,0.0,0.0,0.0,0.0,0.0,0.0,0.0,0.0,0.0,0.0,0.0,0.0,0.0,0.0,0.0,0.0,0.0,0.0,0.8689,0.0,0.0,0.0,0.0,0.0,0.0,0.0,0.0,0.0,0.0,0.0,0.0,0.0,0.0,0.0,0.0,0.0,0.0,0.0,0.0,0.0,0.0,0.0,0.0,0.0,0.0,0.0,0.0,0.0,0.0,0.0,0.0,0.0,0.0,0.0,0.0,0.0,0.0,0.0,0.0,0.0,0.0,0.0,0.0,0.0,0.0,0.0,0.0,0.0,0.0,0.0,0.0,0.0,0.0,0.0,0.0,0.0,0.0,0.0,0.0,0.0,0.0,0.0,0.0,0.0,0.0,0.0,0.0,0.0,0.0,0.0,0.0,0.0,0.0,0.0,0.0,0.0,0.0,0.0,0.0,0.0,0.0,0.0,0.0,0.0,0.0,0.0,0.0,0.0,0.0,0.0,0.0,0.0,0.0,0.0,0.0,0.0,0.0,0.0,0.0,0.0,0.0,0.0,0.0,0.0,0.0,0.0,0.0,0.0,0.0,0.9462,0.941,0.9342,0.9124,0.873,0.0,0.0,0.0,0.0,0.0,0.0,0.0,0.0,0.0,0.0,0.0,0.0,0.0,0.0,0.0,0.0,0.0,0.0,0.0,0.0,0.0,0.0,0.0,0.0,0.0,0.0,0.0,0.0,0.0,0.0,0.0,0.0,0.0,0.0,0.0,0.0,0.0,0.0,0.0,0.0,0.0,0.0,0.0,0.0,0.0,0.0,0.0,0.0,0.0,0.0,0.0,0.0,0.0,0.0,0.0,0.0,0.0,0.0,0.0,0.0,0.0,0.0,0.0,0.0,0.0,0.0,0.0,0.0,0.0,0.0,0.0,0.0,0.0,0.0,0.0,0.0,0.0,0.0,0.0,0.0,0.0,0.0,0.0,0.0,0.0,0.0,0.0,0.0,0.0,0.0,0.0,0.0,0.0,0.0,0.0,0.0,0.0,0.0,0.0,0.0,0.0,0.0,0.0,0.0,0.0,0.0,0.0,0.0,0.0,0.0,0.0,0.0,0.9449,0.9225,0.8757,0.0,0.0,0.0,0.0,0.0,0.0,0.0,0.0,0.0,0.0,0.0,0.0,0.0,0.0,0.0,0.0,0.0,0.0,0.0,0.0,0.0,0.0,0.0,0.0,0.0,0.0,0.0,0.0,0.0,0.0,0.0,0.0,0.0,0.0,0.0,0.0,0.0,0.0,0.0,0.0,0.0,0.0,0.0,0.0,0.0,0.0,0.0,0.0,0.0,0.0,0.0,0.0,0.0,0.0,0.0,0.0,0.0,0.0,0.0,0.0,0.0,0.0,0.0,0.0,0.0,0.0,0.0,0.0,0.0,0.0,0.0,0.0,0.0,0.0,0.0,0.0,0.0,0.0,0.0,0.0,0.0,0.0,0.0,0.0,0.0,0.0,0.0,0.0,0.0,0.0,0.0,0.0,0.0,0.0,0.0,0.0,0.0,0.0,0.0,0.0,0.0,0.0,0.0,0.0,0.0,0.0,0.0,0.0,0.0,0.0,0.941,0.9768,0.9623,0.0,0.8898,0.0,0.0,0.0,0.0,0.0,0.0,0.0,0.0,0.0,0.0,0.0,0.0,0.0,0.0,0.0,0.0,0.0,0.0,0.0,0.0,0.0,0.0,0.0,0.0,0.0,0.0,0.0,0.0,0.0,0.0,0.0,0.0,0.0,0.0,0.0,0.0,0.0,0.0,0.0,0.0,0.0,0.0,0.0,0.0,0.0,0.0,0.0,0.0,0.0,0.0,0.0,0.0,0.0,0.0,0.0,0.0,0.0,0.0,0.0,0.0,0.0,0.0,0.0,0.0,0.0,0.0,0.0,0.0,0.0,0.0,0.0,0.0,0.0,0.0,0.0,0.0,0.0,0.0,0.0,0.0,0.0,0.0,0.0,0.0,0.0,0.0,0.0,0.0,0.0,0.0,0.0,0.0,0.0,0.0,0.0,0.0,0.0,0.0,0.0,0.0,0.0,0.0,0.0,0.0,0.0,0.0,0.0,0.0,0.0,0.0,0.951,0.9693,0.9462,0.9211,0.0,0.0,0.0,0.0,0.0,0.0,0.0,0.0,0.0,0.0,0.0,0.0,0.0,0.0,0.0,0.0,0.0,0.0,0.0,0.0,0.0,0.0,0.0,0.0,0.0,0.0,0.0,0.0,0.0,0.0,0.0,0.0,0.0,0.0,0.0,0.0,0.0,0.0,0.0,0.0,0.0,0.0,0.0,0.0,0.0,0.0,0.0,0.0,0.0,0.0,0.0,0.0,0.0,0.0,0.0,0.0,0.0,0.0,0.0,0.0,0.0,0.0,0.0,0.0,0.0,0.0,0.0,0.0,0.0,0.0,0.0,0.0,0.0,0.0,0.0,0.0,0.0,0.0,0.0,0.0,0.0,0.0,0.0,0.0,0.0,0.0,0.0,0.0,0.0,0.0,0.0,0.0,0.0,0.0,0.0,0.0,0.0,0.0,0.0,0.0,0.0,0.0,0.0,0.0,0.0,0.0,0.0,0.0,0.0,0.0,0.9422,0.9564,0.9568,0.9464,0.9191,0.8858,0.0,0.0,0.0,0.0,0.0,0.0,0.0,0.0,0.0,0.0,0.0,0.0,0.0,0.0,0.0,0.0,0.0,0.0,0.0,0.0,0.0,0.0,0.0,0.0,0.0,0.0,0.0,0.0,0.0,0.0,0.0,0.0,0.0,0.0,0.0,0.0,0.0,0.0,0.0,0.0,0.0,0.0,0.0,0.0,0.0,0.0,0.0,0.0,0.0,0.0,0.0,0.0,0.0,0.0,0.0,0.0,0.0,0.0,0.0,0.0,0.0,0.0,0.0,0.0,0.0,0.0,0.0,0.0,0.0,0.0,0.0,0.0,0.0,0.0,0.0,0.0,0.0,0.0,0.0,0.0,0.0,0.0,0.0,0.0,0.0,0.0,0.0,0.0,0.0,0.0,0.0,0.0,0.0,0.0,0.0,0.0,0.0,0.0,0.0,0.0,0.0,0.0,0.0,0.0,0.0,0.0,0.0,0.0,0.9704,0.9523,0.9462,0.9618,0.9697,0.9456,0.0,0.0,0.0,0.0,0.0,0.0,0.0,0.0,0.0,0.0,0.0,0.0,0.0,0.0,0.0,0.0,0.0,0.0,0.0,0.0,0.0,0.0,0.0,0.0,0.0,0.0,0.0,0.0,0.0,0.0,0.0,0.0,0.0,0.0,0.0,0.0,0.0,0.0,0.0,0.0,0.0,0.0,0.0,0.0,0.0,0.0,0.0,0.0,0.0,0.0,0.0,0.0,0.0,0.0,0.0,0.0,0.0,0.0,0.0,0.0,0.0,0.0,0.0,0.0,0.0,0.0,0.0,0.0,0.0,0.0,0.0,0.0,0.0,0.0,0.0,0.0,0.0,0.0,0.0,0.0,0.0,0.0,0.0,0.0,0.0,0.0,0.0,0.0,0.0,0.0,0.0,0.0,0.0,0.0,0.0,0.0,0.0,0.0,0.0,0.0,0.0,0.0,0.0,0.0,0.0,0.0,0.0,0.0,0.0,0.9217,0.9334,0.9591,1.0029,0.9508,0.919,0.0,0.0,0.0,0.0,0.0,0.0,0.0,0.0,0.0,0.0,0.0,0.0,0.0,0.0,0.0,0.0,0.0,0.0,0.0,0.0,0.0,0.0,0.0,0.0,0.0,0.0,0.0,0.0,0.0,0.0,0.0,0.0,0.0,0.0,0.0,0.0,0.0,0.0,0.0,0.0,0.0,0.0,0.0,0.0,0.0,0.0,0.0,0.0,0.0,0.0,0.0,0.0,0.0,0.0,0.0,0.0,0.0,0.0,0.0,0.0,0.0,0.0,0.0,0.0,0.0,0.0,0.0,0.0,0.0,0.0,0.0,0.0,0.0,0.0,0.0,0.0,0.0,0.0,0.0,0.0,0.0,0.0,0.0,0.0,0.0,0.0,0.0,0.0,0.0,0.0,0.0,0.0,0.0,0.0,0.0,0.0,0.0,0.0,0.0,0.0,0.0,0.0,0.0,0.0,0.0,0.0,0.0,0.0,0.0,0.9168,0.0,0.9832,1.0025,0.9476,0.9088,0.0,0.0,0.0,0.0,0.0,0.0,0.0,0.0,0.0,0.0,0.0,0.0,0.0,0.0,0.0,0.0,0.0,0.0,0.0,0.0,0.0,0.0,0.0,0.0,0.0,0.0,0.0,0.0,0.0,0.0,0.0,0.0,0.0,0.0,0.0,0.0,0.0,0.0,0.0,0.0,0.0,0.0,0.0,0.0,0.0,0.0,0.0,0.0,0.0,0.0,0.0,0.0,0.0,0.0,0.0,0.0,0.0,0.0,0.0,0.0,0.0,0.0,0.0,0.0,0.0,0.0,0.0,0.0,0.0,0.0,0.0,0.0,0.0,0.0,0.0,0.0,0.0,0.0,0.0,0.0,0.0,0.0,0.0,0.0,0.0,0.0,0.0,0.0,0.0,0.0,0.0,0.0,0.0,0.0,0.0,0.0,0.0,0.0,0.0,0.0,0.0,0.0,0.0,0.0,0.0,0.0,0.0,0.0,0.9175,0.9751,1.0093,1.0046,0.9646,0.9605,0.9184,0.0,0.0,0.0,0.0,0.0,0.0,0.0,0.0,0.0,0.0,0.0,0.0,0.0,0.0,0.0,0.0,0.0,0.0,0.0,0.0,0.0,0.0,0.0,0.0,0.0,0.0,0.0,0.0,0.0,0.0,0.0,0.0,0.0,0.0,0.0,0.0,0.0,0.0,0.0,0.0,0.0,0.0,0.0,0.0,0.0,0.0,0.0,0.0,0.0,0.0,0.0,0.0,0.0,0.0,0.0,0.0,0.0,0.0,0.0,0.0,0.0,0.0,0.0,0.0,0.0,0.0,0.0,0.0,0.0,0.0,0.0,0.0,0.0,0.0,0.0,0.0,0.0,0.0,0.0,0.0,0.0,0.0,0.0,0.0,0.0,0.0,0.0,0.0,0.0,0.0,0.0,0.0,0.0,0.0,0.0,0.0,0.0,0.0,0.0,0.0,0.0,0.0,0.0,0.0,0.0,0.0,0.0,0.0,0.0,0.9523,0.9808,1.0046,1.0188,0.9648,0.9335,0.0,0.0,0.0,0.0,0.0,0.0,0.0,0.0,0.0,0.0,0.0,0.0,0.0,0.0,0.0,0.0,0.0,0.0,0.0,0.0,0.0,0.0,0.0,0.0,0.0,0.0,0.0,0.0,0.0,0.0,0.0,0.0,0.0,0.0,0.0,0.0,0.0,0.0,0.0,0.0,0.0,0.0,0.0,0.0,0.0,0.0,0.0,0.0,0.0,0.0,0.0,0.0,0.0,0.0,0.0,0.0,0.0,0.0,0.0,0.0,0.0,0.0,0.0,0.0,0.0,0.0,0.0,0.0,0.0,0.0,0.0,0.0,0.0,0.0,0.0,0.0,0.0,0.0,0.0,0.0,0.0,0.0,0.0,0.0,0.0,0.0,0.0,0.0,0.0,0.0,0.0,0.0,0.0,0.0,0.0,0.0,0.0,0.0,0.0,0.0,0.0,0.0,0.0,0.0,0.0,0.0,0.0,0.0,0.0,0.9846,1.0055,1.0324,1.0487,0.9836,0.951,0.9551,0.0,0.0,0.0,0.0,0.0,0.0,0.0,0.0,0.0,0.0,0.0,0.0,0.0,0.0,0.0,0.0,0.0,0.0,0.0,0.0,0.0,0.0,0.0,0.0,0.0,0.0,0.0,0.0,0.0,0.0,0.0,0.0,0.0,0.0,0.0,0.0,0.0,0.0,0.0,0.0,0.0,0.0,0.0,0.0,0.0,0.0,0.0,0.0,0.0,0.0,0.0,0.0,0.0,0.0,0.0,0.0,0.0,0.0,0.0,0.0,0.0,0.0,0.0,0.0,0.0,0.0,0.0,0.0,0.0,0.0,0.0,0.0,0.0,0.0,0.0,0.0,0.0,0.0,0.0,0.0,0.0,0.0,0.0,0.0,0.0,0.0,0.0,0.0,0.0,0.0,0.0,0.0,0.0,0.0,0.0,0.0,0.0,0.0,0.0,0.0,0.0,0.0,0.0,0.0,0.0,0.0,0.0,0.0,1.0541,1.0799,1.0806,1.0574,1.0191,0.9788,0.0,0.0,0.0,0.0,0.0,0.0,0.0,0.0,0.0,0.0,0.0,0.0,0.0,0.0,0.0,0.0,0.0,0.0,0.0,0.0,0.0,0.0,0.0,0.0,0.0,0.0,0.0,0.0,0.0,0.0,0.0,0.0,0.0,0.0,0.0,0.0,0.0,0.0,0.0,0.0,0.0,0.0,0.0,0.0,0.0,0.0,0.0,0.0,0.0,0.0,0.0,0.0,0.0,0.0,0.0,0.0,0.0,0.0,0.0,0.0,0.0,0.0,0.0,0.0,0.0,0.0,0.0,0.0,0.0,0.0,0.0,0.0,0.0,0.0,0.0,0.0,0.0,0.0,0.0,0.0,0.0,0.0,0.0,0.0,0.0,0.0,0.0,0.0,0.0,0.0,0.0,0.0,0.0,0.0,0.0,0.0,0.0,0.0,0.0,0.0,0.0,0.0,0.0,0.0,0.0,0.0,0.0,0.0,0.0,1.1151,1.1306,1.1301,1.1023,1.0526,1.0093,0.0,0.0,0.0,0.0,0.0,0.0,0.0,0.0,0.0,0.0,0.0,0.0,0.0,0.0,0.0,0.0,0.0,0.0,0.0,0.0,0.0,0.0,0.0,0.0,0.0,0.0,0.0,0.0,0.0,0.0,0.0,0.0,0.0,0.0,0.0,0.0,0.0,0.0,0.0,0.0,0.0,0.0,0.0,0.0,0.0,0.0,0.0,0.0,0.0,0.0,0.0,0.0,0.0,0.0,0.0,0.0,0.0,0.0,0.0,0.0,0.0,0.0,0.0,0.0,0.0,0.0,0.0,0.0,0.0,0.0,0.0,0.0,0.0,0.0,0.0,0.0,0.0,0.0,0.0,0.0,0.0,0.0,0.0,0.0,0.0,0.0,0.0,0.0,0.0,0.0,0.0,0.0,0.0,0.0,0.0,0.0,0.0,0.0,0.0,0.0,0.0,0.0,0.0,0.0,0.0,0.0,0.0,0.0,1.1151,1.1484,1.1694,1.1667,1.1362,1.0962,1.0555,0.0,0.0,0.0,0.0,0.0,0.0,0.0,0.0,0.0,0.0,0.0,0.0,0.0,0.0,0.0,0.0,0.0,0.0,0.0,0.0,0.0,0.0,0.0,0.0,0.0,0.0,0.0,0.0,0.0,0.0,0.0,0.0,0.0,0.0,0.0,0.0,0.0,0.0,0.0,0.0,0.0,0.0,0.0,0.0,0.0,0.0,0.0,0.0,0.0,0.0,0.0,0.0,0.0,0.0,0.0,0.0,0.0,0.0,0.0,0.0,0.0,0.0,0.0,0.0,0.0,0.0,0.0,0.0,0.0,0.0,0.0,0.0,0.0,0.0,0.0,0.0,0.0,0.0,0.0,0.0,0.0,0.0,0.0,0.0,0.0,0.0,0.0,0.0,0.0,0.0,0.0,0.0,0.0,0.0,0.0,0.0,0.0,0.0,0.0,0.0,0.0,0.0,0.0,0.0,0.0,0.0,0.0,0.0,1.1362,1.166,1.1975,1.1959,1.1694,1.1484,1.1063,0.0,0.0,0.0,0.0,0.0,0.0,0.0,0.0,0.0,0.0,0.0,0.0,0.0,0.0,0.0,0.0,0.0,0.0,0.0,0.0,0.0,0.0,0.0,0.0,0.0,0.0,0.0,0.0,0.0,0.0,0.0,0.0,0.0,0.0,0.0,0.0,0.0,0.0,0.0,0.0,0.0,0.0,0.0,0.0,0.0,0.0,0.0,0.0,0.0,0.0,0.0,0.0,0.0,0.0,0.0,0.0,0.0,0.0,0.0,0.0,0.0,0.0,0.0,0.0,0.0,0.0,0.0,0.0,0.0,0.0,0.0,0.0,0.0,0.0,0.0,0.0,0.0,0.0,0.0,0.0,0.0,0.0,0.0,0.0,0.0,0.0,0.0,0.0,0.0,0.0,0.0,0.0,0.0,0.0,0.0,0.0,0.0,0.0,0.0,0.0,0.0,0.0,0.0,0.0,0.0,0.0,0.0,0.0,1.1667,1.1996,1.2186,1.221,1.2149,1.1538,1.0955,0.0,0.0,0.0,0.0,0.0,0.0,0.0,0.0,0.0,0.0,0.0,0.0,0.0,0.0,0.0,0.0,0.0,0.0,0.0,0.0,0.0,0.0,0.0,0.0,0.0,0.0,0.0,0.0,0.0,0.0,0.0,0.0,0.0,0.0,0.0,0.0,0.0,0.0,0.0,0.0,0.0,0.0,0.0,0.0,0.0,0.0,0.0,0.0,1.067,0.0,0.0,0.0,0.0,0.0,0.0,0.0,0.0,0.0,0.0,0.0,0.0,0.0,0.0,0.0,0.0,0.0,0.0,0.0,0.0,0.0,0.0,0.0,0.0,0.0,0.0,0.0,0.0,0.0,0.0,0.0,0.0,0.0,0.0,0.0,0.0,0.0,0.0,0.0,0.0,0.0,0.0,0.0,0.0,0.0,0.0,0.0,0.0,0.0,0.0,0.0,0.0,0.0,0.0,0.0,0.0,0.0,0.0,0.0,1.1864,1.22,1.2311,1.2359,1.2271,1.1762,1.1199,0.0,0.0,0.0,0.0,0.0,0.0,0.0,0.0,0.0,0.0,0.0,0.0,0.0,0.0,0.0,0.0,0.0,0.0,0.0,0.0,0.0,0.0,0.0,0.0,0.0,0.0,0.0,0.0,0.0,0.0,0.0,0.0,0.0,0.0,0.0,0.0,0.0,0.0,0.0,0.0,0.0,0.0,0.0,0.0,0.0,0.0,0.0,0.0,0.0,0.0,0.0,0.0,0.0,0.0,0.0,0.0,0.0,0.0,0.0,0.0,0.0,0.0,0.0,0.0,0.0,0.0,0.0,0.0,0.0,0.0,0.0,0.0,0.0,0.0,0.0,0.0,0.0,0.0,0.0,0.0,0.0,0.0,0.0,0.0,0.0,0.0,0.0,0.0,0.0,0.0,0.0,0.0,0.0,0.0,0.0,0.0,0.0,0.0,0.0,0.0,0.0,0.0,0.0,0.0,0.0,0.0,0.0,1.1556,1.2013,1.2379,1.2488,1.2481,1.2359,1.2013,1.1529,1.0968,0.0,0.0,0.0,0.0,0.0,0.0,0.0,0.0,0.0,0.0,0.0,0.0,0.0,0.0,0.0,0.0,0.0,0.0,0.0,0.0,0.0,0.0,0.0,0.0,0.0,0.0,0.0,0.0,0.0,0.0,0.0,0.0,0.0,0.0,0.0,0.0,0.0,0.0,1.0575,1.0792,0.0,0.0,0.0,0.0,0.0,0.0,0.0,0.0,1.0704,0.0,0.0,0.0,0.0,0.0,0.0,0.0,0.0,0.0,0.0,0.0,0.0,0.0,0.0,0.0,0.0,0.0,0.0,0.0,0.0,0.0,0.0,0.0,0.0,0.0,0.0,0.0,0.0,0.0,0.0,0.0,0.0,0.0,0.0,0.0,0.0,0.0,0.0,0.0,0.0,0.0,0.0,0.0,0.0,0.0,0.0,0.0,0.0,0.0,0.0,0.0,0.0,0.0,0.0,0.0,0.0,1.1857,1.185,1.2162,1.2867,1.2745,1.2645,1.2644,1.2084,1.1606,1.1172,0.0,0.0,0.0,0.0,0.0,0.0,0.0,0.0,0.0,0.0,0.0,0.0,0.0,0.0,0.0,0.0,0.0,0.0,0.0,0.0,0.0,0.0,0.0,0.0,0.0,0.0,0.0,0.0,0.0,0.0,0.0,0.0,0.0,0.0,0.0,0.0,0.0,0.0,0.0,1.1097,1.1226,0.0,0.0,0.0,0.0,0.0,0.0,0.0,0.0,1.0732,0.0,0.0,0.0,0.0,0.0,0.0,0.0,0.0,0.0,0.0,0.0,0.0,0.0,0.0,0.0,0.0,0.0,0.0,0.0,0.0,0.0,0.0,0.0,0.0,0.0,0.0,0.0,0.0,0.0,0.0,0.0,0.0,0.0,0.0,0.0,0.0,0.0,0.0,0.0,0.0,0.0,0.0,0.0,0.0,0.0,0.0,0.0,0.0,0.0,0.0,0.0,0.0,0.0,0.0,0.0,1.1789,1.206,1.2433,1.2975,1.2807,1.2693,1.2679,1.2074,1.1545,0.0,0.0,0.0,0.0,0.0,0.0,0.0,0.0,0.0,0.0,0.0,0.0,0.0,0.0,0.0,0.0,0.0,0.0,0.0,0.0,0.0,0.0,0.0,0.0,0.0,0.0,0.0,0.0,0.0,0.0,0.0,0.0,0.0,0.0,0.0,0.0,0.0,0.0,0.0,0.0,1.1253,1.1341,1.1199,0.0,0.0,0.0,0.0,0.0,0.0,1.0806,1.0806,0.0,0.0,0.0,0.0,0.0,0.0,0.0,0.0,0.0,0.0,0.0,0.0,0.0,0.0,0.0,0.0,0.0,0.0,0.0,0.0,0.0,0.0,0.0,0.0,0.0,0.0,0.0,0.0,0.0,0.0,0.0,0.0,0.0,0.0,0.0,0.0,0.0,0.0,0.0,0.0,0.0,0.0,0.0,0.0,0.0,0.0,0.0,0.0,0.0,0.0,0.0,0.0,0.0,0.0,0.0,1.1701,1.2237,1.2678,1.3064,1.2868,1.2779,1.2766,1.2054,1.1504,0.0,0.0,0.0,0.0,0.0,0.0,0.0,0.0,0.0,0.0,0.0,0.0,0.0,0.0,0.0,0.0,0.0,0.0,0.0,0.0,0.0,0.0,0.0,0.0,0.0,0.0,0.0,0.0,0.0,0.0,0.0,0.0,0.0,0.0,0.0,0.0,0.0,0.0,0.0,0.0,0.0,1.1531,1.1409,1.1443,0.0,0.0,0.0,0.0,1.0955,1.1043,0.0,0.0,0.0,0.0,0.0,0.0,0.0,0.0,0.0,0.0,0.0,0.0,0.0,0.0,0.0,0.0,0.0,0.0,0.0,0.0,0.0,0.0,0.0,0.0,0.0,0.0,0.0,0.0,0.0,0.0,0.0,0.0,0.0,0.0,0.0,0.0,0.0,0.0,0.0,0.0,0.0,0.0,0.0,0.0,0.0,0.0,0.0,0.0,0.0,0.0,0.0,0.0,0.0,0.0,0.0,0.0,1.2023,1.2332,1.2779,1.3308,1.3118,1.2975,1.2969,1.2203,1.1599,0.0,0.0,0.0,0.0,0.0,0.0,0.0,0.0,0.0,0.0,0.0,0.0,0.0,0.0,0.0,0.0,0.0,0.0,0.0,0.0,0.0,0.0,0.0,0.0,0.0,0.0,0.0,0.0,0.0,0.0,0.0,0.0,0.0,0.0,0.0,0.0,0.0,0.0,0.0,0.0,0.0,1.1993,1.1463,1.1613,1.1728,0.0,0.0,1.1543,1.1651,1.1837,0.0,0.0,0.0,0.0,0.0,0.0,0.0,0.0,0.0,0.0,0.0,0.0,0.0,0.0,0.0,0.0,0.0,0.0,0.0,0.0,0.0,0.0,0.0,0.0,0.0,0.0,0.0,0.0,0.0,0.0,0.0,0.0,0.0,0.0,0.0,0.0,0.0,0.0,0.0,0.0,0.0,0.0,0.0,0.0,0.0,0.0,0.0,0.0,0.0,0.0,0.0,0.0,0.0,0.0,0.0,1.1463,1.2176,1.2644,1.3091,1.3505,1.3234,1.3084,1.3003,1.2149,1.1462,0.0,0.0,0.0,0.0,0.0,0.0,0.0,0.0,0.0,0.0,0.0,0.0,0.0,0.0,0.0,0.0,0.0,0.0,0.0,0.0,0.0,0.0,0.0,0.0,0.0,0.0,0.0,0.0,0.0,0.0,0.0,0.0,0.0,0.0,0.0,0.0,0.0,0.0,0.0,0.0,0.0,0.0,1.1911,1.2013,0.0,0.0,0.0,1.1891,1.1952,0.0,0.0,0.0,0.0,0.0,0.0,0.0,0.0,0.0,0.0,0.0,0.0,0.0,0.0,0.0,0.0,0.0,0.0,0.0,0.0,0.0,0.0,0.0,0.0,0.0,0.0,0.0,0.0,0.0,0.0,0.0,0.0,0.0,0.0,0.0,0.0,0.0,0.0,0.0,0.0,0.0,0.0,0.0,0.0,0.0,0.0,0.0,0.0,0.0,0.0,0.0,0.0,0.0,0.0,0.0,0.0,0.0,1.2284,1.2908,1.3376,1.3619,1.3383,1.3207,1.3043,1.222,0.0,0.0,0.0,0.0,0.0,0.0,0.0,0.0,0.0,0.0,0.0,0.0,0.0,0.0,0.0,0.0,0.0,0.0,0.0,0.0,0.0,0.0,0.0,0.0,0.0,0.0,0.0,0.9224,0.0,0.0,0.0,0.0,0.0,0.0,0.0,0.0,0.0,0.0,0.0,0.0,0.0,0.0,1.2104,1.2366,1.2494,1.2569,0.0,0.0,1.2424,1.2383,1.2406,1.2291,0.0,0.0,0.0,0.0,0.0,0.0,0.0,0.0,0.0,0.0,0.0,0.0,0.0,0.0,0.0,0.0,0.0,0.0,0.0,0.0,0.0,0.0,0.0,0.0,0.0,0.0,0.0,0.0,0.9609,0.9852,0.0,0.0,0.0,0.0,0.0,0.0,0.0,0.0,0.0,0.0,0.0,0.0,0.0,0.0,0.0,0.0,0.0,0.0,0.0,0.0,0.0,0.0,0.0,0.0,1.1687,1.2291,1.301,1.3526,1.3761,1.3539,1.3308,1.3193,1.2465,1.1791,0.0,0.0,0.0,0.0,0.0,0.0,0.0,0.0,0.0,0.0,0.0,0.0,0.0,0.0,0.0,0.0,0.0,0.0,0.0,0.0,0.0,0.0,0.0,0.0,0.0,0.0,0.0,0.0,0.0,0.0,0.0,0.0,0.0,0.0,0.0,0.0,0.0,0.0,0.0,0.0,0.0,1.2638,1.2659,1.3057,1.3322,0.0,1.3315,1.3261,1.3159,1.3336,1.3186,1.2234,0.0,0.0,0.0,0.0,0.0,0.0,0.0,0.0,0.0,0.0,0.0,0.0,0.0,0.0,0.0,0.0,0.0,0.0,0.0,0.0,0.0,0.0,0.0,0.0,0.0,0.9992,1.0127,0.0,1.0141,0.0,0.0,0.0,0.0,0.0,0.0,0.0,0.0,0.0,0.0,0.0,0.0,0.0,0.0,0.0,0.0,0.0,0.0,0.0,0.0,0.0,0.0,0.0,0.0,1.1823,1.242,1.3159,1.3682,1.396,1.3777,1.3518,1.3315,1.2773,1.2108,0.0,0.0,0.0,0.0,0.0,0.0,0.0,0.0,0.0,0.0,0.0,0.0,0.0,0.0,0.0,0.0,0.0,0.0,0.0,0.0,0.0,0.0,0.0,0.0,0.0,0.0,0.0,0.0,1.0283,1.0326,1.042,0.0,0.0,0.0,0.0,0.0,0.0,0.0,0.0,0.0,0.0,1.2821,1.3193,1.3389,0.0,0.0,1.36,1.3553,1.358,1.3526,1.3322,1.2867,1.2644,0.0,0.0,0.0,0.0,0.0,0.0,0.0,0.0,0.0,0.0,0.0,0.0,0.0,0.0,0.0,0.0,0.0,0.0,0.0,0.0,0.0,0.0,0.0,0.0,0.0,0.0,1.0376,1.0376,0.0,0.0,0.0,0.0,0.0,0.0,0.0,0.0,0.0,0.0,0.0,0.0,0.0,0.0,0.0,0.0,0.0,0.0,0.0,0.0,0.0,0.0,0.0,0.0,1.202,1.2569,1.3356,1.3885,1.418,1.3987,1.379,1.3532,1.3098,1.2461,0.0,0.0,0.0,0.0,0.0,0.0,0.0,0.0,0.0,0.0,0.0,0.0,0.0,0.0,0.0,0.0,0.0,0.0,0.0,0.0,0.0,0.0,0.0,0.0,0.0,0.0,0.0,0.0,1.0561,1.0622,1.0738,0.0,0.0,0.0,0.0,0.0,0.0,0.0,0.0,0.0,0.0,1.3186,1.3688,1.3804,1.3865,1.3923,1.3856,1.3851,1.3856,1.3777,1.3573,1.3288,0.0,0.0,0.0,0.0,0.0,0.0,0.0,0.0,0.0,0.0,0.0,0.0,0.0,0.0,0.0,0.0,0.0,0.0,0.0,0.0,0.0,0.0,0.0,0.0,0.0,0.0,0.0,1.0493,0.0,0.0,1.0329,0.0,0.0,0.0,0.0,0.0,0.0,0.0,0.0,0.0,0.0,0.0,0.0,0.0,0.0,0.0,0.0,0.0,0.0,0.0,0.0,0.0,0.0,1.2271,1.2686,1.36,1.4136,1.4285,1.4193,1.3987,1.3781,1.3397,1.2853,1.2098,0.0,0.0,0.0,0.0,0.0,0.0,0.0,0.0,0.0,0.0,0.0,0.0,0.0,0.0,0.0,0.0,0.0,0.0,0.0,0.0,0.0,0.0,0.0,0.0,0.0,0.0,1.0677,1.0717,1.0745,0.0,0.0,0.0,0.0,0.0,0.0,0.0,0.0,0.0,1.2928,1.3329,1.3715,1.4021,1.419,1.4278,1.4292,1.4285,1.4238,1.4146,1.4183,1.4082,0.0,0.0,0.0,0.0,0.0,0.0,0.0,0.0,0.0,0.0,0.0,0.0,0.0,0.0,0.0,0.0,0.0,0.0,0.0,0.0,0.0,0.0,0.0,0.0,0.0,0.0,0.0,1.1518,1.1253,0.0,0.0,0.0,0.0,0.0,0.0,0.0,0.0,0.0,0.0,0.0,1.2785,1.299,0.0,0.0,0.0,0.0,0.0,0.0,0.0,0.0,0.0,0.0,0.0,0.0,1.237,1.2888,1.371,1.4193,1.4292,1.4251,1.415,1.3994,1.3749,1.318,1.2244,0.0,0.0,0.0,0.0,0.0,0.0,0.0,0.0,0.0,0.0,0.0,0.0,0.0,0.0,0.0,0.0,0.0,0.0,0.0,0.0,0.0,0.0,0.0,0.0,0.0,1.0717,0.0,0.0,0.0,0.0,0.0,0.0,0.0,0.0,0.0,0.0,1.2366,1.2786,1.3336,1.3572,1.3869,1.4306,1.4407,1.4475,0.0,0.0,0.0,0.0,0.0,0.0,0.0,0.0,0.0,0.0,0.0,0.0,0.0,1.3919,1.3632,1.2684,1.242,1.2352,1.2359,0.0,0.0,0.0,0.0,0.0,0.0,0.0,0.0,0.0,0.0,0.0,0.0,0.0,0.0,1.2182,1.2006,1.1915,0.0,0.0,0.0,0.0,0.0,0.0,0.0,0.0,1.3247,1.3567,1.3587,1.3878,1.3795,1.3519,1.3416,1.2882,0.0,0.0,0.0,0.0,0.0,0.0,0.0,0.0,1.2601,1.3119,1.384,1.4204,1.4292,1.4299,1.4251,1.4193,1.3899,1.3376,1.2588,1.1982,1.1443,0.0,0.0,0.0,0.0,0.0,0.0,0.0,0.0,0.0,0.0,0.0,0.0,0.0,0.0,0.0,0.0,0.0,0.0,0.0,0.0,0.0,0.0,0.0,1.0873,0.0,0.0,0.0,0.0,0.0,0.0,0.0,0.0,0.0,1.2705,1.2976,1.3403,1.3903,1.4052,1.4255,1.4692,0.0,0.0,0.0,0.0,0.0,0.0,0.0,1.4699,1.474,1.4631,1.4536,1.4529,1.4652,1.4726,1.4685,0.0,0.0,1.3478,1.3193,1.3139,1.3193,1.3159,1.3139,1.3193,1.32,1.32,0.0,0.0,0.0,0.0,1.3043,0.0,0.0,0.0,1.2774,1.2767,0.0,1.2617,0.0,0.0,0.0,0.0,1.1901,1.2759,0.0,0.0,1.4163,1.4559,1.4701,1.4721,1.4848,1.503,1.4821,1.4397,1.3788,1.2861,1.2182,0.0,0.0,0.0,0.0,0.0,1.2936,1.3424,1.4014,1.4312,1.4312,1.4312,1.4306,1.4285,1.3835,1.3444,1.3043,1.2691,1.2257,1.1681,1.1404,0.0,0.0,0.0,0.0,0.0,0.0,0.0,0.0,0.0,0.0,0.0,0.0,0.0,0.0,0.0,0.0,0.0,0.0,0.0,0.0,1.1084,0.0,0.0,0.0,0.0,0.0,0.0,0.0,0.0,0.0,1.3926,1.3539,1.3838,1.4258,1.464,0.0,0.0,0.0,0.0,1.5038,1.5187,1.5201,1.5208,1.5215,1.5323,1.5357,1.5221,0.0,0.0,1.5038,1.5153,1.5147,1.5018,1.5106,1.5106,1.4755,1.4475,1.434,1.4448,1.4353,1.436,1.4468,1.4394,1.4428,1.4808,0.0,0.0,0.0,0.0,1.3846,1.3973,1.4319,1.4211,1.3987,1.3682,1.3484,0.0,0.0,0.0,0.0,0.0,0.0,1.3648,1.4197,1.4484,1.4883,1.533,1.5486,1.556,1.5643,1.5452,1.5134,1.4787,1.4241,1.3362,1.2182,0.0,0.0,0.0,0.0,1.3539,1.3885,1.4367,1.4518,1.4455,1.4448,1.4401,1.4306,1.4075,1.3831,1.3593,1.3302,1.2915,1.2433,1.2128,0.0,0.0,0.0,0.0,0.0,0.0,0.0,0.0,0.0,0.0,0.0,0.0,0.0,0.0,0.0,0.0,0.0,0.0,0.0,1.124,1.1301,1.1533,0.0,0.0,0.0,0.0,0.0,0.0,0.0,0.0,0.0,1.4808,1.476,1.4847,0.0,0.0,1.5126,1.5316,1.5309,1.5377,1.567,1.5711,0.0,1.586,1.5683,1.5594,1.5704,1.5615,1.5499,1.5411,1.5479,1.5445,1.5452,1.5479,1.5479,1.5343,1.514,1.4923,1.4901,1.4801,1.4753,1.464,1.4626,1.4679,1.6029,1.5235,1.4855,1.4746,1.4821,1.4733,1.4869,1.514,1.5045,1.4855,1.459,1.4441,1.4061,1.347,1.3247,0.0,0.0,0.0,1.4272,1.4869,1.4978,1.5303,1.5811,1.5967,1.6112,1.6153,1.5913,1.5716,1.5533,1.5181,1.4448,1.3376,0.0,1.2997,1.3044,1.3546,1.3953,1.4245,1.4525,1.4647,1.4604,1.4543,1.4441,1.4306,1.4211,1.4089,1.3939,1.3763,1.3485,1.3064,1.2745,1.2311,0.0,0.0,0.0,0.0,0.0,0.0,0.0,0.0,0.0,0.0,0.0,1.1525,1.1118,0.0,0.0,0.0,1.1443,1.1687,1.1986,1.2169,0.0,0.0,0.0,0.0,0.0,0.0,0.0,1.4618,1.5072,1.5391,1.5649,1.5622,1.5574,1.5547,1.554,1.5594,1.5744,0.0,1.5845,1.6083,1.6117,1.6151,1.6239,1.6103,1.6022,1.6103,1.6049,1.5945,1.5938,1.5938,1.5938,1.5988,1.5938,1.5925,1.5864,1.575,1.5533,1.5289,1.5187,1.5113,1.4978,1.4957,1.4916,1.706,1.6689,1.5999,1.5688,1.5648,1.5648,1.5566,1.5499,1.5499,1.5493,1.5472,1.5323,1.5086,1.4767,1.4353,0.0,1.4401,1.4665,1.5031,1.5472,1.556,1.5839,1.6137,1.6279,1.6422,1.6551,1.6266,1.6123,1.6076,1.5669,1.5316,1.5011,1.4288,1.3916,1.3876,1.4089,1.4312,1.4577,1.4694,1.4755,1.4728,1.4604,1.4448,1.4319,1.4306,1.4231,1.4146,1.4132,1.396,1.3626,1.3247,1.2846,1.2359,0.0,0.0,0.0,0.0,0.0,0.0,0.0,0.0,0.0,0.0,0.0,0.0,0.0,0.0,1.2173,1.24,0.0,1.3043,1.341,0.0,0.0,0.0,1.4177,1.4268,1.4835,1.5262,1.5269,0.0,0.0,1.6151,1.6368,1.6435,1.6171,1.6123,1.6164,1.6307,1.6313,1.6381,1.6497,1.6486,1.6537,1.6551,1.6524,1.649,1.6483,1.6517,1.649,1.6483,1.649,1.6459,1.6483,1.6517,1.6469,1.6347,1.6293,1.6198,1.5715,1.556,1.5438,1.5404,1.5309,1.5221,1.7379,1.7236,1.6944,1.6564,1.6107,1.6151,1.6191,1.6259,1.6259,1.6198,1.6083,1.5934,1.5642,1.5235,1.5018,1.4997,1.5147,1.5221,1.5493,1.5913,1.5961,1.6191,1.6533,1.6581,1.6675,1.6856,1.668,1.6425,1.6252,1.6035,1.5771,1.5438,1.5249,1.4938,1.4512,1.4903,1.5126,1.5194,1.5303,1.5269,1.5079,1.4706,1.4496,1.4462,1.4353,1.4285,1.4245,1.4245,1.4163,1.3966,1.3648,1.3268,1.286,1.2268,0.0,0.0,0.0,0.0,0.0,0.0,0.0,0.0,0.0,1.2671,1.1807,0.0,1.299,0.0,1.3017,1.3308,1.3558,1.3831,0.0,0.0,1.4875,1.5146,1.5554,1.5757,1.5913,1.6029,1.6293,1.6452,1.6527,1.6601,1.6621,1.6547,1.649,1.6429,1.6469,1.6469,1.6524,1.6608,1.6642,1.6689,1.6829,1.6768,1.6601,1.6537,1.6524,1.6517,1.6524,1.6517,1.6517,1.6517,1.6517,1.6503,1.6476,1.6469,1.6395,1.6185,1.5934,1.571,1.5608,1.5506,1.5479,1.7758,1.7602,1.746,1.7168,1.6795,1.6666,1.6612,1.6574,1.6574,1.6486,1.6402,1.6313,1.6069,1.571,1.5622,1.5628,1.5703,1.571,1.5913,1.6273,1.6347,1.6459,1.6696,1.6822,1.6897,1.6978,1.6822,1.6615,1.6452,1.6354,1.6191,1.5986,1.5967,1.5771,1.5404,1.5438,1.5513,1.5513,1.5546,1.5527,1.5289,1.497,1.4746,1.4611,1.4475,1.4367,1.4299,1.4299,1.4231,1.4075,1.3808,1.3553,1.3214,1.2758,1.2356,0.0,0.0,0.0,0.0,0.0,0.0,0.0,0.0,0.0,0.0,0.0,1.3731,1.3654,1.4023,1.434,1.4699,1.4936,1.5235,1.5642,1.5744,1.5886,1.6157,1.63,1.6408,1.6497,1.6632,1.6754,1.6842,1.6804,1.6849,1.6849,1.6781,1.67,1.6646,1.668,1.6761,1.6842,1.6856,1.6876,1.6971,1.691,1.6822,1.6748,1.6727,1.6727,1.6727,1.6727,1.6727,1.6727,1.6727,1.67,1.6588,1.6574,1.6558,1.6354,1.6232,1.6056,1.5791,1.5634,1.5587,1.8119,1.788,1.7738,1.7589,1.7372,1.7154,1.6951,1.675,1.6736,1.6655,1.6578,1.6558,1.6408,1.6164,1.6151,1.6137,1.6137,1.6137,1.6286,1.65,1.6635,1.6709,1.673,1.6917,1.6978,1.6971,1.6842,1.6716,1.6696,1.656,1.6537,1.6466,1.6395,1.6341,1.632,1.5898,1.5702,1.5702,1.5688,1.56,1.5499,1.533,1.5099,1.4762,1.4631,1.4475,1.4333,1.4326,1.4265,1.4136,1.4,1.3761,1.3526,1.3234,1.2996,0.0,1.2774,0.0,0.0,0.0,0.0,0.0,0.0,0.0,0.0,1.417,1.4472,1.4665,1.5092,1.5506,1.5928,1.6171,1.6347,1.6368,1.6476,1.651,1.6422,1.6574,1.6723,1.673,1.691,1.7005,1.7005,1.7012,1.7005,1.7005,1.6971,1.691,1.677,1.6883,1.6958,1.6978,1.6978,1.6965,1.6978,1.6978,1.6971,1.6971,1.6958,1.6978,1.6965,1.6965,1.6971,1.6971,1.6958,1.6924,1.675,1.673,1.6686,1.6391,1.6412,1.6395,1.6029,1.5845,1.5681,1.846,1.8036,1.788,1.7738,1.7534,1.7358,1.7249,1.71,1.6985,1.6924,1.6883,1.6709,1.6628,1.656,1.6446,1.6435,1.6435,1.6435,1.6537,1.6655,1.6682,1.6763,1.6937,1.6965,1.6978,1.6978,1.6951,1.6876,1.6696,1.6669,1.6594,1.6524,1.6446,1.6483,1.6476,0.0,0.0,0.0,1.6239,1.611,1.5954,1.5689,1.5404,1.5106,1.4841,0.0,1.4482,1.4475,1.4455,1.4428,1.4401,0.0,0.0,0.0,0.0,0.0,0.0,0.0,0.0,0.0,0.0,0.0,1.4692,1.4529,1.4421,1.5187,1.5676,1.567,1.6008,1.6252,1.6232,1.6381,1.6479,1.6601,1.6642,1.6689,1.6836,1.6904,1.6937,1.6937,1.7066,1.7148,1.7154,1.7148,1.7154,1.7141,1.7053,1.6971,1.6944,1.6965,1.6978,1.6978,1.6978,1.6978,1.6978,1.6978,1.6978,1.6978,1.6978,1.6978,1.6978,1.6978,1.6978,1.6978,1.6978,1.6971,1.6937,1.6937,1.687,1.6642,1.6635,1.656,1.6293,1.6205,1.6185,1.8684,1.8403,1.8179,1.805,0.0,1.7738,1.7595,1.75,1.7209,1.7046,1.6978,1.6897,1.6822,1.6696,1.6615,1.6581,1.6581,1.6581,1.6662,1.6863,1.6863,1.6904,1.6978,1.6978,1.6978,1.6978,1.6978,1.6937,1.687,1.6863,1.6822,1.6748,1.6673,1.6581,1.6581,1.6581,1.6547,1.6524,1.6449,1.6374,1.6293,1.6083,1.5825,1.552,1.5228,0.0,0.0,0.0,0.0,0.0,0.0,0.0,0.0,0.0,0.0,1.4285,1.4353,1.4455,1.4604,1.4753,1.5031,1.5472,1.5649,1.5608,1.5309,1.5845,1.6225,1.6293,1.6452,1.6639,1.6646,1.6707,1.6781,1.6856,1.6863,1.6897,1.6965,1.6978,1.7012,1.708,1.7148,1.7222,1.7297,1.7304,1.727,1.7209,1.7202,1.7161,1.7093,1.7026,1.6978,1.6978,1.6978,1.6978,1.6978,1.6978,1.6978,1.6978,1.6978,1.6978,1.6978,1.6978,1.6978,1.6978,1.6978,1.6978,1.6978,1.6978,1.6931,1.675,1.6809,1.6788,1.652,1.6469,1.6388,1.8868,1.88,1.847,1.8285,1.8301,1.805,1.7914,1.7888,1.7385,0.0,0.0,1.6992,1.691,1.6743,1.6736,1.6736,1.6736,1.6743,1.6863,1.6978,1.6978,1.6978,1.6978,1.6978,1.6978,1.6978,1.6978,1.6978,1.6978,1.6978,1.6978,1.6965,1.6849,1.6736,1.6788,1.6736,1.6675,1.6612,1.6605,1.6592,1.6506,1.6449,1.6246,1.599,1.5669,1.5404,1.5187,1.4977,1.4796,1.4674,1.4713,1.4767,1.4843,1.4877,1.5045,1.5282,1.5445,1.554,1.5574,1.5798,1.6003,1.6008,1.6347,1.6463,1.6218,1.6341,1.653,1.6723,1.6757,1.6817,1.7024,1.7032,1.7046,1.7026,1.7039,1.706,1.706,1.706,1.7114,1.7209,1.7263,1.7317,1.7439,1.746,1.7419,1.7317,1.7351,1.7385,1.7249,1.7148,1.7087,1.7087,1.71,1.7066,1.7026,1.7026,1.7012,1.6985,1.6978,1.6978,1.6978,1.6978,1.6978,1.6978,1.6978,1.6978,1.6978,1.6978,1.6937,1.6763,1.689,1.6944,1.6815,1.6693,1.6571,1.8993,1.8807,1.8572,1.843,1.8314,1.8274,1.8104,1.7881,1.7385,1.7182,1.7154,1.7032,1.6965,1.6951,1.6951,1.6951,1.6951,1.6944,1.6958,1.6978,1.6978,1.6978,1.6978,1.6978,1.6978,1.6978,1.6978,1.6978,1.6978,1.6978,1.6978,1.6978,1.6958,1.6944,1.6951,1.6951,1.6937,1.6917,1.6917,1.6849,1.6669,1.6648,1.6493,1.6259,1.6076,1.5906,1.5786,1.5588,1.5458,1.5431,1.5431,1.5445,1.5465,1.5622,1.5765,1.5813,1.5949,1.6042,1.6171,1.6225,1.6354,1.6547,1.6628,1.6648,1.6615,1.6795,1.6904,1.6951,1.7053,1.7087,1.7012,1.7202,1.729,1.7188,1.7277,1.7358,1.7338,1.7344,1.7351,1.7385,1.7453,1.7521,1.7554,1.7561,1.7554,1.7514,1.7433,1.7419,1.7405,1.7372,1.7358,1.7358,1.7358,1.7304,1.7195,1.7161,1.7121,1.6998,1.6998,1.7005,1.6998,1.6998,1.6992,1.6985,1.6978,1.6978,1.6978,1.6978,1.6965,1.6931,1.6965,1.6965,1.6931,1.6904,1.6849,1.925,1.9101,1.8877,1.8742,1.8674,1.8504,1.8267,1.7968,1.7684,1.7412,1.7195,1.7121,1.7053,1.6985,1.6978,1.6978,1.6978,1.6978,1.6978,1.6985,1.706,1.7093,1.7093,1.7093,1.7141,1.7209,1.7053,1.7019,1.7087,1.7019,1.6978,1.6978,1.6978,1.6978,1.6978,1.6978,1.6978,1.6978,1.6978,1.6944,1.6876,1.6876,1.6775,1.6551,1.6402,1.6252,1.6103,1.5961,1.5879,1.5879,1.5879,1.592,1.5952,1.6062,1.6137,1.6212,1.6279,1.6388,1.6486,1.6625,1.6727,1.6863,1.6876,1.691,1.6932,1.7053,1.71,1.71,1.7229,1.729,1.7229,1.7338,1.7392,1.7324,1.7378,1.7419,1.7419,1.7419,1.7399,1.748,1.7548,1.7622,1.7751,1.7765,1.7724,1.7609,1.7521,1.7514,1.7643,1.7656,1.7595,1.746,1.7419,1.7392,1.7331,1.7317,1.7283,1.7222,1.7216,1.7182,1.7127,1.7093,1.706,1.6998,1.6978,1.6978,1.6978,1.6978,1.6978,1.6978,1.6978,1.6978,1.6978,1.6978,1.6924,1.9434,1.9406,1.9115,1.8972,1.8918,1.8687,1.8416,1.8138,1.8016,1.7717,1.7324,1.7256,1.7182,1.7087,1.708,1.708,1.708,1.708,1.708,1.7093,1.7195,1.7243,1.7243,1.7243,1.7304,1.7385,1.7188,1.7121,1.7175,1.708,1.7012,1.6985,1.6978,1.6978,1.6978,1.6978,1.6978,1.6978,1.6978,1.6978,1.6978,1.6978,1.6924,1.6757,1.6686,1.6578,1.6463,1.6313,1.6232,1.6232,1.6198,1.6252,1.6344,1.6408,1.6476,1.6605,1.6625,1.6673,1.6795,1.6917,1.6978,1.6978,1.6978,1.7039,1.7175,1.7222,1.7243,1.7263,1.7378,1.746,1.7426,1.7494,1.7507,1.748,1.7507,1.7534,1.7521,1.7521,1.7582,1.7663,1.7663,1.7751,1.7867,1.7936,1.7874,1.7724,1.7669,1.7799,1.7894,1.797,1.7806,1.765,1.7548,1.7514,1.7433,1.7419,1.7399,1.7433,1.7372,1.7311,1.7236,1.7202,1.7134,1.7039,1.6998,1.6985,1.6978,1.6978,1.6978,1.6978,1.6978,1.6978,1.6978,1.6978,1.6951,1.9434,1.9386,1.9122,1.8911,1.8796,1.8755,1.8572,1.8314,1.828,1.8023,1.7568,1.746,1.7399,1.7378,1.7318,1.7365,1.7365,1.7378,1.7372,1.7372,1.7392,1.7399,1.7399,1.7399,1.7405,1.7426,1.7385,1.7304,1.7222,1.7188,1.7107,1.6992,1.6978,1.6985,1.6985,1.6985,1.6978,1.6978,1.6978,1.6978,1.6978,1.6978,1.6971,1.6958,1.6944,1.6931,1.689,1.6768,1.6635,1.6621,1.65,1.65,1.6635,1.6655,1.6723,1.6917,1.6931,1.6944,1.6958,1.6971,1.6985,1.6978,1.6992,1.706,1.7195,1.7324,1.7399,1.7433,1.7487,1.7568,1.746,1.765,1.7745,1.7643,1.7724,1.7819,1.7854,1.7826,1.788,1.8036,1.7901,1.7894,1.8009,1.7955,1.7929,1.788,1.7941,1.8016,1.8063,1.807,1.807,1.7996,1.7914,1.7765,1.7663,1.7575,1.7534,1.7467,1.7317,1.7311,1.7324,1.7202,1.7026,1.7127,1.7119,1.7005,1.6992,1.6978,1.6978,1.6978,1.6978,1.6978,1.6978,1.6978,1.6958,1.9644,1.9549,1.9339,1.9162,1.9013,1.8837,1.864,1.8393,1.8386,1.8237,1.8001,1.7975,1.7758,1.7426,1.7419,1.7419,1.7419,1.7419,1.7419,1.7379,1.746,1.75,1.75,1.75,1.7595,1.7656,1.7507,1.7385,1.7446,1.7372,1.7297,1.7249,1.7243,1.7195,1.7114,1.7107,1.7066,1.6985,1.6978,1.6978,1.6978,1.6978,1.6978,1.6978,1.6978,1.6978,1.6971,1.6917,1.6883,1.6883,1.6829,1.6822,1.6883,1.6883,1.691,1.6971,1.6978,1.6978,1.6985,1.706,1.7107,1.7107,1.7188,1.7304,1.7446,1.7467,1.7589,1.7677,1.7738,1.7745,1.7697,1.7792,1.7895,1.7792,1.7826,1.7915,1.7915,1.7915,1.7949,1.7997,1.7956,1.7921,1.8043,1.8036,1.8043,1.8091,1.8131,1.8131,1.8206,1.8226,1.8226,1.8206,1.8097,1.7948,1.7812,1.7779,1.7738,1.769,1.7636,1.7602,1.7419,1.7385,1.7358,1.7236,1.7154,1.7114,1.7114,1.7026,1.6978,1.6978,1.6978,1.6978,1.6978,1.6978,1.6978,1.9875,1.9698,1.9515,1.9318,1.9128,1.8918,1.8708,1.8488,1.8474,1.8393,1.8321,1.8321,1.8084,1.7704,1.7623,1.7582,1.7541,1.7541,1.7541,1.7555,1.7656,1.7669,1.771,1.7717,1.7826,1.7874,1.7711,1.7623,1.7582,1.744,1.7419,1.7419,1.7419,1.7365,1.7263,1.7256,1.7202,1.7107,1.7066,1.7039,1.7039,1.6998,1.6978,1.6978,1.6978,1.6978,1.6978,1.6978,1.6978,1.6978,1.6978,1.6978,1.6978,1.6978,1.6978,1.6985,1.7019,1.7039,1.7092,1.7175,1.7236,1.7209,1.7338,1.7467,1.7514,1.7568,1.7711,1.7888,1.7915,1.7908,1.7915,1.7915,1.7915,1.7915,1.7915,1.7915,1.7915,1.7915,1.7936,1.7914,1.8004,1.7982,1.8111,1.8158,1.8192,1.8267,1.826,1.824,1.8348,1.8319,1.8375,1.8369,1.8247,1.8104,1.7962,1.7874,1.7929,1.7902,1.7806,1.7697,1.7541,1.7616,1.7554,1.7385,1.7304,1.7222,1.7175,1.7087,1.7005,1.6985,1.6978,1.6978,1.6978,1.6978,1.6978,1.9868,1.982,1.9549,1.9278,1.9,1.8986,1.881,1.8508,1.8488,1.84,1.8348,1.8335,1.8308,1.8247,1.8104,1.7982,1.7908,1.7902,1.7902,1.7902,1.786,1.7935,1.8063,1.807,1.8077,1.8077,1.803,1.7887,1.7609,1.7453,1.7419,1.7433,1.7446,1.7426,1.7412,1.7412,1.7405,1.7358,1.7249,1.7182,1.7168,1.706,1.6998,1.7005,1.6978,1.6978,1.6978,1.6978,1.6978,1.6978,1.6992,1.6985,1.6992,1.7044,1.6998,1.7005,1.7114,1.7182,1.7202,1.7324,1.7358,1.7256,1.7372,1.7439,1.7446,1.7548,1.7724,1.7902,1.7915,1.7915,1.7936,1.7929,1.7929,1.7936,1.7922,1.7922,1.7929,1.7929,1.799,1.8023,1.8063,1.8131,1.828,1.8314,1.8321,1.8369,1.843,1.8504,1.8511,1.8525,1.8525,1.8498,1.8403,1.8253,1.8111,1.8023,1.7983,1.7963,1.7887,1.7669,1.7697,1.767,1.7609,1.7487,1.7412,1.7372,1.7243,1.7148,1.708,1.7032,1.6985,1.6978,1.6978,1.6978,1.6978,2.0044,1.9854,1.9657,1.9461,1.9264,1.9074,1.8925,1.8823,1.8715,1.8654,1.8606,1.8606,1.8545,1.8457,1.8403,1.8294,1.8165,1.8158,1.8158,1.8152,1.8158,1.8186,1.8226,1.8233,1.824,1.8226,1.8138,1.7989,1.7806,1.7724,1.7704,1.7704,1.7704,1.7663,1.7527,1.7514,1.7467,1.7426,1.7365,1.7338,1.7338,1.7283,1.7263,1.7249,1.7073,1.6978,1.6978,1.6978,1.7026,1.7114,1.7114,1.7161,1.7249,1.7263,1.7263,1.7263,1.7311,1.7338,1.7358,1.7426,1.7494,1.7507,1.7623,1.769,1.7711,1.7751,1.7806,1.7908,1.7915,1.7949,1.7968,1.7976,1.7901,1.7975,1.7976,1.797,1.7962,1.7983,1.7942,1.7962,1.8097,1.8267,1.8328,1.8396,1.8491,1.8579,1.8565,1.8586,1.866,1.8674,1.8667,1.8654,1.8552,1.8437,1.8389,1.8253,1.8152,1.8118,1.8057,1.7921,1.7853,1.7868,1.7758,1.7595,1.7527,1.746,1.7385,1.7188,1.7127,1.7066,1.7019,1.7012,1.6978,1.6992,1.6985,2.018,1.9942,1.9793,1.9644,1.9481,1.9237,1.9074,1.8986,1.8884,1.8868,1.8827,1.882,1.8701,1.862,1.8606,1.8559,1.845,1.8369,1.8314,1.8321,1.8321,1.8342,1.8382,1.8332,1.8389,1.8369,1.824,1.8111,1.8016,1.7962,1.799,1.7935,1.7935,1.7887,1.7806,1.7737,1.7751,1.7642,1.7575,1.7514,1.7541,1.7467,1.7419,1.7392,1.7222,1.71,1.7053,1.7093,1.7134,1.7188,1.7236,1.7317,1.7405,1.7419,1.7419,1.7419,1.7467,1.7494,1.746,1.7636,1.7642,1.7602,1.7772,1.7853,1.7861,1.7888,1.7915,1.7922,1.7921,1.7989,1.805,1.8043,1.8057,1.8138,1.807,1.805,1.8138,1.8077,1.805,1.8124,1.8274,1.8396,1.8464,1.8545,1.8667,1.8875,1.8708,1.8674,1.8796,1.8847,1.882,1.8813,1.8674,1.862,1.8586,1.8498,1.8335,1.828,1.8233,1.8104,1.8002,1.801,1.788,1.7765,1.7629,1.7623,1.7487,1.7277,1.7175,1.7121,1.7093,1.7093,1.7053,1.7012,1.6998,2.0248,2.0092,1.9936,1.9793,1.9644,1.9468,1.9257,1.9047,1.9,1.8911,1.8861,1.8834,1.8827,1.8807,1.8793,1.88,1.8738,1.8477,1.8369,1.8362,1.8362,1.8423,1.8525,1.8531,1.8525,1.8447,1.8382,1.8314,1.8274,1.8152,1.8091,1.8091,1.8091,1.8084,1.8084,1.8077,1.8145,1.8145,1.7818,1.7751,1.7812,1.7629,1.7507,1.7487,1.7467,1.7392,1.7229,1.7331,1.7338,1.7256,1.7351,1.7365,1.7453,1.746,1.7439,1.748,1.7521,1.7588,1.7609,1.7772,1.7785,1.7717,1.7792,1.7812,1.7745,1.7799,1.7915,1.7936,1.7989,1.8091,1.8124,1.8226,1.8301,1.8265,1.8287,1.8274,1.8308,1.8314,1.8362,1.8386,1.8447,1.8593,1.8701,1.8749,1.881,1.8871,1.8823,1.8776,1.8877,1.8881,1.8827,1.882,1.8735,1.8708,1.8786,1.8793,1.8565,1.8423,1.8362,1.8274,1.8172,1.8104,1.7996,1.7887,1.7751,1.7684,1.7548,1.7412,1.7351,1.7297,1.7249,1.7168,1.7121,1.7073,1.7005,2.0327,2.0248,2.0092,1.9942,1.978,1.9535,1.9373,1.9284,1.9183,1.9054,1.8938,1.8918,1.8864,1.8834,1.882,1.882,1.8807,1.866,1.8626,1.862,1.862,1.864,1.8681,1.8694,1.8633,1.8481,1.8491,1.8416,1.8335,1.8274,1.8247,1.8247,1.8247,1.8247,1.8247,1.8247,1.828,1.8294,1.8129,1.8138,1.8172,1.8084,1.8036,1.8043,1.8043,1.7921,1.7725,1.7507,1.7399,1.744,1.75,1.7623,1.7704,1.7779,1.7724,1.7731,1.7765,1.7792,1.7799,1.7888,1.7902,1.7812,1.7895,1.7902,1.7806,1.7833,1.7922,1.7936,1.8002,1.8124,1.8247,1.8375,1.8407,1.8464,1.8325,1.8375,1.8386,1.8332,1.8292,1.8346,1.8565,1.866,1.8667,1.8749,1.8877,1.8909,1.8796,1.8854,1.8875,1.8868,1.882,1.882,1.882,1.882,1.882,1.882,1.8674,1.8565,1.8511,1.843,1.8335,1.8206,1.8104,1.7968,1.7833,1.7745,1.7602,1.7527,1.7514,1.7412,1.7317,1.7249,1.7188,1.7141,1.7087,2.0428,2.0397,2.0248,2.0132,2.001,1.9725,1.9563,1.9495,1.9352,1.9176,1.902,1.8986,1.8911,1.8841,1.882,1.882,1.8827,1.8816,1.885,1.8909,1.8909,1.8909,1.8857,1.8905,1.8884,1.8789,1.8728,1.8654,1.8565,1.8457,1.8346,1.8339,1.8339,1.8396,1.8409,1.8457,1.8484,1.8477,1.8423,1.8396,1.8389,1.8342,1.8321,1.8314,1.8314,1.8192,1.801,1.7765,1.7609,1.7609,1.7642,1.7772,1.7908,1.7908,1.7915,1.7915,1.7915,1.7915,1.7915,1.7915,1.7915,1.7915,1.7915,1.7915,1.7929,1.7956,1.7948,1.8024,1.8138,1.8294,1.8396,1.8531,1.8613,1.8613,1.8545,1.8525,1.8586,1.8538,1.8538,1.8599,1.8694,1.8721,1.8769,1.8762,1.8905,1.8843,1.8854,1.8854,1.881,1.8854,1.8834,1.882,1.882,1.882,1.882,1.882,1.882,1.8766,1.8667,1.8572,1.8477,1.8314,1.8179,1.7989,1.784,1.7819,1.7745,1.7704,1.7643,1.7521,1.7439,1.7426,1.7405,1.7283,1.7222,2.0539,2.0455,2.039,2.0315,2.0261,1.9976,1.9773,1.9718,1.9508,1.9291,1.9081,1.9054,1.8945,1.881,1.8875,1.8881,1.8803,1.8938,1.9,1.9006,1.902,1.9027,1.902,1.9101,1.9128,1.9122,1.9033,1.8986,1.8938,1.8728,1.8515,1.8549,1.8562,1.8521,1.8633,1.8721,1.8834,1.8735,1.8633,1.8572,1.8488,1.843,1.8369,1.8369,1.8369,1.8301,1.8158,1.8057,1.7921,1.7669,1.7785,1.7902,1.7915,1.7915,1.7915,1.7915,1.7915,1.7936,1.7929,1.7956,1.797,1.7935,1.799,1.7942,1.7948,1.8043,1.8104,1.8118,1.8335,1.8447,1.8538,1.8654,1.8793,1.8827,1.8755,1.8769,1.8782,1.8789,1.883,1.8918,1.8884,1.8837,1.8959,1.8891,1.8918,1.8891,1.885,1.8871,1.8915,1.8881,1.8834,1.882,1.882,1.882,1.882,1.882,1.882,1.8807,1.8786,1.8674,1.8586,1.843,1.8233,1.8043,1.7956,1.7936,1.7908,1.7812,1.7785,1.7786,1.769,1.767,1.7514,1.7426,1.7344,2.0539,2.0462,2.0327,2.0266,2.0288,2.0003,1.9854,1.98,1.9664,1.9474,1.9332,1.9318,1.9162,1.8952,1.9033,1.9033,1.8986,1.9081,1.9149,1.9169,1.9271,1.9237,1.9169,1.9183,1.9217,1.9217,1.9183,1.9149,1.9142,1.904,1.9,1.9027,1.8986,1.9006,1.904,1.9054,1.9027,1.8945,1.8898,1.881,1.8708,1.8667,1.8647,1.8647,1.8633,1.8559,1.8409,1.8199,1.8009,1.7833,1.7833,1.7915,1.7915,1.7915,1.7915,1.7922,1.7929,1.7914,1.8002,1.803,1.8077,1.8186,1.8165,1.8199,1.8199,1.8233,1.826,1.8287,1.8373,1.8481,1.8559,1.8681,1.8796,1.8911,1.8938,1.8972,1.904,1.9088,1.9108,1.9142,1.9189,1.9149,1.9074,1.9108,1.9108,1.8932,1.8956,1.8898,1.8884,1.885,1.8854,1.8827,1.882,1.882,1.882,1.882,1.882,1.882,1.8807,1.88,1.866,1.8559,1.8342,1.8118,1.803,1.7989,1.7962,1.7928,1.7976,1.7915,1.7779,1.7636,1.7568,1.7507,1.7453,2.0539,2.0469,2.0388,2.0354,2.0383,2.0098,1.9969,1.9929,1.9807,1.9576,1.9454,1.9434,1.9305,1.9101,1.9162,1.9162,1.9108,1.923,1.9291,1.9339,1.9515,1.9563,1.9495,1.944,1.9427,1.9468,1.9352,1.9305,1.9284,1.9237,1.9203,1.9183,1.9203,1.9203,1.9183,1.9271,1.9223,1.9122,1.9128,1.9081,1.8877,1.8857,1.8857,1.8837,1.8861,1.8687,1.8518,1.8247,1.8023,1.7956,1.7915,1.7915,1.7915,1.7915,1.7915,1.7922,1.7921,1.8058,1.8077,1.8145,1.8226,1.8294,1.8321,1.8321,1.8328,1.8369,1.8409,1.8423,1.8545,1.8613,1.8654,1.8769,1.8918,1.9054,1.9135,1.9183,1.921,1.9189,1.923,1.9284,1.9312,1.9318,1.9169,1.9284,1.9196,1.9054,1.9047,1.8986,1.8918,1.8871,1.883,1.8861,1.8827,1.882,1.882,1.882,1.882,1.882,1.8881,1.8868,1.8694,1.862,1.845,1.8253,1.8158,1.8091,1.8077,1.8016,1.7956,1.7895,1.7765,1.7751,1.7711,1.7677,1.7609,2.0539,2.0539,2.0539,2.0539,2.0485,2.0234,2.0085,2.0037,1.9786,1.959,1.9488,1.9461,1.9379,1.923,1.9284,1.925,1.9237,1.9386,1.944,1.9522,1.9678,1.9793,1.9841,1.9746,1.9725,1.98,1.9563,1.9488,1.944,1.9325,1.9271,1.9298,1.9284,1.9264,1.9318,1.94,1.9366,1.9278,1.9325,1.925,1.9061,1.9006,1.8993,1.8945,1.8881,1.8708,1.8545,1.8314,1.8091,1.7928,1.7956,1.797,1.797,1.7976,1.7983,1.801,1.8057,1.8124,1.8165,1.8287,1.8362,1.8396,1.8396,1.8369,1.8416,1.8498,1.8559,1.8559,1.8681,1.8742,1.8803,1.8925,1.9067,1.9203,1.9345,1.9345,1.9291,1.925,1.9305,1.9427,1.9332,1.9339,1.9345,1.9332,1.9237,1.9142,1.9156,1.9142,1.904,1.8966,1.8905,1.8895,1.8861,1.882,1.882,1.882,1.882,1.8827,1.8877,1.8877,1.8701,1.8599,1.8504,1.8389,1.8321,1.8253,1.8206,1.8104,1.8031,1.801,1.7982,1.7955,1.797,1.788,1.7826,2.0539,2.0539,2.0539,2.0539,2.0428,2.0227,2.0098,2.0071,1.9786,1.9698,1.9617,1.961,1.9522,1.9386,1.9481,1.9501,1.9406,1.9529,1.961,1.9624,1.9718,1.9854,1.9997,2.0003,1.9902,1.9861,1.978,1.9712,1.9624,1.9563,1.9616,1.9609,1.9522,1.9616,1.9616,1.9556,1.9535,1.942,1.942,1.9345,1.921,1.9156,1.9108,1.9006,1.8857,1.8769,1.8694,1.8538,1.8369,1.8233,1.8124,1.8104,1.8165,1.8192,1.8192,1.8199,1.8233,1.8314,1.8416,1.8464,1.8538,1.8626,1.8626,1.8667,1.8667,1.8674,1.8701,1.8715,1.8749,1.8881,1.8932,1.9067,1.921,1.9339,1.9413,1.9474,1.9535,1.9549,1.9616,1.9637,1.963,1.9529,1.9454,1.9529,1.9434,1.9284,1.9257,1.9291,1.9203,1.9088,1.9,1.8925,1.8909,1.8868,1.882,1.8834,1.8868,1.8895,1.8932,1.8993,1.8816,1.8694,1.8633,1.8559,1.8484,1.8423,1.8342,1.828,1.8165,1.8186,1.8192,1.8158,1.8118,1.8077,1.8009,2.0539,2.0539,2.0539,2.0539,2.0428,2.0234,2.0098,2.0044,1.9793,1.9725,1.9725,1.9725,1.961,1.9549,1.9624,1.9603,1.9569,1.9617,1.9725,1.9759,1.9786,1.9915,2.0024,2.0193,2.0187,1.999,1.9888,1.9827,1.9766,1.9698,1.9711,1.9725,1.9725,1.9705,1.9725,1.9725,1.9677,1.9556,1.9535,1.9468,1.9339,1.9305,1.9237,1.9115,1.9006,1.8945,1.8864,1.8647,1.8552,1.8491,1.8382,1.8294,1.8308,1.8321,1.8321,1.8321,1.8389,1.8437,1.8518,1.8599,1.8674,1.8755,1.882,1.882,1.882,1.882,1.882,1.8834,1.8888,1.899,1.9074,1.9223,1.9352,1.9413,1.9501,1.9576,1.9705,1.9725,1.9725,1.9725,1.9711,1.9671,1.9603,1.9691,1.9677,1.9461,1.9454,1.9474,1.9373,1.925,1.9122,1.9033,1.8938,1.8857,1.8841,1.8854,1.8922,1.8925,1.9013,1.9061,1.9013,1.8905,1.881,1.8708,1.8586,1.8525,1.8393,1.8396,1.8342,1.8294,1.828,1.8308,1.8301,1.8233,1.8145,2.0539,2.0539,2.0539,2.0539,2.0499,2.0254,2.0126,2.0058,1.9875,1.9752,1.9725,1.9725,1.9711,1.9718,1.9718,1.9725,1.9718,1.9718,1.9725,1.9752,1.9895,1.9963,2.0037,2.0254,2.0347,2.0329,2.0105,1.9963,1.9847,1.982,1.9766,1.9732,1.9725,1.9725,1.9725,1.9725,1.9718,1.9698,1.9698,1.9596,1.9488,1.9461,1.9386,1.9264,1.9135,1.9067,1.8938,1.8749,1.864,1.8834,1.8674,1.8565,1.8484,1.8423,1.8403,1.8416,1.8572,1.866,1.8674,1.8735,1.8861,1.8796,1.8827,1.882,1.882,1.8827,1.8789,1.8871,1.8959,1.9122,1.923,1.9373,1.9447,1.9495,1.9596,1.9711,1.9725,1.9725,1.9725,1.9725,1.9725,1.9698,1.9698,1.9718,1.9725,1.9725,1.9718,1.963,1.9515,1.94,1.9257,1.9108,1.9006,1.8877,1.8847,1.8909,1.8918,1.9,1.9088,1.9142,1.9169,1.9074,1.8952,1.8782,1.8667,1.8613,1.8572,1.8538,1.847,1.8389,1.8409,1.8484,1.845,1.8375,1.8287,2.0539,2.0539,2.0539,2.0539,2.0455,2.0363,2.0214,2.0085,1.9922,1.9773,1.9739,1.9725,1.9739,1.9732,1.9725,1.9725,1.9725,1.9725,1.9725,1.9752,1.9854,1.9942,2.0092,2.0261,2.0347,2.0451,2.0309,2.0126,1.9942,1.9909,1.9793,1.9759,1.9739,1.9739,1.9745,1.9725,1.9725,1.9725,1.9725,1.9637,1.9617,1.959,1.9529,1.9366,1.9203,1.9074,1.8986,1.8843,1.8796,1.8925,1.8925,1.8959,1.8959,1.8905,1.881,1.8742,1.8877,1.8938,1.8871,1.8911,1.8945,1.8925,1.883,1.8776,1.8827,1.8841,1.885,1.9006,1.9176,1.9359,1.9393,1.9515,1.9664,1.963,1.963,1.9725,1.9725,1.9725,1.9725,1.9725,1.9725,1.9725,1.9725,1.9725,1.9725,1.9725,1.9725,1.9718,1.961,1.9488,1.9352,1.921,1.9067,1.8925,1.8847,1.8949,1.8979,1.9067,1.9156,1.925,1.9257,1.9203,1.9081,1.8925,1.8789,1.8715,1.8681,1.8654,1.864,1.8586,1.8626,1.8674,1.8606,1.8538,1.8484,2.0539,2.0539,2.0539,2.0539,2.0449,2.0327,2.0288,2.02,2.0058,1.9956,1.9881,1.9813,1.9773,1.9752,1.9745,1.9725,1.9725,1.9725,1.9725,1.9759,1.9868,1.9956,2.0105,2.0261,2.0404,2.0485,2.0388,2.0266,2.0119,2.0031,1.9949,1.9895,1.982,1.9834,1.9814,1.9759,1.9732,1.9725,1.9725,1.9725,1.9725,1.9725,1.9583,1.9427,1.9305,1.9189,1.9094,1.904,1.902,1.9088,1.9101,1.9135,1.9183,1.9196,1.9115,1.8959,1.9027,1.9033,1.8932,1.8932,1.8952,1.8871,1.8803,1.8816,1.8857,1.8905,1.8986,1.9183,1.9298,1.9468,1.9542,1.9684,1.9718,1.9725,1.9725,1.9732,1.9725,1.9725,1.9725,1.9725,1.9725,1.9725,1.9725,1.9725,1.9725,1.9725,1.9725,1.9725,1.9725,1.9637,1.9454,1.9257,1.9101,1.8959,1.8864,1.8952,1.9067,1.9156,1.923,1.9325,1.9359,1.9318,1.9217,1.9081,1.8959,1.8888,1.8813,1.8715,1.88,1.882,1.8793,1.8715,1.8728,1.8701,1.8626,2.0539,2.0539,2.0539,2.0539,2.0455,2.0361,2.0293,2.0309,2.02,2.0119,2.0085,1.9976,1.9902,1.9841,1.9807,1.9739,1.9759,1.9752,1.9725,1.9766,1.9854,1.9997,2.0112,2.0282,2.0374,2.0455,2.0462,2.0408,2.0239,2.0193,2.0126,1.9997,1.9902,1.9847,1.9793,1.9705,1.9732,1.9725,1.9725,1.9725,1.9725,1.9718,1.959,1.9447,1.9434,1.9345,1.9203,1.9169,1.9196,1.923,1.925,1.9264,1.9305,1.9379,1.9298,1.9088,1.9061,1.8979,1.8898,1.8911,1.8945,1.8864,1.8881,1.8936,1.8972,1.9054,1.9176,1.9379,1.9481,1.9522,1.9684,1.9752,1.9752,1.9732,1.9752,1.9759,1.9732,1.9725,1.9725,1.9725,1.9725,1.9725,1.9725,1.9725,1.9725,1.9725,1.9725,1.9725,1.9725,1.9725,1.9535,1.9298,1.9122,1.8986,1.8945,1.9013,1.9135,1.9264,1.9332,1.9406,1.9434,1.944,1.9332,1.9223,1.9067,1.8938,1.8857,1.8834,1.882,1.882,1.882,1.8813,1.8807,1.88,1.8701,2.0539,2.0539,2.0539,2.0539,2.0469,2.0512,2.0374,2.0336,2.0315,2.022,2.0139,2.0085,2.0003,1.9881,1.9752,1.9752,1.9773,1.98,1.9752,1.9725,1.9915,2.0051,2.0153,2.0397,2.0415,2.0469,2.0539,2.0458,2.0349,2.0295,2.0153,1.9969,1.9902,1.982,1.9746,1.9691,1.9725,1.9725,1.9725,1.9725,1.9725,1.9725,1.9576,1.9474,1.9434,1.9379,1.9264,1.925,1.9291,1.9393,1.9406,1.9474,1.9563,1.9481,1.9352,1.9271,1.9264,1.9257,1.9013,1.9013,1.902,1.8972,1.8959,1.8972,1.9074,1.9244,1.9379,1.9406,1.9549,1.9698,1.9759,1.9786,1.9766,1.9827,1.9841,1.9814,1.9773,1.9725,1.9725,1.9725,1.9725,1.9725,1.9725,1.9725,1.9725,1.9725,1.9725,1.9725,1.9711,1.9698,1.9664,1.9373,1.9203,1.9067,1.9061,1.9122,1.9217,1.9359,1.9434,1.9495,1.9515,1.9522,1.9474,1.9352,1.9196,1.9067,1.8986,1.8898,1.8868,1.882,1.882,1.882,1.882,1.8813,1.8749,2.0539,2.0539,2.0539,2.0539,2.0539,2.0539,2.0442,2.0395,2.0388,2.0354,2.0336,2.0254,2.0146,2.001,1.9929,1.9895,1.9868,1.9807,1.978,1.978,1.9929,2.0071,2.0227,2.0293,2.0381,2.0469,2.0526,2.0465,2.037,2.0302,2.0207,2.0017,1.9915,1.9916,1.9746,1.9698,1.9732,1.9725,1.9725,1.9725,1.9725,1.9711,1.959,1.9447,1.9515,1.9461,1.9386,1.9427,1.9481,1.9563,1.9563,1.959,1.963,1.959,1.9495,1.9359,1.9386,1.9278,1.9054,1.9149,1.9156,1.9122,1.9115,1.9149,1.925,1.9413,1.9556,1.9563,1.9698,1.9827,1.9861,1.9915,1.9942,1.9936,1.9854,1.9875,1.982,1.9752,1.9725,1.9725,1.9725,1.9725,1.9725,1.9725,1.9725,1.9725,1.9725,1.9725,1.9677,1.9556,1.9515,1.944,1.9298,1.9169,1.9196,1.925,1.9312,1.9434,1.9529,1.9583,1.961,1.9596,1.9549,1.9461,1.9305,1.9196,1.9115,1.8986,1.8857,1.8861,1.882,1.882,1.882,1.882,1.8793,2.0539,2.0539,2.0539,2.0539,2.0539,2.0539,2.0476,2.0539,2.0469,2.0469,2.0505,2.0327,2.0275,2.02,2.0126,2.0024,1.9936,1.9895,1.9875,1.9875,1.9942,2.0092,2.0268,2.0307,2.0388,2.0539,2.0539,2.0431,2.0309,2.0248,2.0173,2.0051,1.9983,1.9881,1.9807,1.9759,1.978,1.9725,1.9725,1.9725,1.9725,1.9725,1.9657,1.9563,1.9576,1.961,1.9529,1.9576,1.9711,1.9711,1.9711,1.9711,1.9718,1.9705,1.9563,1.9461,1.9468,1.94,1.925,1.9237,1.9291,1.9257,1.9264,1.9318,1.9468,1.961,1.9759,1.9705,1.9786,1.9875,1.9888,1.9969,1.9942,1.9915,1.9895,1.9861,1.9875,1.9786,1.9725,1.9725,1.9725,1.9725,1.9725,1.9725,1.9725,1.9725,1.9725,1.9725,1.9677,1.9542,1.9529,1.9508,1.9468,1.9373,1.9386,1.9427,1.9474,1.9501,1.9657,1.9705,1.9711,1.9718,1.9691,1.9582,1.9406,1.9284,1.9176,1.9033,1.8905,1.8823,1.882,1.882,1.882,1.882,1.8807,2.0539,2.0539,2.0539,2.0539,2.0539,2.0539,2.0539,2.0539,2.0539,2.0539,2.0519,2.0347,2.034,2.0347,2.0248,2.0126,2.0071,1.9936,1.9908,1.9942,2.0024,2.0173,2.0273,2.0388,2.0455,2.0532,2.0469,2.0383,2.0187,2.0153,2.0044,1.9915,1.9969,1.9875,1.9813,1.9793,1.9752,1.9752,1.9725,1.9725,1.9725,1.9725,1.9711,1.9705,1.9711,1.9718,1.9705,1.9718,1.9725,1.9725,1.9725,1.9725,1.9725,1.9725,1.959,1.9522,1.9556,1.9508,1.9427,1.9325,1.9237,1.9257,1.9332,1.9468,1.959,1.9698,1.978,1.9854,1.9834,1.9786,1.9841,1.9881,1.9915,1.9895,1.9895,1.9847,1.9793,1.978,1.9725,1.9725,1.9725,1.9725,1.9725,1.9725,1.9725,1.9725,1.9725,1.9725,1.9725,1.9677,1.9691,1.9684,1.9691,1.9664,1.9671,1.9677,1.9583,1.9576,1.9691,1.9718,1.9718,1.9725,1.9725,1.9657,1.9481,1.9359,1.9217,1.9047,1.8905,1.8868,1.882,1.882,1.882,1.882,1.882,1.8612,2.0476,2.0539,2.0539,2.0539,2.0539,2.0539,2.0539,2.0539,2.0539,2.0539,2.0428,2.0422,2.0428,2.0381,2.0261,2.0119,2.0051,2.0017,2.0024,2.0098,2.0241,2.0334,2.0435,2.0539,2.0539,2.0462,2.039,2.0139,2.0119,2.0003,1.9942,1.9976,1.9902,1.9847,1.982,1.9773,1.9766,1.9725,1.9725,1.9725,1.9725,1.9725,1.9725,1.9725,1.9725,1.9718,1.9725,1.9725,1.9725,1.9725,1.9725,1.9725,1.9725,1.9691,1.9569,1.9698,1.9677,1.9583,1.9508,1.9488,1.9495,1.9549,1.9596,1.9718,1.9725,1.9739,1.9725,1.9834,1.98,1.9854,1.9956,2.001,1.9942,1.9881,1.982,1.9773,1.9759,1.9752,1.9759,1.9739,1.9725,1.9725,1.9725,1.9725,1.9725,1.9725,1.9725,1.9725,1.9725,1.9725,1.9725,1.9725,1.9725,1.9725,1.9725,1.9725,1.9725,1.9725,1.9725,1.9725,1.9725,1.9718,1.961,1.9542,1.9393,1.923,1.904,1.8905,1.8861,1.8827,1.882,1.882,1.882,1.882,1.527,1.7518,1.8549,1.9579,2.0412,2.0539,2.0539,2.0539,2.0539,2.0539,2.0539,2.0539,2.0539,2.0539,2.0526,2.041,2.0227,2.0173,2.0173,2.0173,2.0207,2.0322,2.0465,2.0539,2.0539,2.0539,2.0519,2.0397,2.02,2.0173,2.0092,2.001,1.9983,1.9983,1.9861,1.982,1.9759,1.9752,1.9725,1.9725,1.9725,1.9725,1.9725,1.9725,1.9725,1.9725,1.9725,1.9725,1.9725,1.9725,1.9725,1.9725,1.9725,1.9725,1.9725,1.9725,1.9725,1.9725,1.9725,1.9725,1.9718,1.9691,1.9698,1.9711,1.9725,1.9725,1.9685,1.9807,1.9854,1.9888,1.9847,1.9902,1.9902,1.9813,1.9793,1.9752,1.98,1.9759,1.978,1.9739,1.9793,1.982,1.9861,1.9861,1.9773,1.9759,1.9725,1.9725,1.9725,1.9725,1.9725,1.9725,1.9725,1.9725,1.9725,1.9732,1.9739,1.9725,1.9725,1.9725,1.9725,1.9725,1.9725,1.9691,1.9542,1.9406,1.9257,1.9101,1.8945,1.8847,1.8827,1.882,1.882,1.882,1.882,1.0592,1.0912,1.418,1.7327,1.977,2.0476,2.0539,2.0539,2.0539,2.0539,2.0539,2.0539,2.0539,2.0539,2.0539,2.0374,2.0266,2.0295,2.0295,2.0288,2.0282,2.034,2.0422,2.0539,2.0539,2.0539,2.0462,2.0395,2.0239,2.0248,2.018,2.0166,2.0173,2.0153,1.9956,1.9807,1.9739,1.9732,1.9739,1.9725,1.9725,1.9725,1.9725,1.9725,1.9725,1.9725,1.9725,1.9725,1.9725,1.9725,1.9725,1.9725,1.9725,1.9725,1.9732,1.9685,1.9732,1.9725,1.9732,1.9732,1.9752,1.9732,1.9725,1.9725,1.9725,1.9732,1.9759,1.9814,1.9807,1.9814,1.9766,1.978,1.9766,1.9793,1.9719,1.978,1.9773,1.98,1.9766,1.9807,1.9861,1.9902,1.9956,1.9956,1.982,1.9807,1.9745,1.9725,1.9732,1.9725,1.9725,1.9725,1.9725,1.9766,1.9766,1.9752,1.9745,1.9732,1.9745,1.9773,1.9759,1.9739,1.9732,1.9718,1.9583,1.9474,1.9332,1.9183,1.9013,1.8909,1.8841,1.882,1.882,1.882,1.882,0.8224,1.0399,1.1551,1.2643,1.4308,1.8676,2.0476,2.0539,2.0539,2.0539,2.0539,2.0539,2.0539,2.0539,2.0462,2.0401,2.0356,2.0266,2.0266,2.0273,2.028,2.0424,2.0505,2.0539,2.0539,2.0539,2.0462,2.0408,2.0259,2.0282,2.0261,2.0254,2.0282,2.0275,2.0166,2.0031,1.9922,1.9868,1.9793,1.9725,1.9725,1.9725,1.9725,1.9725,1.9725,1.9725,1.9725,1.9732,1.9739,1.9732,1.9732,1.9739,1.9739,1.9739,1.978,1.9746,1.9807,1.9773,1.9861,1.9922,1.9847,1.982,1.9739,1.9739,1.9725,1.9725,1.9759,1.9786,1.9766,1.9766,1.9759,1.98,1.98,1.9793,1.9773,1.9786,1.98,1.9793,1.9841,1.9881,1.9936,2.0003,2.0071,2.0058,1.9949,1.9861,1.9813,1.9773,1.9752,1.9732,1.9725,1.9725,1.9739,1.9793,1.9814,1.978,1.9766,1.9807,1.9875,1.982,1.9786,1.9705,1.9739,1.9718,1.961,1.9549,1.9393,1.9237,1.9061,1.8925,1.8909,1.8841,1.882,1.882,1.882,0.4633,0.6812,0.8031,0.8477,0.9375,1.4563,1.7518,1.8739,1.9897,2.0539,2.0539,2.0539,2.0539,2.0539,2.0532,2.0449,2.0404,2.034,2.034,2.034,2.034,2.0408,2.0455,2.0539,2.0539,2.0539,2.0469,2.0422,2.0354,2.0315,2.0288,2.0309,2.0266,2.0315,2.0261,2.0153,2.0044,1.9929,1.9847,1.9814,1.9732,1.9766,1.9725,1.9725,1.9725,1.9725,1.9739,1.9752,1.9773,1.9752,1.9759,1.9786,1.9732,1.9752,1.9813,1.9868,1.9895,1.9875,1.9963,2.001,1.9969,1.9868,1.978,1.98,1.978,1.9759,1.9732,1.9732,1.9739,1.9732,1.9759,1.9807,1.9807,1.98,1.9841,1.9854,1.9854,1.9915,1.999,2.0031,2.0078,2.0139,2.0166,2.0132,2.0078,2.001,1.9942,1.9834,1.9786,1.9766,1.9739,1.9725,1.9725,1.9766,1.9793,1.98,1.9807,1.9929,1.9902,1.9847,1.978,1.9745,1.9732,1.9725,1.9691,1.9576,1.944,1.9291,1.9162,1.9027,1.8918,1.8909,1.8834,1.882,1.882,0.0,0.0,0.3542,0.4955,0.5596,0.8993,1.2259,1.5467,1.8739,2.0088,2.0158,2.0215,2.0539,2.0539,2.0539,2.0469,2.0455,2.0455,2.0455,2.0519,2.0499,2.0469,2.0469,2.0539,2.0539,2.0539,2.0469,2.0469,2.0469,2.0408,2.0417,2.0293,2.03,2.0307,2.0322,2.0261,2.0146,2.0044,1.9915,1.982,1.9773,1.9773,1.9732,1.9725,1.9725,1.9725,1.9752,1.9739,1.9746,1.9759,1.9848,1.9847,1.9875,1.9881,1.9976,2.0044,2.0078,2.0126,2.0112,2.0139,2.0166,2.0098,1.9983,1.9922,1.9861,1.9807,1.9786,1.9827,1.9773,1.9786,1.9773,1.9827,1.9813,1.9834,1.995,1.9942,2.001,2.0085,2.0166,2.0227,2.0282,2.0315,2.0288,2.0248,2.02,2.0159,2.0085,1.9956,1.9854,1.9814,1.978,1.9725,1.9725,1.9732,1.9766,1.9814,1.9841,1.9963,1.9847,1.9773,1.9712,1.9745,1.9732,1.9725,1.9725,1.9664,1.9515,1.9413,1.9305,1.9176,1.904,1.8877,1.8847,1.8827,1.882,0.0,0.0,0.1096,0.1483,0.1998,0.5146,0.8544,1.2003,1.5334,1.6881,1.7008,1.9452,2.0222,2.0539,2.0539,2.0539,2.0539,2.0539,2.0539,2.0539,2.0539,2.0539,2.0539,2.0539,2.0539,2.0539,2.0539,2.0539,2.0476,2.0539,2.0458,2.0356,2.034,2.0374,2.0431,2.0361,2.0268,2.0105,1.9949,1.9922,1.9834,1.9759,1.9725,1.9725,1.9725,1.9725,1.9752,1.9719,1.9739,1.9888,1.9847,1.9908,2.0031,2.0037,2.0078,2.0119,2.0248,2.032,2.0309,2.0356,2.0397,2.0356,2.0261,2.0139,2.0064,1.9997,1.9949,1.9895,1.9875,1.9902,1.9847,1.9888,1.9875,1.9868,1.9956,2.0085,2.0153,2.0207,2.0282,2.0295,2.0363,2.037,2.0349,2.0286,2.0302,2.0288,2.0214,2.0078,1.9936,1.982,1.98,1.9745,1.9732,1.9732,1.9814,1.9813,1.9895,1.9956,1.9827,1.9814,1.982,1.9793,1.9745,1.9725,1.9725,1.9718,1.9624,1.9515,1.9406,1.9298,1.9162,1.8972,1.8875,1.8854,1.8847,0.0,0.0,0.0,0.0,0.0,0.219,0.444,0.6876,1.1299,1.3993,1.5594,1.7518,1.9191,2.0412,2.0539,2.0539,2.0539,2.0539,2.0539,2.0539,2.0539,2.0539,2.0539,2.0539,2.0539,2.0539,2.0539,2.0539,2.0469,2.0471,2.039,2.0349,2.0374,2.041,2.0376,2.0349,2.0254,2.0098,1.9956,1.9875,1.978,1.9752,1.9725,1.9725,1.9725,1.9725,1.9739,1.9691,1.9793,1.9881,1.9908,2.0037,2.018,2.0234,2.0275,2.0322,2.0404,2.0408,2.0438,2.0415,2.0462,2.0455,2.0401,2.0383,2.0261,2.0166,2.0058,1.9969,1.9983,1.999,2.0024,2.0037,1.9956,1.9875,2.0044,2.022,2.0275,2.0253,2.0329,2.0336,2.0356,2.037,2.0383,2.0327,2.032,2.0273,2.0248,2.0112,1.9956,1.9861,1.9786,1.9732,1.9732,1.9739,1.982,1.9807,1.9827,1.9841,1.9841,1.9793,1.9834,1.9814,1.9745,1.9725,1.9725,1.9718,1.9644,1.9603,1.9508,1.94,1.9305,1.9169,1.8986,1.8895,1.8895,0.0,0.0,0.0,0.0,0.0,0.0,0.0,0.0,0.6684,1.1232,1.3797,1.5212,1.7263,1.9127,2.0024,2.0476,2.0539,2.0539,2.0539,2.0539,2.0539,2.0539,2.0539,2.0539,2.0539,2.0539,2.0539,2.0539,2.0442,2.0401,2.0354,2.028,2.0313,2.0363,2.0315,2.0329,2.0234,2.0037,1.9983,1.9936,1.982,1.9793,1.9725,1.9725,1.9725,1.9725,1.9759,1.9773,1.9881,1.9936,2.0037,2.0187,2.0329,2.0368,2.0422,2.0442,2.0455,2.0455,2.0512,2.0469,2.0469,2.0539,2.0532,2.0478,2.0363,2.0309,2.0207,2.0153,2.0166,2.0146,2.0166,2.018,2.0126,2.0092,2.0187,2.0282,2.0309,2.0253,2.0295,2.0302,2.0302,2.0315,2.0309,2.0315,2.0347,2.0307,2.0254,2.0119,1.9963,1.9848,1.9773,1.9725,1.9725,1.9732,1.9745,1.978,1.9759,1.9752,1.9752,1.9752,1.9773,1.9759,1.9732,1.9725,1.9725,1.9725,1.9711,1.9677,1.9583,1.9508,1.942,1.9359,1.9196,1.8993,1.8932,0.0,0.0,0.0,0.0,0.0,0.0,0.0,0.0,0.1547,0.4633,0.8098,1.2711,1.5786,1.7008,1.9255,2.0088,2.0476,2.0539,2.0539,2.0539,2.0539,2.0539,2.0539,2.0539,2.0539,2.0539,2.0539,2.0539,2.0462,2.0435,2.0422,2.0422,2.0478,2.0424,2.0363,2.0376,2.02,2.0024,1.9949,1.9895,1.9827,1.9773,1.9725,1.9725,1.9725,1.9739,1.9719,1.98,1.9929,2.0044,2.0193,2.0336,2.0415,2.0519,2.0539,2.0539,2.0539,2.0539,2.0539,2.0539,2.0539,2.0539,2.0462,2.0401,2.0361,2.0361,2.034,2.037,2.0322,2.0288,2.0268,2.0282,2.0275,2.0275,2.0295,2.0309,2.0259,2.0288,2.0254,2.0248,2.0248,2.0248,2.0241,2.0309,2.0334,2.0286,2.0207,2.0071,1.9915,1.982,1.9766,1.9725,1.9725,1.9725,1.9725,1.9725,1.9725,1.9739,1.9752,1.9745,1.9732,1.9752,1.9773,1.9739,1.9725,1.9739,1.9739,1.9718,1.9677,1.9569,1.9522,1.9454,1.9359,1.9183,1.9128,0.0,0.0,0.0,0.0,0.0,0.0,0.0,0.0,0.0,0.1032,0.3284,0.8355,1.2327,1.476,1.7518,1.9446,2.0024,2.0476,2.0539,2.0539,2.0539,2.0539,2.0539,2.0539,2.0539,2.0539,2.0539,2.0539,2.0539,2.0469,2.0469,2.0539,2.0539,2.0512,2.0451,2.0309,2.0193,2.0092,1.9949,1.9895,1.9793,1.9766,1.978,1.978,1.9773,1.9725,1.9827,1.9908,1.9997,2.0173,2.0343,2.0424,2.0449,2.0532,2.0539,2.0539,2.0539,2.0539,2.0539,2.0539,2.0539,2.0539,2.0539,2.0422,2.0422,2.0408,2.0363,2.0315,2.0227,2.0187,2.018,2.0187,2.0112,2.0085,2.0153,2.02,2.0207,2.0187,2.0166,2.0153,2.018,2.022,2.0261,2.034,2.0368,2.0248,2.0119,1.9983,1.9841,1.9807,1.9759,1.9725,1.9725,1.9725,1.9725,1.9725,1.9725,1.9739,1.9759,1.9807,1.9827,1.9827,1.982,1.982,1.9807,1.9773,1.9773,1.9766,1.9732,1.9691,1.959,1.9542,1.9447,1.9373,1.9359,0.0,0.0,0.0,0.0,0.0,0.0,0.0,0.0,0.0,0.0,0.0,0.3413,0.8352,1.2263,1.4887,1.7263,1.8739,1.8803,1.9382,2.0412,2.0539,2.0539,2.0539,2.0539,2.0539,2.0539,2.0539,2.0539,2.0539,2.0539,2.0539,2.0539,2.0455,2.0422,2.0343,2.0207,2.0105,2.0085,1.999,1.9875,1.9807,1.9759,1.9827,1.9827,1.982,1.9882,1.9936,2.0037,2.0078,2.0248,2.0431,2.0435,2.0469,2.0539,2.0539,2.0539,2.0539,2.0539,2.0539,2.0539,2.0539,2.0539,2.0539,2.0476,2.0469,2.0401,2.0349,2.0248,2.0159,2.0146,2.0139,2.0092,2.001,1.999,2.0071,2.0098,2.0092,2.0098,2.0098,2.0092,2.0139,2.0193,2.0253,2.0395,2.03,2.018,2.0017,1.9881,1.9827,1.9786,1.9739,1.9725,1.9725,1.9725,1.9725,1.9725,1.9725,1.9732,1.9759,1.9854,1.9916,1.9834,1.9841,1.9888,1.9922,1.9854,1.9834,1.9834,1.9793,1.9732,1.9698,1.9603,1.9576,1.9522,1.9569,0.0,0.0,0.0,0.0,0.0,0.0,0.0,0.0,0.0,0.0,0.0,0.0,0.3476,0.7264,1.0271,1.3346,1.6753,1.7003,1.8676,2.0158,2.0476,2.0539,2.0539,2.0539,2.0539,2.0539,2.0539,2.0539,2.0539,2.0539,2.0539,2.0539,2.0539,2.0449,2.0408,2.0315,2.0159,2.0153,1.9997,1.9834,1.9881,1.9895,1.9834,1.98,1.9745,1.9834,1.9881,2.001,2.0153,2.0315,2.0451,2.0519,2.0539,2.0539,2.0539,2.0539,2.0539,2.0539,2.0539,2.0539,2.0539,2.0539,2.0539,2.0539,2.0449,2.0381,2.0336,2.022,2.0166,2.02,2.0193,2.0105,2.0031,2.0085,2.0153,2.0058,1.9997,2.0044,2.0078,2.0119,2.0173,2.0241,2.0273,2.0313,2.0253,2.0139,1.9983,1.9847,1.978,1.9745,1.9732,1.9732,1.9732,1.9725,1.9725,1.9725,1.9725,1.9732,1.9786,1.9861,1.9915,1.9875,1.9895,2.0003,1.9942,1.9854,1.9847,1.9834,1.9814,1.9752,1.9732,1.9711,1.9698,1.9684,1.9624]},{"header":{"parameterUnit":"m.s-1","parameterCategory":1,"la1":31.0,"la2":29.5877,"lo1":-88.7671,"lo2":-86.6584,"dy":0.0162,"dx":0.0185,"nx":115,"ny":88,"refTime":"2024-06-16T18:00:00:Z","depth":0,"parameterNumber":3,"parameterNumberName":"V-component_of_WINDS"},"data":[0.0,0.0,0.0,0.0,0.0,0.0,0.0,0.0,0.0,0.0,0.0,0.0,0.0,0.0,0.0,0.0,0.0,0.0,0.0,0.0,0.0,0.0,0.0,0.0,0.0,0.0,0.0,0.0,0.0,0.0,0.0,0.0,0.0,0.0,0.0,0.0,0.0,0.0,0.0,0.0,0.0,0.0,0.0,0.0,0.0,0.0,0.0,0.0,0.0,0.0,0.0,0.0,0.0,0.0,0.0,0.0,0.0,0.0,0.0,0.0,0.0,0.0,0.0,0.0,0.0,0.0,0.0,0.0,0.0,0.0,0.0,0.0,0.0,0.0,0.0,0.0,0.0,0.0,0.0,0.0,0.0,0.0,0.0,0.0,0.0,0.0,0.0,0.0,0.0,0.0,0.0,0.0,0.0,0.0,0.0,0.0,0.0,0.0,0.0,0.0,0.0,0.0,0.0,0.0,0.0,0.0,0.0,0.0,0.0,0.0,0.0,0.0,0.0,0.0,0.0,0.0,0.0,0.0,0.0,0.0,0.0,0.0,0.0,0.0,0.0,0.0,0.0,0.0,0.0,0.0,0.0,0.0,0.0,0.0,0.0,0.0,0.0,0.0,0.0,0.0,0.0,0.0,0.0,0.0,0.0,0.0,0.0,0.0,0.0,0.0,0.0,0.0,0.0,0.0,0.0,0.0,0.0,0.0,0.0,0.0,0.0,0.0,0.0,0.0,0.0,0.0,0.0,0.0,0.0,0.0,0.0,0.0,0.0,0.0,0.0,0.0,0.0,0.0,0.0,0.0,0.0,0.0,0.0,0.0,0.0,0.0,0.0,0.0,0.0,0.0,0.0,0.0,0.0,0.0,0.0,0.0,0.0,0.0,0.0,0.0,0.0,0.0,0.0,0.0,0.0,0.0,0.0,0.0,0.0,0.0,0.0,0.0,0.0,0.0,0.0,0.0,0.0,0.0,0.0,0.0,0.0,0.0,0.0,0.0,0.0,0.0,0.0,0.0,0.0,0.0,0.0,0.0,0.0,0.0,0.0,0.0,0.0,0.0,0.0,0.0,0.0,0.0,0.0,0.0,0.0,0.0,0.0,0.0,0.0,0.0,0.0,0.0,0.0,0.0,0.0,0.0,0.0,0.0,0.0,0.0,0.0,0.0,0.0,0.0,0.0,0.0,0.0,0.0,0.0,0.0,0.0,0.0,0.0,0.0,0.0,0.0,0.0,0.0,0.0,0.0,0.0,0.0,0.0,0.0,0.0,0.0,0.0,0.0,0.0,0.0,0.0,0.0,0.0,0.0,0.0,0.0,0.0,0.0,0.0,0.0,0.0,0.0,0.0,0.0,0.0,0.0,0.0,0.0,0.0,0.0,0.0,0.0,0.0,0.0,0.0,0.0,0.0,0.0,0.0,0.0,0.0,0.0,0.0,0.0,0.0,0.0,0.0,0.0,0.0,0.0,0.0,0.0,0.0,0.0,0.0,0.0,0.0,0.0,0.0,0.0,0.0,0.0,0.0,0.0,0.0,0.0,0.0,0.0,0.0,0.0,0.0,0.0,0.0,0.0,0.0,0.0,0.0,0.0,0.0,0.0,0.0,0.0,0.0,0.0,0.0,0.0,0.0,0.0,0.0,0.0,0.0,0.0,0.0,0.0,0.0,0.0,0.0,0.0,0.0,0.0,0.0,0.0,0.0,0.0,0.0,0.0,0.0,0.0,0.0,0.0,0.0,0.0,0.0,0.0,0.0,0.0,0.0,0.0,0.0,0.0,0.0,0.0,0.0,0.0,0.0,0.0,0.0,0.0,0.0,0.0,0.0,0.0,0.0,0.0,0.0,0.0,0.0,0.0,0.0,0.0,0.0,0.0,0.0,0.0,0.0,0.0,0.0,0.0,0.0,0.0,0.0,0.0,0.0,0.0,0.0,0.0,0.0,0.0,0.0,0.0,0.0,0.0,0.0,0.0,0.0,0.0,0.0,0.0,0.0,0.0,0.0,0.0,0.0,0.0,0.0,0.0,0.0,0.0,0.0,0.0,0.0,0.0,0.0,0.0,0.0,0.0,0.0,0.0,0.0,0.0,0.0,0.0,0.0,0.0,0.0,0.0,0.0,0.0,0.0,0.0,0.0,0.0,0.0,0.0,0.0,0.0,0.0,0.0,0.0,0.0,0.0,0.0,0.0,0.0,0.0,0.0,0.0,0.0,0.0,0.0,0.0,0.0,0.0,0.0,0.0,0.0,0.0,0.0,0.0,0.0,0.0,0.0,0.0,0.0,0.0,0.0,0.0,0.0,0.0,0.0,0.0,0.0,0.0,0.0,0.0,0.0,0.0,0.0,0.0,0.0,0.0,0.0,0.0,0.0,0.0,0.0,0.0,0.0,0.0,0.0,0.0,0.0,0.0,0.0,0.0,0.0,0.0,0.0,0.0,0.0,0.0,0.0,0.0,0.0,0.0,0.0,0.0,0.0,0.0,0.0,0.0,0.0,0.0,0.0,0.0,0.0,0.0,0.0,0.0,0.0,0.0,0.0,0.0,0.0,0.0,0.0,0.0,0.0,0.0,0.0,0.0,0.0,0.0,0.0,0.0,0.0,0.0,0.0,0.0,0.0,0.0,0.0,0.0,0.0,0.0,0.0,0.0,0.0,0.0,0.0,0.0,0.0,0.0,0.0,0.0,0.0,0.0,0.0,0.0,0.0,0.0,0.0,0.0,0.0,0.0,0.0,0.0,0.0,0.0,0.0,0.0,0.0,0.0,0.0,0.0,0.0,0.0,0.0,0.0,0.0,0.0,0.0,0.0,0.0,0.0,0.0,0.0,0.0,0.0,0.0,0.0,0.0,0.0,0.0,0.0,0.0,0.0,0.0,0.0,0.0,0.0,0.0,0.0,0.0,0.0,0.0,0.0,0.0,0.0,0.0,0.0,0.0,0.0,0.0,0.0,0.0,0.0,0.0,0.0,0.0,0.0,0.0,0.0,0.0,0.0,0.0,0.0,0.0,0.0,0.0,0.0,0.0,0.0,0.0,0.0,0.0,0.0,0.0,0.0,0.0,0.0,0.0,0.0,0.0,0.0,0.0,0.0,0.0,0.0,0.0,0.0,0.0,0.0,0.0,0.0,0.0,0.0,0.0,0.0,0.0,0.0,0.0,0.0,0.0,0.0,0.0,0.0,0.0,0.0,0.0,0.0,0.0,0.0,0.0,0.0,0.0,0.0,0.0,0.0,0.0,0.0,0.0,0.0,0.0,0.0,0.0,0.0,0.0,0.0,0.0,0.0,0.0,0.0,0.0,0.0,0.0,0.0,0.0,0.0,0.0,0.0,0.0,0.0,0.0,0.0,0.0,0.0,0.0,0.0,0.0,0.0,0.0,0.0,0.0,0.0,0.0,0.0,0.0,0.0,0.0,0.0,0.0,0.0,0.0,0.0,0.0,0.0,0.0,0.0,0.0,0.0,0.0,0.0,0.0,0.0,0.0,0.0,0.0,0.0,0.0,0.0,0.0,0.0,0.0,0.0,0.0,0.0,0.0,0.0,0.0,0.0,0.0,0.0,0.0,0.0,0.0,0.0,0.0,0.0,0.0,0.0,0.0,0.0,0.0,0.0,0.0,0.0,0.0,0.0,0.0,0.0,0.0,0.0,0.0,0.0,0.0,0.0,0.0,0.0,0.0,0.0,0.0,0.0,0.0,0.0,0.0,0.0,0.0,0.0,0.0,0.0,0.0,0.0,0.0,0.0,0.0,0.0,0.0,0.0,0.0,0.0,0.0,0.0,0.0,0.0,0.0,0.0,0.0,0.0,0.0,0.0,0.0,0.0,0.0,0.0,0.0,0.0,0.0,0.0,0.0,0.0,0.0,0.0,0.0,0.0,0.0,0.0,0.0,0.0,0.0,0.0,0.0,0.0,0.0,0.0,0.0,0.0,0.0,0.0,0.0,0.0,0.0,0.0,0.0,0.0,0.0,0.0,0.0,0.0,0.0,0.0,0.0,0.0,0.0,0.0,0.0,0.0,0.0,0.0,0.0,0.0,0.0,0.0,0.0,0.0,0.0,0.0,0.0,0.0,0.0,0.0,0.0,0.0,0.0,0.0,0.0,0.0,0.0,0.0,0.0,0.0,0.0,0.0,0.0,0.0,0.0,0.0,0.0,0.0,0.0,0.0,0.0,0.0,0.0,0.0,0.0,0.0,0.0,0.0,0.0,0.0,0.0,0.0,0.0,0.0,0.0,0.0,0.0,0.0,0.0,0.0,0.0,0.0,0.0,0.0,0.0,4.9279,0.0,0.0,0.0,0.0,0.0,0.0,0.0,0.0,0.0,0.0,0.0,0.0,0.0,0.0,0.0,0.0,0.0,0.0,0.0,0.0,0.0,0.0,0.0,0.0,0.0,0.0,0.0,0.0,0.0,0.0,0.0,0.0,0.0,0.0,0.0,0.0,0.0,0.0,0.0,0.0,0.0,0.0,0.0,0.0,0.0,0.0,0.0,0.0,0.0,0.0,0.0,0.0,0.0,0.0,0.0,0.0,0.0,0.0,0.0,0.0,0.0,0.0,0.0,0.0,0.0,0.0,0.0,0.0,0.0,0.0,0.0,0.0,0.0,0.0,0.0,0.0,0.0,0.0,0.0,0.0,0.0,0.0,0.0,0.0,0.0,0.0,0.0,0.0,0.0,0.0,0.0,0.0,0.0,0.0,0.0,0.0,0.0,0.0,0.0,0.0,0.0,0.0,0.0,0.0,0.0,0.0,0.0,0.0,0.0,0.0,5.3664,5.3197,5.2813,5.1582,4.951,0.0,0.0,0.0,0.0,0.0,0.0,0.0,0.0,0.0,0.0,0.0,0.0,0.0,0.0,0.0,0.0,0.0,0.0,0.0,0.0,0.0,0.0,0.0,0.0,0.0,0.0,0.0,0.0,0.0,0.0,0.0,0.0,0.0,0.0,0.0,0.0,0.0,0.0,0.0,0.0,0.0,0.0,0.0,0.0,0.0,0.0,0.0,0.0,0.0,0.0,0.0,0.0,0.0,0.0,0.0,0.0,0.0,0.0,0.0,0.0,0.0,0.0,0.0,0.0,0.0,0.0,0.0,0.0,0.0,0.0,0.0,0.0,0.0,0.0,0.0,0.0,0.0,0.0,0.0,0.0,0.0,0.0,0.0,0.0,0.0,0.0,0.0,0.0,0.0,0.0,0.0,0.0,0.0,0.0,0.0,0.0,0.0,0.0,0.0,0.0,0.0,0.0,0.0,0.0,0.0,0.0,0.0,0.0,0.0,0.0,0.0,0.0,5.3587,5.2318,4.9822,0.0,0.0,0.0,0.0,0.0,0.0,0.0,0.0,0.0,0.0,0.0,0.0,0.0,0.0,0.0,0.0,0.0,0.0,0.0,0.0,0.0,0.0,0.0,0.0,0.0,0.0,0.0,0.0,0.0,0.0,0.0,0.0,0.0,0.0,0.0,0.0,0.0,0.0,0.0,0.0,0.0,0.0,0.0,0.0,0.0,0.0,0.0,0.0,0.0,0.0,0.0,0.0,0.0,0.0,0.0,0.0,0.0,0.0,0.0,0.0,0.0,0.0,0.0,0.0,0.0,0.0,0.0,0.0,0.0,0.0,0.0,0.0,0.0,0.0,0.0,0.0,0.0,0.0,0.0,0.0,0.0,0.0,0.0,0.0,0.0,0.0,0.0,0.0,0.0,0.0,0.0,0.0,0.0,0.0,0.0,0.0,0.0,0.0,0.0,0.0,0.0,0.0,0.0,0.0,0.0,0.0,0.0,0.0,0.0,0.0,5.3197,5.5395,5.4747,0.0,5.0789,0.0,0.0,0.0,0.0,0.0,0.0,0.0,0.0,0.0,0.0,0.0,0.0,0.0,0.0,0.0,0.0,0.0,0.0,0.0,0.0,0.0,0.0,0.0,0.0,0.0,0.0,0.0,0.0,0.0,0.0,0.0,0.0,0.0,0.0,0.0,0.0,0.0,0.0,0.0,0.0,0.0,0.0,0.0,0.0,0.0,0.0,0.0,0.0,0.0,0.0,0.0,0.0,0.0,0.0,0.0,0.0,0.0,0.0,0.0,0.0,0.0,0.0,0.0,0.0,0.0,0.0,0.0,0.0,0.0,0.0,0.0,0.0,0.0,0.0,0.0,0.0,0.0,0.0,0.0,0.0,0.0,0.0,0.0,0.0,0.0,0.0,0.0,0.0,0.0,0.0,0.0,0.0,0.0,0.0,0.0,0.0,0.0,0.0,0.0,0.0,0.0,0.0,0.0,0.0,0.0,0.0,0.0,0.0,0.0,0.0,5.3933,5.4972,5.3664,5.2241,0.0,0.0,0.0,0.0,0.0,0.0,0.0,0.0,0.0,0.0,0.0,0.0,0.0,0.0,0.0,0.0,0.0,0.0,0.0,0.0,0.0,0.0,0.0,0.0,0.0,0.0,0.0,0.0,0.0,0.0,0.0,0.0,0.0,0.0,0.0,0.0,0.0,0.0,0.0,0.0,0.0,0.0,0.0,0.0,0.0,0.0,0.0,0.0,0.0,0.0,0.0,0.0,0.0,0.0,0.0,0.0,0.0,0.0,0.0,0.0,0.0,0.0,0.0,0.0,0.0,0.0,0.0,0.0,0.0,0.0,0.0,0.0,0.0,0.0,0.0,0.0,0.0,0.0,0.0,0.0,0.0,0.0,0.0,0.0,0.0,0.0,0.0,0.0,0.0,0.0,0.0,0.0,0.0,0.0,0.0,0.0,0.0,0.0,0.0,0.0,0.0,0.0,0.0,0.0,0.0,0.0,0.0,0.0,0.0,0.0,5.3433,5.4241,5.4439,5.3505,5.2125,5.0399,0.0,0.0,0.0,0.0,0.0,0.0,0.0,0.0,0.0,0.0,0.0,0.0,0.0,0.0,0.0,0.0,0.0,0.0,0.0,0.0,0.0,0.0,0.0,0.0,0.0,0.0,0.0,0.0,0.0,0.0,0.0,0.0,0.0,0.0,0.0,0.0,0.0,0.0,0.0,0.0,0.0,0.0,0.0,0.0,0.0,0.0,0.0,0.0,0.0,0.0,0.0,0.0,0.0,0.0,0.0,0.0,0.0,0.0,0.0,0.0,0.0,0.0,0.0,0.0,0.0,0.0,0.0,0.0,0.0,0.0,0.0,0.0,0.0,0.0,0.0,0.0,0.0,0.0,0.0,0.0,0.0,0.0,0.0,0.0,0.0,0.0,0.0,0.0,0.0,0.0,0.0,0.0,0.0,0.0,0.0,0.0,0.0,0.0,0.0,0.0,0.0,0.0,0.0,0.0,0.0,0.0,0.0,0.0,5.5208,5.401,5.3664,5.4549,5.517,5.3626,0.0,0.0,0.0,0.0,0.0,0.0,0.0,0.0,0.0,0.0,0.0,0.0,0.0,0.0,0.0,0.0,0.0,0.0,0.0,0.0,0.0,0.0,0.0,0.0,0.0,0.0,0.0,0.0,0.0,0.0,0.0,0.0,0.0,0.0,0.0,0.0,0.0,0.0,0.0,0.0,0.0,0.0,0.0,0.0,0.0,0.0,0.0,0.0,0.0,0.0,0.0,0.0,0.0,0.0,0.0,0.0,0.0,0.0,0.0,0.0,0.0,0.0,0.0,0.0,0.0,0.0,0.0,0.0,0.0,0.0,0.0,0.0,0.0,0.0,0.0,0.0,0.0,0.0,0.0,0.0,0.0,0.0,0.0,0.0,0.0,0.0,0.0,0.0,0.0,0.0,0.0,0.0,0.0,0.0,0.0,0.0,0.0,0.0,0.0,0.0,0.0,0.0,0.0,0.0,0.0,0.0,0.0,0.0,0.0,5.2438,5.2933,5.4395,5.6698,5.4093,5.2284,0.0,0.0,0.0,0.0,0.0,0.0,0.0,0.0,0.0,0.0,0.0,0.0,0.0,0.0,0.0,0.0,0.0,0.0,0.0,0.0,0.0,0.0,0.0,0.0,0.0,0.0,0.0,0.0,0.0,0.0,0.0,0.0,0.0,0.0,0.0,0.0,0.0,0.0,0.0,0.0,0.0,0.0,0.0,0.0,0.0,0.0,0.0,0.0,0.0,0.0,0.0,0.0,0.0,0.0,0.0,0.0,0.0,0.0,0.0,0.0,0.0,0.0,0.0,0.0,0.0,0.0,0.0,0.0,0.0,0.0,0.0,0.0,0.0,0.0,0.0,0.0,0.0,0.0,0.0,0.0,0.0,0.0,0.0,0.0,0.0,0.0,0.0,0.0,0.0,0.0,0.0,0.0,0.0,0.0,0.0,0.0,0.0,0.0,0.0,0.0,0.0,0.0,0.0,0.0,0.0,0.0,0.0,0.0,0.0,5.2328,0.0,5.5582,5.6857,5.3741,5.1707,0.0,0.0,0.0,0.0,0.0,0.0,0.0,0.0,0.0,0.0,0.0,0.0,0.0,0.0,0.0,0.0,0.0,0.0,0.0,0.0,0.0,0.0,0.0,0.0,0.0,0.0,0.0,0.0,0.0,0.0,0.0,0.0,0.0,0.0,0.0,0.0,0.0,0.0,0.0,0.0,0.0,0.0,0.0,0.0,0.0,0.0,0.0,0.0,0.0,0.0,0.0,0.0,0.0,0.0,0.0,0.0,0.0,0.0,0.0,0.0,0.0,0.0,0.0,0.0,0.0,0.0,0.0,0.0,0.0,0.0,0.0,0.0,0.0,0.0,0.0,0.0,0.0,0.0,0.0,0.0,0.0,0.0,0.0,0.0,0.0,0.0,0.0,0.0,0.0,0.0,0.0,0.0,0.0,0.0,0.0,0.0,0.0,0.0,0.0,0.0,0.0,0.0,0.0,0.0,0.0,0.0,0.0,0.0,5.2366,5.5478,5.7242,5.6973,5.4703,5.4472,5.2087,0.0,0.0,0.0,0.0,0.0,0.0,0.0,0.0,0.0,0.0,0.0,0.0,0.0,0.0,0.0,0.0,0.0,0.0,0.0,0.0,0.0,0.0,0.0,0.0,0.0,0.0,0.0,0.0,0.0,0.0,0.0,0.0,0.0,0.0,0.0,0.0,0.0,0.0,0.0,0.0,0.0,0.0,0.0,0.0,0.0,0.0,0.0,0.0,0.0,0.0,0.0,0.0,0.0,0.0,0.0,0.0,0.0,0.0,0.0,0.0,0.0,0.0,0.0,0.0,0.0,0.0,0.0,0.0,0.0,0.0,0.0,0.0,0.0,0.0,0.0,0.0,0.0,0.0,0.0,0.0,0.0,0.0,0.0,0.0,0.0,0.0,0.0,0.0,0.0,0.0,0.0,0.0,0.0,0.0,0.0,0.0,0.0,0.0,0.0,0.0,0.0,0.0,0.0,0.0,0.0,0.0,0.0,0.0,0.0,5.401,5.5626,5.6973,5.778,5.4544,5.2774,0.0,0.0,0.0,0.0,0.0,0.0,0.0,0.0,0.0,0.0,0.0,0.0,0.0,0.0,0.0,0.0,0.0,0.0,0.0,0.0,0.0,0.0,0.0,0.0,0.0,0.0,0.0,0.0,0.0,0.0,0.0,0.0,0.0,0.0,0.0,0.0,0.0,0.0,0.0,0.0,0.0,0.0,0.0,0.0,0.0,0.0,0.0,0.0,0.0,0.0,0.0,0.0,0.0,0.0,0.0,0.0,0.0,0.0,0.0,0.0,0.0,0.0,0.0,0.0,0.0,0.0,0.0,0.0,0.0,0.0,0.0,0.0,0.0,0.0,0.0,0.0,0.0,0.0,0.0,0.0,0.0,0.0,0.0,0.0,0.0,0.0,0.0,0.0,0.0,0.0,0.0,0.0,0.0,0.0,0.0,0.0,0.0,0.0,0.0,0.0,0.0,0.0,0.0,0.0,0.0,0.0,0.0,0.0,0.0,5.5659,5.7209,5.855,5.9473,5.578,5.3933,5.4164,0.0,0.0,0.0,0.0,0.0,0.0,0.0,0.0,0.0,0.0,0.0,0.0,0.0,0.0,0.0,0.0,0.0,0.0,0.0,0.0,0.0,0.0,0.0,0.0,0.0,0.0,0.0,0.0,0.0,0.0,0.0,0.0,0.0,0.0,0.0,0.0,0.0,0.0,0.0,0.0,0.0,0.0,0.0,0.0,0.0,0.0,0.0,0.0,0.0,0.0,0.0,0.0,0.0,0.0,0.0,0.0,0.0,0.0,0.0,0.0,0.0,0.0,0.0,0.0,0.0,0.0,0.0,0.0,0.0,0.0,0.0,0.0,0.0,0.0,0.0,0.0,0.0,0.0,0.0,0.0,0.0,0.0,0.0,0.0,0.0,0.0,0.0,0.0,0.0,0.0,0.0,0.0,0.0,0.0,0.0,0.0,0.0,0.0,0.0,0.0,0.0,0.0,0.0,0.0,0.0,0.0,0.0,0.0,5.9781,6.1441,6.1479,5.9775,5.7978,5.5511,0.0,0.0,0.0,0.0,0.0,0.0,0.0,0.0,0.0,0.0,0.0,0.0,0.0,0.0,0.0,0.0,0.0,0.0,0.0,0.0,0.0,0.0,0.0,0.0,0.0,0.0,0.0,0.0,0.0,0.0,0.0,0.0,0.0,0.0,0.0,0.0,0.0,0.0,0.0,0.0,0.0,0.0,0.0,0.0,0.0,0.0,0.0,0.0,0.0,0.0,0.0,0.0,0.0,0.0,0.0,0.0,0.0,0.0,0.0,0.0,0.0,0.0,0.0,0.0,0.0,0.0,0.0,0.0,0.0,0.0,0.0,0.0,0.0,0.0,0.0,0.0,0.0,0.0,0.0,0.0,0.0,0.0,0.0,0.0,0.0,0.0,0.0,0.0,0.0,0.0,0.0,0.0,0.0,0.0,0.0,0.0,0.0,0.0,0.0,0.0,0.0,0.0,0.0,0.0,0.0,0.0,0.0,0.0,0.0,6.3243,6.4326,6.4089,6.2314,5.9506,5.7242,0.0,0.0,0.0,0.0,0.0,0.0,0.0,0.0,0.0,0.0,0.0,0.0,0.0,0.0,0.0,0.0,0.0,0.0,0.0,0.0,0.0,0.0,0.0,0.0,0.0,0.0,0.0,0.0,0.0,0.0,0.0,0.0,0.0,0.0,0.0,0.0,0.0,0.0,0.0,0.0,0.0,0.0,0.0,0.0,0.0,0.0,0.0,0.0,0.0,0.0,0.0,0.0,0.0,0.0,0.0,0.0,0.0,0.0,0.0,0.0,0.0,0.0,0.0,0.0,0.0,0.0,0.0,0.0,0.0,0.0,0.0,0.0,0.0,0.0,0.0,0.0,0.0,0.0,0.0,0.0,0.0,0.0,0.0,0.0,0.0,0.0,0.0,0.0,0.0,0.0,0.0,0.0,0.0,0.0,0.0,0.0,0.0,0.0,0.0,0.0,0.0,0.0,0.0,0.0,0.0,0.0,0.0,0.0,6.3441,6.5128,6.632,6.6167,6.4436,6.2166,5.9858,0.0,0.0,0.0,0.0,0.0,0.0,0.0,0.0,0.0,0.0,0.0,0.0,0.0,0.0,0.0,0.0,0.0,0.0,0.0,0.0,0.0,0.0,0.0,0.0,0.0,0.0,0.0,0.0,0.0,0.0,0.0,0.0,0.0,0.0,0.0,0.0,0.0,0.0,0.0,0.0,0.0,0.0,0.0,0.0,0.0,0.0,0.0,0.0,0.0,0.0,0.0,0.0,0.0,0.0,0.0,0.0,0.0,0.0,0.0,0.0,0.0,0.0,0.0,0.0,0.0,0.0,0.0,0.0,0.0,0.0,0.0,0.0,0.0,0.0,0.0,0.0,0.0,0.0,0.0,0.0,0.0,0.0,0.0,0.0,0.0,0.0,0.0,0.0,0.0,0.0,0.0,0.0,0.0,0.0,0.0,0.0,0.0,0.0,0.0,0.0,0.0,0.0,0.0,0.0,0.0,0.0,0.0,0.0,6.4436,6.6128,6.7699,6.7821,6.632,6.5128,6.2545,0.0,0.0,0.0,0.0,0.0,0.0,0.0,0.0,0.0,0.0,0.0,0.0,0.0,0.0,0.0,0.0,0.0,0.0,0.0,0.0,0.0,0.0,0.0,0.0,0.0,0.0,0.0,0.0,0.0,0.0,0.0,0.0,0.0,0.0,0.0,0.0,0.0,0.0,0.0,0.0,0.0,0.0,0.0,0.0,0.0,0.0,0.0,0.0,0.0,0.0,0.0,0.0,0.0,0.0,0.0,0.0,0.0,0.0,0.0,0.0,0.0,0.0,0.0,0.0,0.0,0.0,0.0,0.0,0.0,0.0,0.0,0.0,0.0,0.0,0.0,0.0,0.0,0.0,0.0,0.0,0.0,0.0,0.0,0.0,0.0,0.0,0.0,0.0,0.0,0.0,0.0,0.0,0.0,0.0,0.0,0.0,0.0,0.0,0.0,0.0,0.0,0.0,0.0,0.0,0.0,0.0,0.0,0.0,6.6167,6.7814,6.8891,6.9244,6.8898,6.5436,6.1929,0.0,0.0,0.0,0.0,0.0,0.0,0.0,0.0,0.0,0.0,0.0,0.0,0.0,0.0,0.0,0.0,0.0,0.0,0.0,0.0,0.0,0.0,0.0,0.0,0.0,0.0,0.0,0.0,0.0,0.0,0.0,0.0,0.0,0.0,0.0,0.0,0.0,0.0,0.0,0.0,0.0,0.0,0.0,0.0,0.0,0.0,0.0,0.0,6.0512,0.0,0.0,0.0,0.0,0.0,0.0,0.0,0.0,0.0,0.0,0.0,0.0,0.0,0.0,0.0,0.0,0.0,0.0,0.0,0.0,0.0,0.0,0.0,0.0,0.0,0.0,0.0,0.0,0.0,0.0,0.0,0.0,0.0,0.0,0.0,0.0,0.0,0.0,0.0,0.0,0.0,0.0,0.0,0.0,0.0,0.0,0.0,0.0,0.0,0.0,0.0,0.0,0.0,0.0,0.0,0.0,0.0,0.0,0.0,6.7282,6.8968,6.9821,7.009,6.959,6.6705,6.3512,0.0,0.0,0.0,0.0,0.0,0.0,0.0,0.0,0.0,0.0,0.0,0.0,0.0,0.0,0.0,0.0,0.0,0.0,0.0,0.0,0.0,0.0,0.0,0.0,0.0,0.0,0.0,0.0,0.0,0.0,0.0,0.0,0.0,0.0,0.0,0.0,0.0,0.0,0.0,0.0,0.0,0.0,0.0,0.0,0.0,0.0,0.0,0.0,0.0,0.0,0.0,0.0,0.0,0.0,0.0,0.0,0.0,0.0,0.0,0.0,0.0,0.0,0.0,0.0,0.0,0.0,0.0,0.0,0.0,0.0,0.0,0.0,0.0,0.0,0.0,0.0,0.0,0.0,0.0,0.0,0.0,0.0,0.0,0.0,0.0,0.0,0.0,0.0,0.0,0.0,0.0,0.0,0.0,0.0,0.0,0.0,0.0,0.0,0.0,0.0,0.0,0.0,0.0,0.0,0.0,0.0,0.0,6.575,6.8129,7.0206,7.0821,7.0783,7.009,6.8129,6.5596,6.2403,0.0,0.0,0.0,0.0,0.0,0.0,0.0,0.0,0.0,0.0,0.0,0.0,0.0,0.0,0.0,0.0,0.0,0.0,0.0,0.0,0.0,0.0,0.0,0.0,0.0,0.0,0.0,0.0,0.0,0.0,0.0,0.0,0.0,0.0,0.0,0.0,0.0,0.0,5.9973,6.1402,0.0,0.0,0.0,0.0,0.0,0.0,0.0,0.0,6.0902,0.0,0.0,0.0,0.0,0.0,0.0,0.0,0.0,0.0,0.0,0.0,0.0,0.0,0.0,0.0,0.0,0.0,0.0,0.0,0.0,0.0,0.0,0.0,0.0,0.0,0.0,0.0,0.0,0.0,0.0,0.0,0.0,0.0,0.0,0.0,0.0,0.0,0.0,0.0,0.0,0.0,0.0,0.0,0.0,0.0,0.0,0.0,0.0,0.0,0.0,0.0,0.0,0.0,0.0,0.0,0.0,6.7244,6.7205,6.8975,7.2738,7.2283,7.1944,7.1706,6.8751,6.582,6.316,0.0,0.0,0.0,0.0,0.0,0.0,0.0,0.0,0.0,0.0,0.0,0.0,0.0,0.0,0.0,0.0,0.0,0.0,0.0,0.0,0.0,0.0,0.0,0.0,0.0,0.0,0.0,0.0,0.0,0.0,0.0,0.0,0.0,0.0,0.0,0.0,0.0,0.0,0.0,6.3134,6.3666,0.0,0.0,0.0,0.0,0.0,0.0,0.0,0.0,6.1056,0.0,0.0,0.0,0.0,0.0,0.0,0.0,0.0,0.0,0.0,0.0,0.0,0.0,0.0,0.0,0.0,0.0,0.0,0.0,0.0,0.0,0.0,0.0,0.0,0.0,0.0,0.0,0.0,0.0,0.0,0.0,0.0,0.0,0.0,0.0,0.0,0.0,0.0,0.0,0.0,0.0,0.0,0.0,0.0,0.0,0.0,0.0,0.0,0.0,0.0,0.0,0.0,0.0,0.0,0.0,6.6859,6.8398,7.0514,7.3353,7.2629,7.2213,7.2136,6.8475,6.5474,0.0,0.0,0.0,0.0,0.0,0.0,0.0,0.0,0.0,0.0,0.0,0.0,0.0,0.0,0.0,0.0,0.0,0.0,0.0,0.0,0.0,0.0,0.0,0.0,0.0,0.0,0.0,0.0,0.0,0.0,0.0,0.0,0.0,0.0,0.0,0.0,0.0,0.0,0.0,0.0,6.382,6.432,6.3512,0.0,0.0,0.0,0.0,0.0,0.0,6.1479,6.1479,0.0,0.0,0.0,0.0,0.0,0.0,0.0,0.0,0.0,0.0,0.0,0.0,0.0,0.0,0.0,0.0,0.0,0.0,0.0,0.0,0.0,0.0,0.0,0.0,0.0,0.0,0.0,0.0,0.0,0.0,0.0,0.0,0.0,0.0,0.0,0.0,0.0,0.0,0.0,0.0,0.0,0.0,0.0,0.0,0.0,0.0,0.0,0.0,0.0,0.0,0.0,0.0,0.0,0.0,0.0,6.6359,6.9398,7.1898,7.3853,7.2976,7.2476,7.2399,6.8359,6.5243,0.0,0.0,0.0,0.0,0.0,0.0,0.0,0.0,0.0,0.0,0.0,0.0,0.0,0.0,0.0,0.0,0.0,0.0,0.0,0.0,0.0,0.0,0.0,0.0,0.0,0.0,0.0,0.0,0.0,0.0,0.0,0.0,0.0,0.0,0.0,0.0,0.0,0.0,0.0,0.0,0.0,6.5397,6.4705,6.4897,0.0,0.0,0.0,0.0,6.2127,6.2826,0.0,0.0,0.0,0.0,0.0,0.0,0.0,0.0,0.0,0.0,0.0,0.0,0.0,0.0,0.0,0.0,0.0,0.0,0.0,0.0,0.0,0.0,0.0,0.0,0.0,0.0,0.0,0.0,0.0,0.0,0.0,0.0,0.0,0.0,0.0,0.0,0.0,0.0,0.0,0.0,0.0,0.0,0.0,0.0,0.0,0.0,0.0,0.0,0.0,0.0,0.0,0.0,0.0,0.0,0.0,0.0,6.7968,6.9937,7.2476,7.5476,7.4161,7.3353,7.3315,6.9206,6.5782,0.0,0.0,0.0,0.0,0.0,0.0,0.0,0.0,0.0,0.0,0.0,0.0,0.0,0.0,0.0,0.0,0.0,0.0,0.0,0.0,0.0,0.0,0.0,0.0,0.0,0.0,0.0,0.0,0.0,0.0,0.0,0.0,0.0,0.0,0.0,0.0,0.0,0.0,0.0,0.0,0.0,6.8013,6.5013,6.5859,6.6513,0.0,0.0,6.5673,6.6288,6.7128,0.0,0.0,0.0,0.0,0.0,0.0,0.0,0.0,0.0,0.0,0.0,0.0,0.0,0.0,0.0,0.0,0.0,0.0,0.0,0.0,0.0,0.0,0.0,0.0,0.0,0.0,0.0,0.0,0.0,0.0,0.0,0.0,0.0,0.0,0.0,0.0,0.0,0.0,0.0,0.0,0.0,0.0,0.0,0.0,0.0,0.0,0.0,0.0,0.0,0.0,0.0,0.0,0.0,0.0,0.0,6.5013,6.9052,7.1706,7.4245,7.6592,7.5053,7.3969,7.3507,6.8898,6.5211,0.0,0.0,0.0,0.0,0.0,0.0,0.0,0.0,0.0,0.0,0.0,0.0,0.0,0.0,0.0,0.0,0.0,0.0,0.0,0.0,0.0,0.0,0.0,0.0,0.0,0.0,0.0,0.0,0.0,0.0,0.0,0.0,0.0,0.0,0.0,0.0,0.0,0.0,0.0,0.0,0.0,0.0,6.7552,6.8129,0.0,0.0,0.0,6.7436,6.7782,0.0,0.0,0.0,0.0,0.0,0.0,0.0,0.0,0.0,0.0,0.0,0.0,0.0,0.0,0.0,0.0,0.0,0.0,0.0,0.0,0.0,0.0,0.0,0.0,0.0,0.0,0.0,0.0,0.0,0.0,0.0,0.0,0.0,0.0,0.0,0.0,0.0,0.0,0.0,0.0,0.0,0.0,0.0,0.0,0.0,0.0,0.0,0.0,0.0,0.0,0.0,0.0,0.0,0.0,0.0,0.0,0.0,6.9667,7.3206,7.5861,7.7484,7.5899,7.4661,7.3738,6.9084,0.0,0.0,0.0,0.0,0.0,0.0,0.0,0.0,0.0,0.0,0.0,0.0,0.0,0.0,0.0,0.0,0.0,0.0,0.0,0.0,0.0,0.0,0.0,0.0,0.0,0.0,0.0,5.2477,0.0,0.0,0.0,0.0,0.0,0.0,0.0,0.0,0.0,0.0,0.0,0.0,0.0,0.0,6.8866,7.0129,7.086,7.1283,0.0,0.0,7.0238,7.0007,7.036,6.9706,0.0,0.0,0.0,0.0,0.0,0.0,0.0,0.0,0.0,0.0,0.0,0.0,0.0,0.0,0.0,0.0,0.0,0.0,0.0,0.0,0.0,0.0,0.0,0.0,0.0,0.0,0.0,0.0,5.467,5.6055,0.0,0.0,0.0,0.0,0.0,0.0,0.0,0.0,0.0,0.0,0.0,0.0,0.0,0.0,0.0,0.0,0.0,0.0,0.0,0.0,0.0,0.0,0.0,0.0,6.6282,6.9706,7.3783,7.6707,7.8292,7.6784,7.5476,7.4584,7.0468,6.666,0.0,0.0,0.0,0.0,0.0,0.0,0.0,0.0,0.0,0.0,0.0,0.0,0.0,0.0,0.0,0.0,0.0,0.0,0.0,0.0,0.0,0.0,0.0,0.0,0.0,0.0,0.0,0.0,0.0,0.0,0.0,0.0,0.0,0.0,0.0,0.0,0.0,0.0,0.0,0.0,0.0,7.1905,7.2021,7.4053,7.5553,0.0,7.5515,7.5207,7.4392,7.563,7.4784,6.9161,0.0,0.0,0.0,0.0,0.0,0.0,0.0,0.0,0.0,0.0,0.0,0.0,0.0,0.0,0.0,0.0,0.0,0.0,0.0,0.0,0.0,0.0,0.0,0.0,0.0,5.6665,5.7434,0.0,5.7511,0.0,0.0,0.0,0.0,0.0,0.0,0.0,0.0,0.0,0.0,0.0,0.0,0.0,0.0,0.0,0.0,0.0,0.0,0.0,0.0,0.0,0.0,0.0,0.0,6.7051,7.0437,7.463,7.7592,7.9169,7.813,7.6907,7.5515,7.2437,6.8667,0.0,0.0,0.0,0.0,0.0,0.0,0.0,0.0,0.0,0.0,0.0,0.0,0.0,0.0,0.0,0.0,0.0,0.0,0.0,0.0,0.0,0.0,0.0,0.0,0.0,0.0,0.0,0.0,5.8319,5.8748,5.9286,0.0,0.0,0.0,0.0,0.0,0.0,0.0,0.0,0.0,0.0,7.2944,7.506,7.6176,0.0,0.0,7.713,7.6861,7.7015,7.6707,7.5553,7.2738,7.1706,0.0,0.0,0.0,0.0,0.0,0.0,0.0,0.0,0.0,0.0,0.0,0.0,0.0,0.0,0.0,0.0,0.0,0.0,0.0,0.0,0.0,0.0,0.0,0.0,0.0,0.0,5.866,5.866,0.0,0.0,0.0,0.0,0.0,0.0,0.0,0.0,0.0,0.0,0.0,0.0,0.0,0.0,0.0,0.0,0.0,0.0,0.0,0.0,0.0,0.0,0.0,0.0,6.8167,7.1283,7.5745,7.8746,8.0162,7.9323,7.8207,7.6746,7.4284,7.0667,0.0,0.0,0.0,0.0,0.0,0.0,0.0,0.0,0.0,0.0,0.0,0.0,0.0,0.0,0.0,0.0,0.0,0.0,0.0,0.0,0.0,0.0,0.0,0.0,0.0,0.0,0.0,0.0,5.9896,6.0242,6.1095,0.0,0.0,0.0,0.0,0.0,0.0,0.0,0.0,0.0,0.0,7.4784,7.763,7.8284,7.8631,7.9215,7.883,7.8554,7.883,7.813,7.6976,7.5361,0.0,0.0,0.0,0.0,0.0,0.0,0.0,0.0,0.0,0.0,0.0,0.0,0.0,0.0,0.0,0.0,0.0,0.0,0.0,0.0,0.0,0.0,0.0,0.0,0.0,0.0,0.0,5.9511,0.0,0.0,5.839,0.0,0.0,0.0,0.0,0.0,0.0,0.0,0.0,0.0,0.0,0.0,0.0,0.0,0.0,0.0,0.0,0.0,0.0,0.0,0.0,0.0,0.0,6.959,7.2175,7.713,8.0169,8.1016,8.0239,7.9323,7.8407,7.5976,7.2661,6.8391,0.0,0.0,0.0,0.0,0.0,0.0,0.0,0.0,0.0,0.0,0.0,0.0,0.0,0.0,0.0,0.0,0.0,0.0,0.0,0.0,0.0,0.0,0.0,0.0,0.0,0.0,6.0748,6.0781,6.1133,0.0,0.0,0.0,0.0,0.0,0.0,0.0,0.0,0.0,7.3084,7.5592,7.7784,7.9515,8.0477,8.0977,8.1054,8.1016,8.0746,7.9969,8.0439,7.9862,0.0,0.0,0.0,0.0,0.0,0.0,0.0,0.0,0.0,0.0,0.0,0.0,0.0,0.0,0.0,0.0,0.0,0.0,0.0,0.0,0.0,0.0,0.0,0.0,0.0,0.0,0.0,6.532,6.382,0.0,0.0,0.0,0.0,0.0,0.0,0.0,0.0,0.0,0.0,0.0,7.2276,7.3668,0.0,0.0,0.0,0.0,0.0,0.0,0.0,0.0,0.0,0.0,0.0,0.0,6.993,7.3091,7.7507,8.0239,8.1054,8.0823,8.0246,7.9361,7.7977,7.4745,6.9436,0.0,0.0,0.0,0.0,0.0,0.0,0.0,0.0,0.0,0.0,0.0,0.0,0.0,0.0,0.0,0.0,0.0,0.0,0.0,0.0,0.0,0.0,0.0,0.0,0.0,6.0781,0.0,0.0,0.0,0.0,0.0,0.0,0.0,0.0,0.0,0.0,7.0129,7.2514,7.563,7.7215,7.8907,8.1131,8.1708,8.2093,0.0,0.0,0.0,0.0,0.0,0.0,0.0,0.0,0.0,0.0,0.0,0.0,0.0,7.8938,7.7561,7.1937,7.0437,7.0052,7.009,0.0,0.0,0.0,0.0,0.0,0.0,0.0,0.0,0.0,0.0,0.0,0.0,0.0,0.0,6.909,6.809,6.7789,0.0,0.0,0.0,0.0,0.0,0.0,0.0,0.0,7.513,7.67,7.7053,7.8707,7.8484,7.6669,7.633,7.329,0.0,0.0,0.0,0.0,0.0,0.0,0.0,0.0,7.1238,7.4399,7.8238,8.0554,8.1054,8.1093,8.0823,8.0239,7.8823,7.5861,7.1161,6.7737,6.4897,0.0,0.0,0.0,0.0,0.0,0.0,0.0,0.0,0.0,0.0,0.0,0.0,0.0,0.0,0.0,0.0,0.0,0.0,0.0,0.0,0.0,0.0,0.0,6.1666,0.0,0.0,0.0,0.0,0.0,0.0,0.0,0.0,0.0,7.2052,7.3591,7.6015,7.91,7.9946,8.11,8.3324,0.0,0.0,0.0,0.0,0.0,0.0,0.0,8.3362,8.3593,8.2978,8.2439,8.2401,8.3093,8.3516,8.3285,0.0,0.0,7.6438,7.4822,7.4514,7.4822,7.463,7.4514,7.4822,7.4861,7.4861,0.0,0.0,0.0,0.0,7.3738,0.0,0.0,0.0,7.2675,7.2636,0.0,7.1552,0.0,0.0,0.0,0.0,6.7712,7.236,0.0,0.0,8.0323,8.2832,8.364,8.3755,8.4209,8.497,8.4055,8.1908,7.8446,7.2937,6.909,0.0,0.0,0.0,0.0,0.0,7.3598,7.613,7.9477,8.117,8.117,8.117,8.1131,8.1016,7.8715,7.6245,7.3738,7.1975,6.9513,6.6244,6.4468,0.0,0.0,0.0,0.0,0.0,0.0,0.0,0.0,0.0,0.0,0.0,0.0,0.0,0.0,0.0,0.0,0.0,0.0,0.0,0.0,6.2858,0.0,0.0,0.0,0.0,0.0,0.0,0.0,0.0,0.0,7.8977,7.6784,7.8477,8.0862,8.3293,0.0,0.0,0.0,0.0,8.5286,8.6132,8.6209,8.6247,8.6286,8.6901,8.7094,8.6324,0.0,0.0,8.5286,8.5662,8.5901,8.517,8.567,8.567,8.3947,8.2093,8.1323,8.1939,8.14,8.1439,8.2054,8.1631,8.1823,8.3978,0.0,0.0,0.0,0.0,7.8277,7.9246,8.1208,8.0592,7.9323,7.7592,7.6714,0.0,0.0,0.0,0.0,0.0,0.0,7.74,8.0516,8.2408,8.4678,8.7218,8.7825,8.8248,8.8432,8.7632,8.6102,8.3862,8.1023,7.6022,6.909,0.0,0.0,0.0,0.0,7.6784,7.8746,8.1477,8.2601,8.1977,8.1939,8.167,8.1131,7.9823,7.8438,7.7092,7.5438,7.3245,7.0514,6.8783,0.0,0.0,0.0,0.0,0.0,0.0,0.0,0.0,0.0,0.0,0.0,0.0,0.0,0.0,0.0,0.0,0.0,0.0,0.0,6.3743,6.4089,6.5199,0.0,0.0,0.0,0.0,0.0,0.0,0.0,0.0,0.0,8.3978,8.3708,8.3931,0.0,0.0,8.5786,8.6863,8.6824,8.7209,8.8585,8.8816,0.0,8.9663,8.894,8.844,8.8778,8.8556,8.8179,8.7679,8.7786,8.7872,8.7632,8.7786,8.7786,8.7294,8.5863,8.4632,8.4239,8.3939,8.367,8.3293,8.3216,8.3247,9.0902,8.6401,8.4247,8.3632,8.4055,8.3555,8.4324,8.5863,8.5324,8.4247,8.2747,8.19,7.9746,7.6638,7.513,0.0,0.0,0.0,8.0939,8.4324,8.5217,8.7064,8.9671,9.0556,9.1086,9.1317,9.0248,8.9133,8.8094,8.6094,8.1939,7.5861,0.0,7.3944,7.3976,7.6823,7.9131,8.0785,8.2639,8.3332,8.2824,8.2477,8.19,8.1131,8.0592,7.99,7.9054,7.8054,7.6476,7.4329,7.2283,6.9821,0.0,0.0,0.0,0.0,0.0,0.0,0.0,0.0,0.0,0.0,0.0,6.5359,6.3051,0.0,0.0,0.0,6.4897,6.6282,6.7975,6.9013,0.0,0.0,0.0,0.0,0.0,0.0,0.0,8.2901,8.5478,8.7564,8.8748,8.8594,8.8325,8.8171,8.8132,8.844,8.9286,0.0,8.9863,9.121,9.1402,9.1595,9.2095,9.1325,9.0864,9.1325,9.1018,9.0719,9.068,9.068,9.068,9.0671,9.068,9.0603,9.0257,8.9325,8.8094,8.6709,8.6132,8.5709,8.5217,8.4824,8.4593,9.6749,9.4951,9.1026,8.9257,8.9026,8.9026,8.8564,8.7902,8.7902,8.7863,8.7748,8.6901,8.5555,8.3747,8.14,0.0,8.167,8.317,8.5247,8.7748,8.8526,8.9825,9.1518,9.2326,9.3133,9.3864,9.2249,9.1441,9.1171,8.8863,8.6863,8.5132,8.1293,7.9177,7.8946,7.99,8.117,8.267,8.3601,8.3947,8.3793,8.2824,8.1939,8.1208,8.1131,8.0708,7.9969,7.9892,7.9169,7.7522,7.513,7.2622,7.009,0.0,0.0,0.0,0.0,0.0,0.0,0.0,0.0,0.0,0.0,0.0,0.0,0.0,0.0,6.8814,7.0321,0.0,7.3738,7.6053,0.0,0.0,0.0,8.04,8.0662,8.4132,8.6555,8.6594,0.0,0.0,9.1595,9.2826,9.321,9.171,9.1441,9.1672,9.2479,9.2518,9.2903,9.3557,9.3796,9.3787,9.3864,9.371,9.3518,9.348,9.3672,9.3518,9.348,9.3518,9.3642,9.348,9.3672,9.3403,9.271,9.2402,9.1864,8.941,8.8248,8.7555,8.7363,8.6824,8.6324,9.8875,9.775,9.6095,9.3941,9.1642,9.1595,9.1825,9.221,9.221,9.1864,9.121,9.0364,8.8709,8.6401,8.517,8.5055,8.5901,8.6324,8.7863,9.0248,9.0517,9.1825,9.4066,9.4335,9.4874,9.5595,9.4595,9.345,9.2172,9.0941,8.944,8.7833,8.6756,8.4986,8.2562,8.4516,8.5786,8.617,8.7064,8.6871,8.5517,8.3401,8.2208,8.2016,8.14,8.1016,8.0785,8.0785,8.0323,7.9208,7.74,7.5245,7.2699,6.9353,0.0,0.0,0.0,0.0,0.0,0.0,0.0,0.0,0.0,7.186,6.7173,0.0,7.3668,0.0,7.3822,7.5476,7.7138,7.8438,0.0,0.0,8.4362,8.5624,8.8209,8.9363,9.0248,9.0902,9.2402,9.3604,9.4027,9.445,9.4566,9.4143,9.3518,9.3172,9.3403,9.3403,9.371,9.4489,9.4681,9.4951,9.5441,9.5095,9.445,9.3787,9.371,9.3672,9.371,9.3672,9.3672,9.3672,9.3672,9.3595,9.3441,9.3403,9.2979,9.1787,9.0364,8.9094,8.8517,8.8218,8.8064,10.0712,9.9827,9.9019,9.7365,9.5249,9.4518,9.421,9.4296,9.4296,9.3796,9.3018,9.2518,9.1133,8.9094,8.8594,8.8632,8.9056,8.9094,9.0248,9.2287,9.271,9.3642,9.4989,9.5403,9.5826,9.6288,9.5403,9.4527,9.3604,9.2749,9.1825,9.0949,9.0556,8.944,8.7641,8.7833,8.7979,8.7979,8.8449,8.8055,8.6709,8.4901,8.3632,8.2862,8.2093,8.1477,8.1093,8.1093,8.0708,7.9823,7.8561,7.6861,7.47,7.2122,6.9853,0.0,0.0,0.0,0.0,0.0,0.0,0.0,0.0,0.0,0.0,0.0,7.7623,7.7438,7.9277,8.1323,8.3362,8.4709,8.6401,8.8709,8.9286,9.0094,9.1633,9.2441,9.3056,9.3557,9.4326,9.5018,9.5518,9.5605,9.5557,9.5557,9.5172,9.4711,9.4403,9.4595,9.5057,9.5518,9.5595,9.5711,9.6249,9.5903,9.5403,9.498,9.4864,9.4864,9.4864,9.4864,9.4864,9.4864,9.4864,9.4711,9.4373,9.4296,9.3903,9.2749,9.2056,9.1056,8.9556,8.8949,8.8679,10.2433,10.1404,10.0596,9.975,9.8836,9.7288,9.6134,9.5297,9.522,9.4758,9.4018,9.3903,9.3056,9.1672,9.1595,9.1518,9.1518,9.1518,9.2364,9.3873,9.4643,9.5066,9.5181,9.5942,9.6288,9.6249,9.5518,9.5104,9.4989,9.422,9.3787,9.3681,9.2979,9.2672,9.2556,9.0449,8.9334,8.9334,8.9257,8.8756,8.7902,8.694,8.5632,8.3986,8.2978,8.2093,8.1285,8.1246,8.09,8.0169,7.94,7.8292,7.6707,7.5053,7.3707,0.0,7.2675,0.0,0.0,0.0,0.0,0.0,0.0,0.0,0.0,8.0362,8.1816,8.317,8.5593,8.794,9.0047,9.171,9.271,9.2826,9.3441,9.3633,9.3133,9.4296,9.5143,9.5181,9.5903,9.6442,9.6442,9.648,9.6442,9.6442,9.6249,9.5903,9.5412,9.5749,9.6172,9.6288,9.6288,9.6211,9.6288,9.6288,9.6249,9.6249,9.6172,9.6288,9.6211,9.6211,9.6249,9.6249,9.6172,9.598,9.5297,9.5181,9.4634,9.3258,9.3373,9.2979,9.0902,8.9863,8.9218,10.4356,10.2289,10.1404,10.0596,9.976,9.8759,9.7827,9.698,9.6326,9.598,9.5749,9.5066,9.4604,9.422,9.3566,9.321,9.321,9.321,9.3787,9.4758,9.4912,9.5374,9.6057,9.6211,9.6288,9.6288,9.6134,9.5711,9.4989,9.4835,9.4412,9.371,9.3566,9.348,9.3441,0.0,0.0,0.0,9.2095,9.1364,9.0479,8.8979,8.7363,8.567,8.417,0.0,8.2131,8.2093,8.1977,8.1823,8.167,0.0,0.0,0.0,0.0,0.0,0.0,0.0,0.0,0.0,0.0,0.0,8.3324,8.2401,8.1785,8.6132,8.8902,8.8585,9.0787,9.2172,9.2056,9.2903,9.3758,9.445,9.4681,9.4951,9.548,9.5865,9.6057,9.6057,9.6788,9.725,9.7288,9.725,9.7288,9.7211,9.6711,9.6249,9.6095,9.6211,9.6288,9.6288,9.6288,9.6288,9.6288,9.6288,9.6288,9.6288,9.6288,9.6288,9.6288,9.6288,9.6288,9.6288,9.6288,9.6249,9.6057,9.6057,9.5672,9.4681,9.4643,9.422,9.2402,9.1902,9.1787,10.5626,10.4366,10.3097,10.2366,0.0,10.0596,9.9788,9.925,9.7596,9.6673,9.6288,9.5826,9.5403,9.4989,9.4527,9.4335,9.4335,9.4335,9.4797,9.5634,9.5634,9.5865,9.6288,9.6288,9.6288,9.6288,9.6288,9.6057,9.5672,9.5634,9.5403,9.498,9.4557,9.4335,9.4335,9.4335,9.4143,9.371,9.3287,9.2864,9.2402,9.121,8.9748,8.8017,8.6363,0.0,0.0,0.0,0.0,0.0,0.0,0.0,0.0,0.0,0.0,8.1016,8.14,8.1977,8.2824,8.367,8.5247,8.7748,8.8748,8.8517,8.6824,8.9863,9.2018,9.2402,9.3604,9.4364,9.4403,9.4749,9.5172,9.5595,9.5634,9.5826,9.6211,9.6288,9.648,9.6865,9.725,9.7673,9.8096,9.8134,9.7942,9.7596,9.7557,9.7326,9.6942,9.6557,9.6288,9.6288,9.6288,9.6288,9.6288,9.6288,9.6288,9.6288,9.6288,9.6288,9.6288,9.6288,9.6288,9.6288,9.6288,9.6288,9.6288,9.6288,9.6019,9.5297,9.5326,9.5211,9.3989,9.3403,9.2941,10.6664,10.628,10.4751,10.403,10.3789,10.2366,10.1597,10.1125,9.8596,0.0,0.0,9.6365,9.5903,9.5258,9.522,9.522,9.522,9.5258,9.5634,9.6288,9.6288,9.6288,9.6288,9.6288,9.6288,9.6288,9.6288,9.6288,9.6288,9.6288,9.6288,9.6211,9.5557,9.522,9.5211,9.522,9.4874,9.421,9.4172,9.4095,9.3912,9.3287,9.2133,9.0393,8.8863,8.7363,8.5854,8.4939,8.4178,8.3486,8.3439,8.3747,8.4447,8.464,8.5324,8.6671,8.7594,8.8132,8.8325,8.9594,9.047,9.0787,9.271,9.3364,9.1979,9.2672,9.3749,9.5143,9.5335,9.5681,9.624,9.6596,9.6673,9.6557,9.6634,9.6749,9.6749,9.6749,9.7057,9.7596,9.7904,9.8211,9.8904,9.9019,9.8788,9.8211,9.8404,9.8596,9.7827,9.725,9.6903,9.6903,9.698,9.6788,9.6557,9.6557,9.648,9.6326,9.6288,9.6288,9.6288,9.6288,9.6288,9.6288,9.6288,9.6288,9.6288,9.6288,9.6057,9.5374,9.5788,9.6095,9.5365,9.4672,9.398,10.7713,10.6318,10.5328,10.452,10.3866,10.3635,10.2674,10.1087,9.8596,9.7442,9.7288,9.6596,9.6211,9.6134,9.6134,9.6134,9.6134,9.6095,9.6172,9.6288,9.6288,9.6288,9.6288,9.6288,9.6288,9.6288,9.6288,9.6288,9.6288,9.6288,9.6288,9.6288,9.6172,9.6095,9.6134,9.6134,9.6057,9.5942,9.5942,9.5557,9.4835,9.472,9.3835,9.221,9.1171,9.021,8.9239,8.8402,8.7948,8.7795,8.7795,8.7872,8.7987,8.8594,8.9124,8.9393,9.0163,9.0979,9.171,9.2018,9.2749,9.4143,9.4604,9.472,9.4527,9.5249,9.5865,9.6134,9.6711,9.6903,9.648,9.7557,9.8057,9.748,9.798,9.8442,9.8327,9.8365,9.8404,9.8596,9.9298,9.9683,9.9875,9.9913,9.9875,9.9644,9.9183,9.8788,9.8711,9.8519,9.8442,9.8442,9.8442,9.8134,9.7519,9.7326,9.7096,9.6403,9.6403,9.6442,9.6403,9.6403,9.6365,9.6326,9.6288,9.6288,9.6288,9.6288,9.6211,9.6019,9.6211,9.6211,9.6019,9.5865,9.5557,10.9175,10.8329,10.7059,10.629,10.5905,10.4943,10.3597,10.1904,10.0289,9.875,9.7519,9.7096,9.6711,9.6326,9.6288,9.6288,9.6288,9.6288,9.6288,9.6326,9.6749,9.6942,9.6942,9.6942,9.7211,9.7596,9.6711,9.6519,9.6903,9.6519,9.6288,9.6288,9.6288,9.6288,9.6288,9.6288,9.6288,9.6288,9.6288,9.6095,9.5711,9.5711,9.5134,9.3864,9.3018,9.2172,9.1325,9.0517,9.0056,9.0056,9.0056,9.0287,9.0757,9.1095,9.1518,9.1941,9.2326,9.2941,9.3796,9.4287,9.4864,9.5634,9.5711,9.5903,9.6336,9.6711,9.698,9.698,9.7711,9.8057,9.7711,9.8327,9.8634,9.825,9.8557,9.8788,9.8788,9.8788,9.899,9.9452,9.9837,10.026,10.0673,10.075,10.0519,10.0183,9.9683,9.9644,10.0058,10.0135,9.9788,9.9019,9.8788,9.8634,9.8288,9.8211,9.8019,9.7673,9.7634,9.7442,9.7134,9.6942,9.6749,9.6403,9.6288,9.6288,9.6288,9.6288,9.6288,9.6288,9.6288,9.6288,9.6288,9.6288,9.598,11.0214,11.006,10.8406,10.7598,10.729,10.5982,10.4443,10.2866,10.2174,10.0481,9.825,9.7865,9.7442,9.6903,9.6865,9.6865,9.6865,9.6865,9.6865,9.6942,9.7519,9.7788,9.7788,9.7788,9.8134,9.8596,9.748,9.7096,9.7403,9.6865,9.648,9.6326,9.6288,9.6288,9.6288,9.6288,9.6288,9.6288,9.6288,9.6288,9.6288,9.6288,9.598,9.5335,9.4634,9.4018,9.3364,9.2518,9.2056,9.2056,9.1864,9.2172,9.2988,9.3056,9.3441,9.4172,9.4287,9.4557,9.5249,9.5942,9.6288,9.6288,9.6288,9.6634,9.7403,9.7673,9.7788,9.7904,9.8557,9.9019,9.8827,9.9211,9.9288,9.9135,9.9288,9.9442,9.9365,9.9365,9.9712,10.0491,10.0491,10.0673,10.1327,10.1394,10.1048,10.0519,10.0529,10.0943,10.1481,10.1587,10.0981,10.0096,9.9519,9.9327,9.9183,9.9106,9.899,9.8865,9.8519,9.8173,9.775,9.7557,9.7173,9.6634,9.6403,9.6326,9.6288,9.6288,9.6288,9.6288,9.6288,9.6288,9.6288,9.6288,9.6134,11.0214,10.9944,10.8444,10.7251,10.6597,10.6367,10.5328,10.3866,10.3674,10.2212,9.9952,9.9019,9.8673,9.8557,9.8528,9.8481,9.8481,9.8557,9.8519,9.8519,9.8634,9.8673,9.8673,9.8673,9.8711,9.8827,9.8596,9.8134,9.7673,9.748,9.7019,9.6365,9.6288,9.6326,9.6326,9.6326,9.6288,9.6288,9.6288,9.6288,9.6288,9.6288,9.6249,9.6172,9.6095,9.6019,9.5788,9.5095,9.4643,9.4566,9.3873,9.3873,9.4643,9.4758,9.5143,9.5942,9.6019,9.6095,9.6172,9.6249,9.6326,9.6288,9.6365,9.6749,9.7519,9.825,9.8673,9.8865,9.949,9.9635,9.9019,10.0096,10.0635,10.0058,10.0519,10.1058,10.0933,10.1096,10.1404,10.2289,10.152,10.1481,10.2135,10.1827,10.1356,10.1404,10.175,10.2174,10.2443,10.2481,10.2481,10.2058,10.1597,10.075,10.0173,9.999,9.976,9.9058,9.8211,9.8173,9.825,9.7557,9.6557,9.7134,9.6779,9.6442,9.6365,9.6288,9.6288,9.6288,9.6288,9.6288,9.6288,9.6288,9.6172,11.1406,11.0868,10.9675,10.8675,10.7829,10.6828,10.5713,10.4646,10.4607,10.3761,10.2414,10.1943,10.0712,9.8827,9.8788,9.8788,9.8788,9.8788,9.8788,9.8875,9.9336,9.9567,9.9567,9.9567,9.9788,10.0135,9.9288,9.8913,9.8942,9.8519,9.8096,9.7827,9.7788,9.7519,9.7057,9.7019,9.6788,9.6326,9.6288,9.6288,9.6288,9.6288,9.6288,9.6288,9.6288,9.6288,9.6249,9.5942,9.5749,9.5749,9.5441,9.5403,9.5749,9.5749,9.5903,9.6249,9.6288,9.6288,9.6326,9.6749,9.7019,9.7019,9.748,9.8134,9.8942,9.9375,9.975,10.025,10.0596,10.0635,10.0366,10.0904,10.1164,10.0904,10.1096,10.1279,10.1279,10.1279,10.1471,10.1741,10.151,10.1635,10.2327,10.2289,10.2327,10.2597,10.2828,10.2828,10.3251,10.3366,10.3366,10.3251,10.2635,10.1789,10.1019,10.0827,10.0596,10.0327,10.0019,9.9827,9.8788,9.8913,9.8442,9.775,9.7288,9.7057,9.7057,9.6557,9.6288,9.6288,9.6288,9.6288,9.6288,9.6288,9.6288,11.2357,11.1714,11.0675,10.956,10.8482,10.729,10.6097,10.5184,10.5107,10.4646,10.3905,10.3905,10.2558,10.0404,9.9942,9.9712,9.9481,9.9481,9.9481,9.9558,10.0135,10.0529,10.076,10.0798,10.1096,10.1366,10.0442,9.9942,10.0029,9.9221,9.8788,9.8788,9.8788,9.8481,9.7904,9.7865,9.7557,9.7019,9.6788,9.6634,9.6634,9.6403,9.6288,9.6288,9.6288,9.6288,9.6288,9.6288,9.6288,9.6288,9.6288,9.6288,9.6288,9.6288,9.6288,9.6326,9.6519,9.6634,9.6625,9.7403,9.775,9.7596,9.8327,9.9058,9.9644,9.9952,10.0442,10.1125,10.1279,10.1241,10.1279,10.1279,10.1279,10.1279,10.1279,10.1279,10.1279,10.1279,10.1394,10.1597,10.1779,10.1981,10.2712,10.2981,10.3174,10.3597,10.3558,10.3443,10.4059,10.4222,10.4212,10.4174,10.3482,10.2674,10.1866,10.1366,10.1356,10.1202,10.0981,10.0366,9.9481,9.9904,9.9875,9.8596,9.8134,9.7673,9.7403,9.6903,9.6442,9.6326,9.6288,9.6288,9.6288,9.6288,9.6288,11.2676,11.2406,11.0868,10.9329,10.7752,10.7675,10.6674,10.53,10.5184,10.4684,10.4059,10.3982,10.3828,10.3482,10.2674,10.1981,10.1241,10.1202,10.1202,10.1202,10.1289,10.1712,10.2443,10.2481,10.252,10.252,10.2251,10.1443,10.0183,9.9298,9.8788,9.8865,9.8942,9.8827,9.875,9.875,9.8711,9.8442,9.7827,9.7442,9.7365,9.6749,9.6403,9.6442,9.6288,9.6288,9.6288,9.6288,9.6288,9.6288,9.6365,9.6326,9.6365,9.6355,9.6403,9.6442,9.7057,9.7442,9.7557,9.825,9.8442,9.7865,9.8519,9.8904,9.9259,9.9837,10.0519,10.1202,10.1279,10.1279,10.1394,10.1356,10.1356,10.1394,10.1317,10.1317,10.1356,10.1356,10.1702,10.2212,10.2443,10.2828,10.3674,10.3866,10.3905,10.4174,10.452,10.4943,10.4982,10.5059,10.5059,10.4905,10.4366,10.352,10.2712,10.2212,10.1664,10.1548,10.1443,10.0529,10.0366,10.0212,9.9865,9.949,9.9067,9.8519,9.7788,9.725,9.6865,9.6596,9.6326,9.6288,9.6288,9.6288,9.6288,11.3676,11.2599,11.1483,11.0367,10.9252,10.8175,10.7328,10.6751,10.6136,10.579,10.552,10.552,10.5174,10.4674,10.4366,10.3751,10.302,10.2981,10.2981,10.2943,10.2981,10.3135,10.3366,10.3405,10.3443,10.3366,10.2866,10.202,10.0981,10.0519,10.0404,10.0404,10.0404,10.0173,9.9721,9.9644,9.9375,9.8827,9.8481,9.8327,9.8327,9.8019,9.7904,9.7827,9.6826,9.6288,9.6288,9.6288,9.6557,9.7057,9.7057,9.7326,9.7827,9.7904,9.7904,9.7904,9.8173,9.8327,9.8442,9.9144,9.9529,9.9288,9.9942,10.0327,10.0442,10.0673,10.0981,10.1241,10.1279,10.1471,10.1904,10.1625,10.152,10.1943,10.1625,10.1587,10.1866,10.1664,10.1433,10.1866,10.2635,10.3597,10.3943,10.4328,10.4866,10.5366,10.529,10.5405,10.5828,10.5905,10.5867,10.579,10.5213,10.4559,10.4289,10.352,10.2943,10.2751,10.2404,10.1635,10.125,10.101,10.0712,10.0106,9.9721,9.9336,9.8596,9.748,9.7134,9.6788,9.6519,9.648,9.6288,9.6365,9.6326,11.4445,11.3099,11.2252,11.1406,11.0483,10.9098,10.8175,10.7675,10.7098,10.6664,10.6433,10.6395,10.6059,10.5597,10.552,10.5251,10.4636,10.4174,10.3866,10.3905,10.3905,10.402,10.4251,10.4299,10.4289,10.4174,10.3443,10.2712,10.2174,10.1866,10.1702,10.1712,10.1712,10.1443,10.0981,10.0914,10.0673,10.0375,9.9673,9.9327,9.9481,9.9058,9.8788,9.8634,9.7673,9.698,9.6711,9.6942,9.7173,9.748,9.775,9.8211,9.8711,9.8788,9.8788,9.8788,9.9058,9.9211,9.9336,10.0019,10.0375,10.0144,10.0789,10.125,10.0971,10.1125,10.1279,10.1317,10.1635,10.202,10.2366,10.2327,10.2404,10.2866,10.2481,10.2366,10.2866,10.252,10.2366,10.2789,10.3635,10.4328,10.4713,10.5174,10.5867,10.6703,10.6097,10.5905,10.6597,10.6549,10.6395,10.6356,10.5905,10.5597,10.5405,10.4905,10.3982,10.3674,10.3405,10.2674,10.2097,10.1818,10.1404,10.075,10.0298,9.9942,9.9173,9.798,9.7403,9.7096,9.6942,9.6942,9.6711,9.648,9.6403,11.483,11.3945,11.306,11.2252,11.1406,11.0406,10.9213,10.8021,10.7752,10.7251,10.6626,10.6472,10.6433,10.6318,10.6241,10.628,10.5933,10.4789,10.4174,10.4135,10.4135,10.4482,10.5059,10.5097,10.5059,10.4953,10.4251,10.3866,10.3635,10.2943,10.2597,10.2597,10.2597,10.2558,10.2558,10.252,10.2904,10.2904,10.1375,10.0673,10.1019,9.9981,9.9288,9.9173,9.9058,9.8634,9.7711,9.8288,9.8327,9.7865,9.8404,9.8798,9.8981,9.9019,9.8904,9.9135,9.9683,10.0067,10.0183,10.0789,10.0866,10.0481,10.0904,10.1019,10.0635,10.0943,10.1279,10.1394,10.202,10.2597,10.2789,10.3366,10.3789,10.3915,10.3712,10.3635,10.3828,10.3866,10.4135,10.4607,10.4953,10.5443,10.6059,10.6328,10.6674,10.7021,10.6751,10.6482,10.7059,10.6741,10.6433,10.6395,10.6251,10.6097,10.6203,10.6241,10.529,10.4482,10.4135,10.3635,10.3058,10.2674,10.2058,10.1443,10.0673,10.0289,9.9837,9.875,9.8404,9.8096,9.7827,9.7365,9.7096,9.6826,9.6442,11.5649,11.483,11.3945,11.3099,11.2175,11.0791,10.9867,10.9367,10.879,10.8059,10.7405,10.729,10.6982,10.6472,10.6395,10.6395,10.6318,10.5828,10.5636,10.5597,10.5597,10.5713,10.5944,10.602,10.5674,10.5146,10.4866,10.4443,10.3982,10.3635,10.3482,10.3482,10.3482,10.3482,10.3482,10.3482,10.3674,10.3751,10.3145,10.2866,10.3058,10.2558,10.2289,10.2327,10.2327,10.1635,10.0202,9.9288,9.899,9.9221,9.9567,9.9942,10.0404,10.051,10.0519,10.0558,10.075,10.0904,10.0943,10.1125,10.1202,10.1019,10.1164,10.1202,10.0981,10.1135,10.1317,10.1394,10.2097,10.2789,10.3482,10.4212,10.4723,10.4713,10.4261,10.4212,10.4607,10.4299,10.4069,10.4376,10.529,10.5828,10.5867,10.6328,10.7059,10.6895,10.6597,10.6587,10.6703,10.6664,10.6395,10.6395,10.6395,10.6395,10.6395,10.6395,10.5905,10.529,10.4982,10.452,10.3982,10.3251,10.2674,10.1904,10.1135,10.0635,10.0144,9.9721,9.9327,9.875,9.8211,9.7827,9.748,9.7211,9.6903,11.6226,11.5676,11.483,11.4176,11.3483,11.1868,11.0944,11.056,10.9752,10.8752,10.7867,10.7675,10.7251,10.651,10.6395,10.6395,10.6433,10.6713,10.6905,10.6895,10.6895,10.6895,10.6944,10.7213,10.7098,10.6559,10.6213,10.579,10.529,10.4674,10.4376,10.4338,10.4338,10.4328,10.4405,10.4674,10.4828,10.4789,10.4482,10.4328,10.4289,10.402,10.3905,10.3866,10.3866,10.3174,10.1818,10.075,10.0183,10.0183,10.0375,10.0789,10.1241,10.1241,10.1279,10.1279,10.1279,10.1279,10.1279,10.1279,10.1279,10.1279,10.1279,10.1279,10.1356,10.151,10.1789,10.1894,10.2866,10.3751,10.4328,10.5097,10.5559,10.5559,10.5174,10.5059,10.5405,10.5136,10.5136,10.5482,10.602,10.6174,10.6444,10.6405,10.7213,10.6867,10.6587,10.6587,10.6674,10.6587,10.6472,10.6395,10.6395,10.6395,10.6395,10.6395,10.6395,10.6087,10.5867,10.5328,10.4789,10.3866,10.3097,10.202,10.1173,10.1058,10.0635,10.0404,10.0058,9.9365,9.8904,9.8827,9.8711,9.8019,9.7673,11.6484,11.638,11.5638,11.5215,11.4907,11.3291,11.2137,11.1472,11.0637,10.9406,10.8213,10.8059,10.7444,10.6674,10.6703,10.6741,10.6636,10.7405,10.7752,10.779,10.7867,10.7905,10.7867,10.8329,10.8482,10.8444,10.7944,10.7675,10.7405,10.6213,10.5338,10.5531,10.5607,10.5377,10.5674,10.6174,10.6472,10.6251,10.5674,10.5328,10.5184,10.452,10.4174,10.4174,10.4174,10.3789,10.2981,10.2404,10.1635,10.0529,10.0866,10.1202,10.1279,10.1279,10.1279,10.1279,10.1279,10.1394,10.1356,10.151,10.1587,10.1712,10.1702,10.1433,10.1789,10.2327,10.2674,10.2751,10.3982,10.4953,10.5136,10.579,10.6241,10.6433,10.6367,10.6444,10.6521,10.6559,10.679,10.729,10.7098,10.6828,10.7521,10.7136,10.729,10.7136,10.6905,10.7021,10.6933,10.6741,10.6472,10.6395,10.6395,10.6395,10.6395,10.6395,10.6395,10.6318,10.6203,10.5905,10.5405,10.452,10.3405,10.2327,10.151,10.1394,10.1241,10.1019,10.0866,10.0548,10.0327,10.0212,9.9644,9.8827,9.8365,11.6484,11.6418,11.5649,11.5303,11.5061,11.3445,11.2599,11.2291,11.1522,11.0444,10.9637,10.956,10.8675,10.7482,10.7944,10.7944,10.7675,10.8213,10.8598,10.8713,10.929,10.9098,10.8713,10.879,10.8983,10.8983,10.879,10.8598,10.8559,10.7982,10.7752,10.7905,10.7675,10.779,10.7982,10.8059,10.7905,10.7444,10.7175,10.6674,10.6097,10.5867,10.5751,10.5751,10.5674,10.5251,10.4405,10.3212,10.2135,10.1135,10.1135,10.1279,10.1279,10.1279,10.1279,10.1317,10.1356,10.1597,10.2097,10.2251,10.252,10.3135,10.302,10.3212,10.3212,10.3405,10.3558,10.3712,10.453,10.5146,10.5251,10.5944,10.6597,10.7251,10.7405,10.7598,10.7982,10.8252,10.8367,10.8559,10.8829,10.8598,10.8175,10.8367,10.8367,10.7367,10.7164,10.7175,10.7098,10.6905,10.6587,10.6433,10.6395,10.6395,10.6395,10.6395,10.6395,10.6395,10.6318,10.628,10.5828,10.5251,10.402,10.2751,10.2251,10.202,10.1866,10.1673,10.1625,10.1279,10.0827,10.0337,9.9952,9.9288,9.8981,11.6484,11.6457,11.5995,11.5803,11.5599,11.3984,11.3253,11.3022,11.1972,11.1021,11.0329,11.0214,10.9483,10.8329,10.8675,10.8675,10.8367,10.906,10.9406,10.9675,11.0675,11.0944,11.056,11.0252,11.0175,11.0406,10.9752,10.9483,10.9367,10.9098,10.8906,10.879,10.8906,10.8906,10.879,10.929,10.9021,10.8444,10.8482,10.8213,10.7059,10.6944,10.6944,10.6828,10.6626,10.5982,10.502,10.3482,10.2212,10.151,10.1279,10.1279,10.1279,10.1279,10.1279,10.1317,10.1635,10.2087,10.252,10.2904,10.3366,10.3751,10.3905,10.3905,10.3943,10.4174,10.4405,10.4482,10.5174,10.5559,10.579,10.6444,10.729,10.8059,10.8521,10.879,10.8944,10.8829,10.906,10.9367,10.9521,10.956,10.8713,10.9367,10.8867,10.8059,10.8021,10.7675,10.729,10.7021,10.679,10.6626,10.6433,10.6395,10.6395,10.6395,10.6395,10.6395,10.6741,10.6664,10.602,10.5597,10.4636,10.352,10.2981,10.2597,10.252,10.2174,10.151,10.1164,10.075,10.0673,10.0442,10.025,9.9865,11.6484,11.6484,11.6484,11.6484,11.6176,11.4753,11.3907,11.3637,11.2214,11.1098,11.0521,11.0367,10.9906,10.906,10.9367,10.9175,10.9098,10.9944,11.0252,11.0714,11.1598,11.2252,11.2522,11.1983,11.1868,11.1934,11.0944,11.0521,11.0252,10.9598,10.929,10.9444,10.9367,10.9252,10.956,11.0021,10.9829,10.9329,10.9598,10.9175,10.8098,10.779,10.7713,10.7444,10.6741,10.6097,10.5174,10.3866,10.2597,10.1673,10.151,10.1587,10.1587,10.1625,10.1664,10.1818,10.2404,10.2789,10.302,10.3712,10.4135,10.4328,10.4328,10.4174,10.4443,10.4905,10.5251,10.5251,10.5944,10.629,10.6636,10.7328,10.8136,10.8906,10.9713,10.9713,10.9406,10.9175,10.9483,11.0175,10.9637,10.9675,10.9713,10.9637,10.9098,10.8559,10.8636,10.8559,10.7982,10.7559,10.7213,10.6818,10.6626,10.6395,10.6395,10.6395,10.6395,10.6433,10.7059,10.7059,10.6059,10.5482,10.4943,10.4289,10.3905,10.352,10.3251,10.2674,10.1933,10.1818,10.1981,10.1827,10.1587,10.1404,10.1096,11.6484,11.6484,11.6484,11.6484,11.6226,11.4714,11.3984,11.383,11.2214,11.1357,11.1252,11.1214,11.0714,10.9944,11.0483,11.0598,11.006,11.0752,11.1214,11.1291,11.1472,11.2599,11.3407,11.3445,11.2868,11.228,11.2175,11.1791,11.1291,11.0944,11.0895,11.0857,11.0714,11.0895,11.0895,11.0906,11.0791,11.0137,11.0137,10.9713,10.8944,10.8636,10.8367,10.779,10.6944,10.6444,10.602,10.5136,10.4174,10.3405,10.2789,10.2674,10.302,10.3174,10.3174,10.3212,10.3405,10.3866,10.4443,10.4713,10.5136,10.5636,10.5636,10.5867,10.5867,10.5905,10.6059,10.6136,10.6328,10.6741,10.7367,10.8136,10.8944,10.9675,11.0098,11.0444,11.0791,11.0868,11.0895,11.1011,11.0972,11.0752,11.0329,11.0752,11.0214,10.9367,10.9213,10.9406,10.8906,10.8252,10.7752,10.7328,10.6895,10.6664,10.6395,10.6472,10.6664,10.6818,10.7367,10.7713,10.6713,10.602,10.5674,10.5251,10.4828,10.4482,10.402,10.3674,10.302,10.3135,10.3174,10.2981,10.2751,10.252,10.2135,11.6484,11.6484,11.6484,11.6484,11.6226,11.4753,11.3984,11.3676,11.2252,11.1511,11.1511,11.1511,11.1214,11.0868,11.1291,11.1175,11.0983,11.1252,11.1511,11.1703,11.2214,11.2945,11.356,11.4522,11.4484,11.3368,11.2791,11.2445,11.2099,11.1714,11.1434,11.1511,11.1511,11.1395,11.1511,11.1511,11.1242,11.0906,11.0791,11.0406,10.9675,10.9483,10.9098,10.8406,10.779,10.7444,10.6982,10.5751,10.5213,10.4866,10.4251,10.3751,10.3828,10.3905,10.3905,10.3905,10.4289,10.4559,10.502,10.5482,10.5905,10.6367,10.6395,10.6395,10.6395,10.6395,10.6395,10.6472,10.678,10.7357,10.8175,10.9021,10.9752,11.0098,11.0598,11.1021,11.1395,11.1511,11.1511,11.1511,11.1434,11.1203,11.1175,11.1318,11.1242,11.0367,11.0329,11.0444,10.9867,10.9175,10.8444,10.7944,10.7405,10.6944,10.651,10.6587,10.6972,10.7328,10.7829,10.8098,10.7829,10.7213,10.6674,10.6097,10.5405,10.5059,10.4646,10.4328,10.402,10.3751,10.3674,10.3828,10.3789,10.3405,10.2904,11.6484,11.6484,11.6484,11.6484,11.6253,11.4868,11.4137,11.3753,11.2357,11.1665,11.1511,11.1511,11.1434,11.1472,11.1472,11.1511,11.1472,11.1472,11.1511,11.1665,11.2829,11.3214,11.3637,11.4868,11.5764,11.5291,11.4022,11.3214,11.256,11.2049,11.1742,11.1549,11.1511,11.1511,11.1511,11.1511,11.1472,11.1357,11.1357,11.1137,11.0521,11.0367,10.9944,10.9252,10.8521,10.8136,10.7405,10.6328,10.5713,10.6472,10.5905,10.529,10.4828,10.4482,10.4366,10.4443,10.5328,10.5828,10.5905,10.6251,10.6626,10.6597,10.6433,10.6395,10.6395,10.6433,10.6559,10.7021,10.7521,10.8444,10.906,10.9867,11.0291,11.056,11.1137,11.1434,11.1511,11.1511,11.1511,11.1511,11.1511,11.1357,11.1357,11.1472,11.1511,11.1511,11.1472,11.1329,11.0675,11.0021,10.9213,10.8367,10.779,10.7059,10.6549,10.6895,10.729,10.7752,10.8252,10.8559,10.8713,10.8175,10.7482,10.6521,10.5867,10.5559,10.5328,10.5136,10.4751,10.4289,10.4405,10.4828,10.4636,10.4212,10.3712,11.6484,11.6484,11.6484,11.6484,11.638,11.5484,11.4638,11.3907,11.2983,11.2137,11.1588,11.1511,11.1588,11.1549,11.1511,11.1511,11.1511,11.1511,11.1511,11.1665,11.2599,11.3099,11.3945,11.4907,11.5764,11.5984,11.5176,11.4137,11.3099,11.2549,11.2252,11.1703,11.1588,11.1588,11.1626,11.1511,11.1511,11.1511,11.1511,11.1368,11.1252,11.1098,11.0752,10.9829,10.8906,10.8175,10.7675,10.6867,10.6597,10.7328,10.7328,10.7521,10.7521,10.7213,10.6674,10.629,10.7059,10.7405,10.7021,10.7251,10.7444,10.7328,10.679,10.6482,10.6433,10.651,10.6905,10.779,10.8752,10.979,10.9983,11.0675,11.1165,11.1329,11.1329,11.1511,11.1511,11.1511,11.1511,11.1511,11.1511,11.1511,11.1511,11.1511,11.1511,11.1511,11.1511,11.1472,11.1214,11.0521,10.9752,10.8944,10.8136,10.7328,10.6549,10.7126,10.7636,10.8136,10.8636,10.9175,10.9213,10.8906,10.8213,10.7328,10.6559,10.6136,10.5944,10.579,10.5713,10.5405,10.5636,10.5905,10.552,10.5136,10.4828,11.6484,11.6484,11.6484,11.6484,11.6341,11.5649,11.5061,11.4561,11.3753,11.3176,11.2753,11.2368,11.2137,11.2022,11.1626,11.1511,11.1511,11.1511,11.1511,11.1703,11.2319,11.3176,11.4022,11.4907,11.5715,11.6176,11.5995,11.5303,11.4099,11.3599,11.3137,11.2829,11.2406,11.2126,11.2011,11.1703,11.1549,11.1511,11.1511,11.1511,11.1511,11.1511,11.106,11.0175,10.9483,10.8829,10.829,10.7982,10.7867,10.8252,10.8329,10.8521,10.879,10.8867,10.8406,10.7521,10.7905,10.7944,10.7367,10.7367,10.7482,10.7021,10.6636,10.6713,10.6944,10.7213,10.7675,10.879,10.9444,11.0406,11.0829,11.128,11.1472,11.1511,11.1511,11.1549,11.1511,11.1511,11.1511,11.1511,11.1511,11.1511,11.1511,11.1511,11.1511,11.1511,11.1511,11.1511,11.1511,11.1011,11.0329,10.9213,10.8329,10.7521,10.6982,10.7482,10.8136,10.8636,10.906,10.9598,10.979,10.956,10.8983,10.8213,10.7521,10.678,10.6356,10.6136,10.628,10.6395,10.6241,10.6136,10.6213,10.6059,10.5636,11.6484,11.6484,11.6484,11.6484,11.638,11.5841,11.5456,11.5176,11.4561,11.4099,11.3907,11.3291,11.2868,11.2522,11.1972,11.1588,11.1703,11.1665,11.1511,11.1742,11.2599,11.3407,11.406,11.5022,11.5918,11.638,11.6418,11.611,11.5149,11.4522,11.4137,11.3407,11.2868,11.256,11.2252,11.1752,11.1549,11.1511,11.1511,11.1511,11.1511,11.1472,11.1098,11.0291,11.0214,10.9713,10.8906,10.8713,10.8867,10.906,10.9175,10.9252,10.9483,10.9906,10.9444,10.8252,10.8098,10.7636,10.7175,10.7251,10.7444,10.6982,10.6741,10.7049,10.7598,10.8059,10.8752,10.9906,11.0483,11.0714,11.128,11.1665,11.1665,11.1549,11.1665,11.1703,11.1549,11.1511,11.1511,11.1511,11.1511,11.1511,11.1511,11.1511,11.1511,11.1511,11.1511,11.1511,11.1511,11.1511,11.0791,10.9444,10.8444,10.7675,10.7444,10.7829,10.8521,10.9252,10.9637,11.006,11.0214,11.0252,10.9637,10.9021,10.8136,10.7405,10.6944,10.6472,10.6395,10.6395,10.6395,10.6356,10.6318,10.628,10.6059,11.6484,11.6484,11.6484,11.6484,11.6457,11.633,11.5918,11.533,11.5215,11.4676,11.4214,11.3907,11.3445,11.2753,11.2022,11.2022,11.2137,11.1934,11.1665,11.1868,11.2945,11.3714,11.4291,11.5676,11.6149,11.6457,11.6484,11.6022,11.5407,11.5099,11.4291,11.3253,11.2868,11.2406,11.1983,11.1675,11.1511,11.1511,11.1511,11.1511,11.1511,11.1511,11.1021,11.0444,11.0214,10.9906,10.9252,10.9175,10.9406,10.9983,11.006,11.0444,11.0944,11.0483,10.9752,10.929,10.9252,10.9213,10.7829,10.7829,10.7867,10.7598,10.7521,10.7598,10.8175,10.9136,10.9906,11.006,11.0868,11.1357,11.1703,11.2214,11.2099,11.2088,11.2165,11.2011,11.178,11.1511,11.1511,11.1511,11.1511,11.1511,11.1511,11.1511,11.1511,11.1511,11.1511,11.1511,11.1434,11.1357,11.1165,10.9867,10.8906,10.8136,10.8098,10.8444,10.8983,10.979,11.0214,11.056,11.0675,11.0714,11.0444,10.9752,10.8867,10.8136,10.7675,10.7175,10.6664,10.6395,10.6395,10.6395,10.6395,10.6356,10.6328,11.6484,11.6484,11.6484,11.6484,11.6484,11.6484,11.6303,11.6034,11.5995,11.5803,11.533,11.4868,11.4253,11.3483,11.3022,11.2829,11.2676,11.2329,11.2175,11.2175,11.3022,11.383,11.4714,11.5456,11.5957,11.6457,11.6407,11.6061,11.5522,11.5138,11.4599,11.3522,11.2945,11.2588,11.1983,11.1714,11.1549,11.1511,11.1511,11.1511,11.1511,11.1434,11.1098,11.0291,11.0675,11.0367,10.9944,11.0175,11.0483,11.0944,11.0944,11.1098,11.1329,11.1098,11.056,10.979,10.9944,10.9329,10.8059,10.8598,10.8636,10.8444,10.8406,10.8598,10.9175,11.0098,11.0906,11.0944,11.1714,11.2088,11.228,11.2945,11.3099,11.306,11.2599,11.2357,11.2049,11.1665,11.1511,11.1511,11.1511,11.1511,11.1511,11.1511,11.1511,11.1511,11.1511,11.1511,11.1242,11.0906,11.0675,11.0252,10.9444,10.8713,10.8867,10.9175,10.9521,11.0214,11.0752,11.106,11.1214,11.1137,11.0868,11.0367,10.9483,10.8867,10.8406,10.7675,10.6944,10.6626,10.6395,10.6395,10.6395,10.6395,10.6241,11.6484,11.6484,11.6484,11.6484,11.6484,11.6484,11.6495,11.6484,11.6457,11.6457,11.6292,11.5649,11.4984,11.4561,11.4137,11.356,11.306,11.2829,11.2714,11.2714,11.3099,11.3945,11.4945,11.5533,11.5995,11.6484,11.6484,11.5869,11.5176,11.483,11.4407,11.3714,11.333,11.2753,11.2329,11.206,11.1819,11.1511,11.1511,11.1511,11.1511,11.1511,11.1126,11.0944,11.1021,11.1214,11.0752,11.1021,11.1434,11.1434,11.1434,11.1434,11.1472,11.1395,11.0944,11.0367,11.0406,11.0021,10.9175,10.9098,10.9406,10.9213,10.9252,10.956,11.0406,11.1214,11.1703,11.1752,11.1857,11.2357,11.2791,11.3253,11.3099,11.2945,11.2829,11.2637,11.2357,11.1857,11.1511,11.1511,11.1511,11.1511,11.1511,11.1511,11.1511,11.1511,11.1511,11.1511,11.1242,11.0829,11.0752,11.0637,11.0406,10.9867,10.9944,11.0175,11.0444,11.0598,11.1126,11.1395,11.1434,11.1472,11.1318,11.0703,11.006,10.9367,10.8752,10.7944,10.7213,10.6751,10.6395,10.6395,10.6395,10.6395,10.6318,11.6484,11.6484,11.6484,11.6484,11.6484,11.6484,11.6484,11.6484,11.6484,11.6484,11.6369,11.5764,11.5726,11.5764,11.483,11.4137,11.383,11.306,11.2906,11.3099,11.356,11.4407,11.5341,11.5995,11.638,11.6446,11.6457,11.5599,11.4484,11.4291,11.3676,11.2945,11.3253,11.2714,11.2368,11.2252,11.2022,11.1665,11.1511,11.1511,11.1511,11.1511,11.1434,11.1395,11.1434,11.1472,11.1395,11.1472,11.1511,11.1511,11.1511,11.1511,11.1511,11.1511,11.1098,11.0714,11.0906,11.0637,11.0175,10.9598,10.9098,10.9213,10.9637,11.0406,11.1098,11.1357,11.1819,11.2242,11.2126,11.2214,11.2522,11.2753,11.2945,11.2829,11.2829,11.256,11.2252,11.1819,11.1511,11.1511,11.1511,11.1511,11.1511,11.1511,11.1511,11.1511,11.1511,11.1511,11.1511,11.1242,11.1318,11.128,11.1318,11.1165,11.1203,11.1242,11.106,11.1021,11.1318,11.1472,11.1472,11.1511,11.1511,11.1126,11.0483,10.979,10.8983,10.8021,10.7213,10.6664,10.6395,10.6395,10.6395,10.6395,10.6395,11.6689,11.6495,11.6484,11.6484,11.6484,11.6484,11.6484,11.6484,11.6484,11.6484,11.6484,11.6226,11.6187,11.6226,11.5957,11.4907,11.4099,11.3714,11.3522,11.356,11.3984,11.4791,11.5687,11.6264,11.6484,11.6484,11.6418,11.5638,11.4214,11.4099,11.3445,11.3099,11.3291,11.2868,11.256,11.2406,11.2137,11.1742,11.1511,11.1511,11.1511,11.1511,11.1511,11.1511,11.1511,11.1511,11.1472,11.1511,11.1511,11.1511,11.1511,11.1511,11.1511,11.1511,11.1318,11.0983,11.1357,11.1242,11.106,11.0637,11.0521,11.056,11.0868,11.1137,11.1472,11.1511,11.1588,11.1868,11.2126,11.2291,11.2599,11.3176,11.3483,11.3099,11.2753,11.2406,11.2137,11.1703,11.1665,11.1703,11.1588,11.1511,11.1511,11.1511,11.1511,11.1511,11.1511,11.1511,11.1511,11.1511,11.1511,11.1511,11.1511,11.1511,11.1511,11.1511,11.1511,11.1511,11.1511,11.1511,11.1511,11.1511,11.1472,11.1214,11.0829,10.9983,10.906,10.7982,10.7213,10.6626,10.6433,10.6395,10.6395,10.6395,10.6395,11.6976,11.6779,11.6699,11.661,11.6506,11.6484,11.6484,11.6484,11.6484,11.6484,11.6484,11.6484,11.6484,11.6484,11.6407,11.5753,11.4714,11.4407,11.4407,11.4407,11.4599,11.5253,11.6061,11.6484,11.6484,11.6484,11.6369,11.5676,11.4561,11.4407,11.3945,11.3483,11.333,11.333,11.2637,11.2406,11.206,11.1665,11.1511,11.1511,11.1511,11.1511,11.1511,11.1511,11.1511,11.1511,11.1511,11.1511,11.1511,11.1511,11.1511,11.1511,11.1511,11.1511,11.1511,11.1511,11.1511,11.1511,11.1511,11.1511,11.1472,11.1318,11.1357,11.1434,11.1511,11.1511,11.1637,11.1972,11.2242,11.2434,11.256,11.2868,11.2868,11.2368,11.2252,11.2022,11.1934,11.1703,11.1819,11.1945,11.1895,11.2049,11.228,11.228,11.178,11.1703,11.1511,11.1511,11.1511,11.1511,11.1511,11.1511,11.1511,11.1511,11.1511,11.1549,11.1588,11.1511,11.1511,11.1511,11.1511,11.1511,11.1511,11.1318,11.0829,11.006,10.9213,10.8329,10.7444,10.6549,10.6433,10.6395,10.6395,10.6395,10.6395,11.7374,11.7345,11.7074,11.6808,11.6577,11.6495,11.6484,11.6484,11.6484,11.6484,11.6484,11.6484,11.6484,11.6484,11.6484,11.5918,11.5303,11.5099,11.5099,11.5061,11.5022,11.5726,11.6187,11.6484,11.6484,11.6484,11.6418,11.6034,11.5149,11.483,11.4445,11.4368,11.4407,11.4291,11.2819,11.1972,11.1588,11.1549,11.1588,11.1511,11.1511,11.1511,11.1511,11.1511,11.1511,11.1511,11.1511,11.1511,11.1511,11.1511,11.1511,11.1511,11.1511,11.1511,11.1549,11.1637,11.1549,11.1511,11.1549,11.1549,11.1665,11.1549,11.1511,11.1511,11.1511,11.1549,11.1703,11.2011,11.1972,11.2011,11.2099,11.2175,11.2099,11.1895,11.1829,11.1819,11.178,11.1934,11.2099,11.2329,11.2637,11.2868,11.3176,11.3176,11.2406,11.1972,11.1626,11.1511,11.1549,11.1511,11.1511,11.1511,11.1511,11.1742,11.1742,11.1665,11.1626,11.1549,11.1626,11.178,11.1703,11.1588,11.1549,11.1472,11.106,11.0444,10.9637,10.879,10.7829,10.6895,10.651,10.6395,10.6395,10.6395,10.6395,11.7603,11.7392,11.7284,11.721,11.7058,11.6679,11.6495,11.6484,11.6484,11.6484,11.6484,11.6484,11.6484,11.6484,11.6418,11.6072,11.5445,11.5303,11.5303,11.5341,11.5379,11.583,11.6292,11.6484,11.6484,11.6484,11.6418,11.611,11.5264,11.5022,11.4907,11.4868,11.5022,11.4984,11.4368,11.3599,11.2983,11.2319,11.1895,11.1511,11.1511,11.1511,11.1511,11.1511,11.1511,11.1511,11.1511,11.1549,11.1588,11.1549,11.1549,11.1588,11.1588,11.1588,11.1819,11.1983,11.1972,11.178,11.228,11.2626,11.256,11.2049,11.1588,11.1588,11.1511,11.1511,11.1703,11.1857,11.1742,11.1742,11.1703,11.2291,11.2291,11.1895,11.178,11.1857,11.1934,11.2252,11.2522,11.2753,11.306,11.3445,11.383,11.3753,11.3137,11.2637,11.2368,11.178,11.1665,11.1549,11.1511,11.1511,11.1588,11.1895,11.2011,11.1819,11.2099,11.2329,11.2357,11.2406,11.2214,11.1752,11.1588,11.1472,11.1214,11.0868,10.9983,10.9098,10.8098,10.7328,10.6895,10.651,10.6395,10.6395,10.6395,11.7917,11.7693,11.7616,11.7546,11.7478,11.7027,11.6779,11.6668,11.6556,11.6484,11.6484,11.6484,11.6484,11.6484,11.6446,11.6341,11.5715,11.5726,11.5726,11.5726,11.5726,11.611,11.638,11.6484,11.6484,11.6484,11.6457,11.6187,11.5803,11.5215,11.5061,11.5176,11.5303,11.5215,11.4907,11.4291,11.3676,11.3022,11.256,11.2011,11.1906,11.1742,11.1511,11.1511,11.1511,11.1511,11.1588,11.1665,11.178,11.1665,11.1703,11.1857,11.1906,11.2022,11.2368,11.2676,11.2829,11.2714,11.3214,11.3483,11.3253,11.2676,11.2175,11.1934,11.1819,11.1703,11.1549,11.1549,11.1588,11.1549,11.1703,11.2329,11.2329,11.1934,11.2165,11.2242,11.2599,11.2945,11.3368,11.3599,11.3868,11.4214,11.4368,11.4176,11.3868,11.3483,11.3099,11.2483,11.1857,11.1742,11.1588,11.1511,11.1511,11.1742,11.1895,11.1934,11.2329,11.3022,11.2868,11.256,11.2175,11.1626,11.1549,11.1511,11.1318,11.1021,11.0252,10.9406,10.8675,10.7905,10.729,10.6895,10.6472,10.6395,10.6395,11.8281,11.8242,11.8033,11.7903,11.7836,11.7547,11.7251,11.699,11.6668,11.6523,11.6551,11.6501,11.6484,11.6484,11.6484,11.6457,11.638,11.638,11.638,11.6369,11.6253,11.6457,11.6457,11.6484,11.6484,11.6484,11.6457,11.6457,11.6457,11.611,11.5792,11.5456,11.5495,11.5533,11.5253,11.4907,11.4253,11.3676,11.2945,11.2406,11.2137,11.178,11.1549,11.1511,11.1511,11.1511,11.1665,11.1945,11.1983,11.206,11.2203,11.256,11.2714,11.2753,11.3291,11.3676,11.3868,11.4137,11.406,11.4214,11.4368,11.3984,11.333,11.2983,11.2637,11.2329,11.2214,11.2088,11.2137,11.1857,11.178,11.2088,11.2368,11.2483,11.278,11.3099,11.3483,11.3907,11.4368,11.4714,11.5022,11.5215,11.5061,11.483,11.4561,11.433,11.3907,11.3176,11.2599,11.2011,11.1819,11.1511,11.1511,11.1549,11.1742,11.2011,11.2522,11.3214,11.256,11.2137,11.1791,11.1626,11.1549,11.1511,11.1511,11.1165,11.0675,11.0098,10.9483,10.8752,10.7982,10.7059,10.6549,10.6433,10.6395,11.8281,11.8281,11.8237,11.8194,11.8147,11.7856,11.758,11.7278,11.6968,11.6873,11.6854,11.6631,11.654,11.6484,11.6484,11.6484,11.6484,11.6484,11.6484,11.6484,11.6484,11.6484,11.6484,11.6484,11.6484,11.6484,11.6484,11.6484,11.6495,11.6484,11.6022,11.5445,11.5726,11.5918,11.5869,11.5841,11.4945,11.4022,11.3137,11.2626,11.2126,11.1703,11.1511,11.1511,11.1511,11.1511,11.1665,11.1829,11.1945,11.2434,11.256,11.2906,11.3599,11.3637,11.3868,11.4099,11.483,11.561,11.5176,11.5445,11.5676,11.5445,11.4907,11.4214,11.3791,11.3407,11.3137,11.2829,11.2714,11.2511,11.256,11.2791,11.2714,11.2676,11.3176,11.3907,11.4291,11.4599,11.5022,11.5099,11.5484,11.5522,11.5407,11.5418,11.5138,11.5061,11.4638,11.3868,11.306,11.2406,11.1934,11.1626,11.1549,11.1549,11.2011,11.2368,11.2829,11.3176,11.2445,11.2011,11.2049,11.1895,11.1626,11.1511,11.1511,11.1472,11.1291,11.0675,11.006,10.9444,10.8675,10.7598,10.6703,10.6587,10.6549,11.8281,11.8281,11.8281,11.8281,11.8242,11.8104,11.7924,11.769,11.7348,11.7136,11.6973,11.6779,11.6635,11.6506,11.6484,11.6484,11.6484,11.6484,11.6484,11.6484,11.6484,11.6484,11.6484,11.6484,11.6484,11.6484,11.6484,11.6484,11.6457,11.6099,11.5638,11.5407,11.5918,11.5753,11.5561,11.5407,11.4868,11.3984,11.3176,11.2714,11.2175,11.1665,11.1511,11.1511,11.1511,11.1511,11.1588,11.1675,11.2252,11.2753,11.2906,11.3637,11.4445,11.4753,11.4984,11.5253,11.5715,11.611,11.5907,11.6149,11.6418,11.638,11.6072,11.5599,11.4907,11.4368,11.3753,11.3253,11.333,11.3368,11.356,11.3637,11.3176,11.2714,11.3676,11.4676,11.4984,11.5226,11.5291,11.533,11.5445,11.5522,11.5599,11.5649,11.561,11.5341,11.483,11.406,11.3176,11.228,11.1857,11.1549,11.1549,11.1588,11.2049,11.2329,11.2445,11.2522,11.2165,11.1895,11.2126,11.2011,11.1626,11.1511,11.1511,11.1472,11.1406,11.1175,11.0637,11.0021,10.9483,10.8713,10.7675,10.6818,10.6818,11.8281,11.8281,11.8281,11.8281,11.8281,11.8281,11.8281,11.8242,11.7701,11.7315,11.712,11.7023,11.6817,11.6645,11.6534,11.6495,11.6484,11.6484,11.6484,11.6484,11.6484,11.6484,11.6484,11.6484,11.6484,11.6484,11.6484,11.6484,11.6303,11.6072,11.5803,11.5379,11.5572,11.5484,11.5215,11.5291,11.4753,11.3637,11.333,11.306,11.2406,11.1895,11.1511,11.1511,11.1511,11.1511,11.1703,11.2137,11.2753,11.306,11.3637,11.4484,11.5291,11.588,11.6187,11.6303,11.638,11.638,11.633,11.6457,11.6457,11.6484,11.6446,11.6138,11.5484,11.5176,11.4599,11.4291,11.4368,11.4253,11.4368,11.4445,11.4137,11.3945,11.4484,11.5022,11.5176,11.5226,11.5099,11.5138,11.5138,11.5215,11.5176,11.5215,11.5764,11.5533,11.4868,11.4099,11.3214,11.2203,11.178,11.1511,11.1511,11.1549,11.1626,11.1819,11.1703,11.1665,11.1665,11.1665,11.178,11.1703,11.1549,11.1511,11.1511,11.1511,11.1434,11.1242,11.106,11.0637,11.0137,10.979,10.8867,10.7713,10.7367,11.8281,11.8281,11.8281,11.8281,11.8281,11.8281,11.8281,11.8281,11.8154,11.7917,11.7651,11.7242,11.6947,11.6854,11.6624,11.6523,11.6495,11.6484,11.6484,11.6484,11.6484,11.6484,11.6484,11.6484,11.6484,11.6484,11.6484,11.6484,11.6418,11.6264,11.6187,11.6187,11.6138,11.583,11.5484,11.5561,11.4561,11.356,11.3137,11.2829,11.2088,11.178,11.1511,11.1511,11.1511,11.1588,11.1829,11.2291,11.3022,11.3676,11.4522,11.533,11.6149,11.6369,11.6484,11.6484,11.6484,11.6484,11.6484,11.6484,11.6484,11.6484,11.6418,11.6072,11.5841,11.5841,11.5726,11.5522,11.5253,11.5061,11.4945,11.5022,11.4984,11.4984,11.5099,11.5176,11.5264,11.5061,11.4868,11.483,11.483,11.483,11.4791,11.5176,11.5687,11.5418,11.4599,11.383,11.2945,11.2049,11.1742,11.1511,11.1511,11.1511,11.1511,11.1511,11.1511,11.1588,11.1665,11.1626,11.1549,11.1665,11.178,11.1588,11.1511,11.1588,11.1588,11.1472,11.1242,11.0983,11.0714,11.0329,10.979,10.879,10.8482,11.8281,11.8281,11.8281,11.8281,11.8281,11.8281,11.8281,11.8281,11.8281,11.8198,11.804,11.7633,11.7283,11.7041,11.6779,11.6592,11.6534,11.6495,11.6484,11.6484,11.6484,11.6484,11.6484,11.6484,11.6484,11.6484,11.6484,11.6484,11.6484,11.6457,11.6457,11.6484,11.6484,11.633,11.5984,11.5176,11.4522,11.3945,11.3137,11.2472,11.1895,11.1742,11.1819,11.1819,11.178,11.1868,11.2445,11.2906,11.3407,11.4407,11.5368,11.583,11.6341,11.6446,11.6484,11.6484,11.6484,11.6484,11.6484,11.6484,11.6484,11.6484,11.6484,11.6187,11.6187,11.611,11.5484,11.5215,11.4714,11.4484,11.4445,11.4484,11.406,11.3907,11.4291,11.4561,11.4599,11.4484,11.4368,11.4291,11.4445,11.4676,11.4907,11.5726,11.588,11.483,11.4099,11.333,11.2522,11.1972,11.1703,11.1511,11.1511,11.1511,11.1511,11.1511,11.1511,11.1588,11.1703,11.1972,11.2088,11.2088,11.2049,11.2049,11.1972,11.178,11.178,11.1742,11.1549,11.1318,11.1098,11.0829,11.0291,10.9867,10.979,11.8281,11.8281,11.8281,11.8281,11.8281,11.8281,11.8281,11.8281,11.8281,11.8281,11.8242,11.8036,11.7594,11.729,11.7025,11.6817,11.6668,11.6658,11.6603,11.6506,11.6484,11.6484,11.6484,11.6484,11.6484,11.6484,11.6484,11.6484,11.6484,11.6484,11.6484,11.6484,11.638,11.6187,11.5368,11.4599,11.4022,11.3907,11.3368,11.2714,11.2329,11.206,11.2088,11.2088,11.2049,11.2395,11.306,11.3637,11.3868,11.483,11.5869,11.6264,11.6457,11.6484,11.6484,11.6484,11.6484,11.6484,11.6484,11.6484,11.6484,11.6484,11.6484,11.6495,11.6457,11.6072,11.5407,11.483,11.433,11.4253,11.4214,11.3945,11.3483,11.3368,11.383,11.3984,11.3945,11.3984,11.3984,11.3945,11.4214,11.4522,11.5226,11.6034,11.5495,11.4445,11.3522,11.2753,11.2088,11.1857,11.1588,11.1511,11.1511,11.1511,11.1511,11.1511,11.1511,11.1549,11.1703,11.2242,11.2588,11.2483,11.2522,11.2791,11.2626,11.2242,11.2126,11.2126,11.1895,11.1549,11.1357,11.1175,11.1021,11.0714,11.0983,11.8281,11.8281,11.8281,11.8281,11.8281,11.8281,11.8281,11.8281,11.8281,11.8281,11.8281,11.8242,11.7995,11.7706,11.7403,11.7133,11.6891,11.6816,11.6679,11.6551,11.6495,11.6484,11.6484,11.6484,11.6484,11.6484,11.6484,11.6484,11.6484,11.6484,11.6484,11.6484,11.6484,11.6341,11.611,11.5215,11.433,11.4291,11.3407,11.2483,11.2753,11.2472,11.2126,11.1934,11.1626,11.2126,11.2753,11.3483,11.4291,11.5215,11.5984,11.6369,11.6484,11.6484,11.6484,11.6484,11.6484,11.6484,11.6484,11.6484,11.6484,11.6484,11.6484,11.6484,11.6341,11.5957,11.533,11.4676,11.4368,11.4561,11.4522,11.4022,11.3599,11.3907,11.4291,11.3753,11.3407,11.3676,11.3868,11.4099,11.4407,11.4791,11.5341,11.5572,11.5226,11.4214,11.333,11.256,11.1819,11.1626,11.1549,11.1549,11.1549,11.1511,11.1511,11.1511,11.1511,11.1549,11.1857,11.2637,11.2945,11.2714,11.2829,11.3445,11.3099,11.2599,11.256,11.2483,11.2011,11.1665,11.1549,11.1434,11.1357,11.128,11.1291]}]]